     2              OBSERVATION DATA    GPS                 RINEX VERSION / TYPE
teqc 1999Jul19 19991123 03:22:39UTC                         PGM / RUN BY / DATE
                                                            COMMENT
Original Marker Name: OWEN                                  COMMENT
Campaign Name: HPGN 1991                                    COMMENT
4-Character Station Name: OWEN                              COMMENT
6-Character Antenna Code: TRMSST                            COMMENT
Vertical Measurement Point: BPA                             COMMENT
Vertical Offset to Rinex Ref. Point: 0.0000                 COMMENT
Radial Measurement Point: RRP                               COMMENT
Radial Offset to Rinex Ref. Point: 0.0000                   COMMENT
Antenna Height from Field Measurement: 2.2200 m             COMMENT
                                                            COMMENT
Original XYZ: -2410419.1219 -4477799.8084 3838687.9132      COMMENT
New XYZ position is based on association with SCEC monument COMMENT
E1F7W3N0+0011. Position of that monument is believed to be  COMMENT
valid to within 1 m horizontally; vertical accuracy         COMMENT
should be no worse than 3-times this value.                 COMMENT
                                                            COMMENT
Revised Rinex header created by UCSD GPS archive for        COMMENT
GSAC on 10-Mar-2000 (2000:070) 17:43:05 GMT                 COMMENT
For assistance contact dagnew@ucsd.edu or hjohnson@ucsd.edu COMMENT
                                                            COMMENT
OWENS VALLEY NCMN 7114                                      MARKER NAME
OWEN                                                        MARKER NUMBER
-Unknown- CALIF DEPT TRANSPORTATION                         OBSERVER / AGENCY
621 TRIMBLE 4000 SST NP 4.30 / SP 4.20                      REC # / TYPE / VERS
9 TR 4000SST L1/L2 GEO                                      ANT # / TYPE
 -2410422.5744 -4477802.7532  3838686.8101                  APPROX POSITION XYZ
        2.2200        0.0000        0.0000                  ANTENNA: DELTA H/E/N
     1     1     0                                          WAVELENGTH FACT L1/2
     5    C1    L1    L2    S1    S2                        # / TYPES OF OBSERV
     0                                                      INTERVAL
  1991     6     3    16    55   45.000000                  TIME OF FIRST OBS
  1991     6     3    23     2   30.000000                  TIME OF LAST OBS
                                                            END OF HEADER
 91  6  3 16 55 45.0000000  0  4G18G19G11G 2
  20515015.570          -0.81418                        28.500
  20769469.734          -0.08317                        21.750
  24118028.508          -0.60516                        12.250
  24363887.156          -0.49315                         9.000
 91  6  3 16 56 15.0000000  0  4G18G19G11G 2
  20516882.695        9810.825 8        -0.08733        28.500           2.625
  20763128.969      -33324.150 7                        21.750
  24099509.094      -97288.106 6        -0.23031        12.500           0.656
  24340806.023     -121276.436 5                         8.250
 91  6  3 16 56 30.0000000  0  4G18G19G11G 2
  20517846.477       14874.602 8      3945.69423        28.250           2.688
  20759973.344      -49919.087 7        -0.32132        21.250           1.906
  24090268.867     -145833.555 6    -37827.72821        12.500           0.531
  24329276.555     -181876.979 5        -0.36331         8.500           0.438
 91  6  3 16 56 45.0000000  0  4G18G19G11G 2
  20518830.734       20047.015 8      7976.12023        28.250           2.688
  20756823.602      -66465.932 7    -12893.97222        22.000           2.000
  24081050.078     -194309.688 6    -75601.22821        13.000           0.531
  24317748.969     -242448.951 5    -47199.24821         8.500           0.438
 91  6  3 16 57  0.0000000  0  4G18G19G11G 2
  20519834.961       25326.505 8     12089.97823        28.000           2.625
  20753684.336      -82966.260 7    -25751.37622        21.750           1.844
  24071838.531     -242717.499 6   -113321.48721        13.750           0.469
  24306225.102     -302993.622 5    -94376.84321         8.250           0.500
 91  6  3 16 57 30.0000000  0  4G18G19G11G 2
  20521903.609       36197.730 8     20561.01323        28.500           2.500
  20747430.914     -115836.213 7    -51364.33922        20.750           1.844
  24053455.953     -339335.585 6   -188608.09721        13.250           0.594
  24283197.625     -424009.271 5   -188674.62721         8.250           0.438
 91  6  3 16 57 45.0000000  0  4G18G19G11G 2
  20522966.828       41780.161 8     24910.93223        28.250           2.563
  20744310.211     -132215.283 7    -64127.25422        21.500           1.969
  24044275.047     -387554.264 6   -226180.98621        13.000           0.469
  24271691.039     -484489.012 5   -235801.64421         9.000           0.469
 91  6  3 16 58  0.0000000  0  4G18G19G11G 2
  20524048.406       47467.777 8     29342.81523        28.500           2.500
  20741205.039     -148549.642 7    -76855.33522        20.500           1.906
  24035111.945     -435704.898 6   -263700.86021        12.500           0.438
  24260186.094     -544942.513 5   -282908.20421         9.500           0.500
 91  6  3 16 58 15.0000000  0  4G18G19G11G 2
  20525151.086       53262.753 8     33858.35423        28.250           2.531
  20738104.477     -164837.244 7    -89546.97822        21.750           1.906
  24025965.016     -483784.900 6   -301165.68821        12.500           0.563
  24248688.359     -605367.543 5   -329992.59921         9.500           0.469
 91  6  3 16 58 30.0000000  0  4G18G19G11G 2
  20526273.234       59158.825 8     38452.67223        28.000           2.594
  20735015.055     -181084.197 7   -102206.94622        20.500           1.938
  24016826.773     -531799.876 6   -338579.84421        12.500           0.500
  24237193.078     -665769.956 5   -377059.36721         9.500           0.531
 91  6  3 16 58 45.0000000  0  4G18G19G11G 2
  20527414.383       65156.936 7     43126.49723        27.750           2.563
  20731928.672     -197289.809 7   -114834.69822        21.750           1.969
  24007702.250     -579748.806 6   -375942.53521        12.750           0.531
  24225704.219     -726148.828 5   -424107.79421         9.500           0.438
 91  6  3 16 59  0.0000000  0  4G18G19G11G 2
  20528576.461       71262.262 7     47883.86923        27.750           2.531
  20728852.594     -213448.950 7   -127426.24522        21.500           1.906
  23998591.180     -627626.048 6   -413249.37021        12.750           0.531
  24214218.148     -786498.621 5   -471133.55921         9.750           0.469
 91  6  3 16 59 15.0000000  0  4G18G19G11G 2
  20529758.953       77473.035 7     52723.40723        27.750           2.563
  20725787.109     -229563.495 7   -139983.03722        21.750           1.969
  23989497.805     -675433.044 6   -450501.48721        12.750           0.531
  24202740.297     -846821.136 5   -518138.05321        10.000           0.500
 91  6  3 16 59 30.0000000  0  4G18G19G11G 2
  20530958.766       83782.082 8     57639.52323        28.250           2.500
  20722730.820     -245640.418 7   -152510.51322        20.250           2.031
  23980408.273     -723176.277 6   -487703.88921        12.250           0.469
  24191262.805     -907123.001 5   -565126.47121         9.750           0.438
 91  6  3 16 59 45.0000000  0  4G18G19G11G 2
  20532179.813       90196.696 7     62637.89423        27.750           2.563
  20719678.164     -261672.307 7   -165002.89722        21.750           2.000
  23971334.289     -770848.015 6   -524850.59921        12.000           0.594
  24179793.133     -967396.861 5   -612093.07721         9.750           0.500
 91  6  3 17  0  0.0000000  0  4G18G19G11G 2
  20533420.109       96714.601 7     67716.75923        27.750           2.594
  20716636.102     -277661.562 7   -177462.06522        21.000           1.969
  23962280.313     -818450.268 6   -561943.15721        12.500           0.438
  24168329.422    -1027644.873 5   -659039.51321        10.000           0.406
 91  6  3 17  0 15.0000000  0  4G18G19G11G 2
  20534682.555      103344.328 7     72882.75323        27.750           2.625
  20713601.242     -293599.743 7   -189881.42422        21.750           1.875
  23953234.938     -865974.274 6   -598974.76421        12.500           0.469
  24156872.531    -1087858.492 5   -705959.18121        10.250           0.438
 91  6  3 17  0 30.0000000  0  4G18G19G11G 2
  20535963.313      110077.537 7     78129.38323        27.250           2.594
  20710577.766     -309495.057 7   -202267.38822        21.250           1.813
  23944202.898     -913427.682 6   -635951.35021        12.500           0.531
  24145419.922    -1148045.510 5   -752858.08321        10.250           0.469
 91  6  3 17  0 45.0000000  0  4G18G19G11G 2
  20537264.281      116916.614 7     83458.50723        27.250           2.594
  20707559.977     -325345.063 7   -214618.04622        21.750           1.813
  23935190.367     -960807.634 6   -672870.70621        12.750           0.469
  24133971.883    -1208203.237 5   -799734.16821        10.250           0.406
 91  6  3 17  1  0.0000000  0  4G18G19G11G 2
  20538597.539      123919.372 7     88915.17023        27.500           2.594
  20704564.305     -341092.268 7   -226888.60122        21.000           1.938
  23926197.180    -1008056.223 6   -709687.71021        12.500           0.594
  24122539.266    -1268273.987 5   -846542.48421        10.500           0.375
 91  6  3 17  1 15.0000000  0  4G18G19G11G 2
  20539948.578      131020.726 7     94448.66523        27.500           2.594
  20701573.594     -356801.128 7   -239129.27522        21.500           1.938
  23917215.633    -1055237.560 6   -746452.30521        12.750           0.563
  24111113.258    -1328322.270 5   -893333.30221        10.500           0.438
 91  6  3 17  1 30.0000000  0  4G18G19G11G 2
  20541318.961      138221.193 7    100059.38823        27.750           2.656
  20698596.086     -372471.546 7   -251339.99922        20.250           1.875
  23908253.766    -1102351.155 6   -783164.11721        12.750           0.625
  24099691.102    -1388347.601 5   -940106.23421        10.000           0.438
 91  6  3 17  1 45.0000000  0  4G18G19G11G 2
  20542707.547      145519.208 7    105746.12423        27.750           2.625
  20695616.633     -388105.238 7   -263522.09922        21.000           1.906
  23899304.164    -1149398.100 6   -819824.00821        13.250           0.531
  24088270.078    -1448351.462 5   -986862.41521         9.250           0.375
 91  6  3 17  2  0.0000000  0  4G18G19G11G 2
  20544115.359      152916.409 7    111510.14923        27.750           2.688
  20692651.039     -403700.351 7   -275674.13622        20.500           1.938
  23890360.203    -1196376.291 6   -856430.29021        13.250           0.625
  24076857.750    -1508331.869 5  -1033600.33721         9.500           0.344
 91  6  3 17  2 15.0000000  0  4G18G19G11G 2
  20545539.828      160402.591 7    117343.50523        27.750           2.563
  20689686.945     -419267.062 7   -287804.04422        21.500           2.000
  23881430.219    -1243295.561 6   -892990.69021        13.000           0.563
  24065448.523    -1568298.820 5  -1080327.77321        10.250           0.281
 91  6  3 17  2 30.0000000  0  4G18G19G11G 2
  20546984.000      167988.572 8    123254.62823        28.000           2.594
  20686734.844     -434794.622 7   -299903.44522        20.750           2.063
  23872515.688    -1290144.536 6   -929496.31921        13.000           0.563
  24054042.086    -1628241.274 5  -1127036.12421        10.000           0.281
 91  6  3 17  2 45.0000000  0  4G18G19G11G 2
  20548445.914      175675.456 7    129244.37923        27.500           2.563
  20683786.016     -450282.157 7   -311971.65822        21.500           1.938
  23863613.977    -1336922.021 6   -965946.24621        13.500           0.563
  24042640.078    -1688158.110 5  -1173724.48521         9.750           0.344
 91  6  3 17  3  0.0000000  0  4G18G19G11G 2
  20549925.570      183452.224 7    135304.17023        27.500           2.625
  20680845.391     -465740.244 7   -324016.92822        21.250           2.000
  23854725.031    -1383638.166 6  -1002348.36621        13.750           0.656
  24031240.352    -1748059.735 5  -1220401.00921         9.750           0.313
 91  6  3 17  3 15.0000000  0  4G18G19G11G 2
  20551425.438      191330.924 7    141443.38723        27.500           2.531
  20677910.914     -481157.037 7   -336030.01922        21.500           1.969
  23845851.172    -1430280.737 6  -1038693.17121        14.250           0.656
  24019846.031    -1807934.154 5  -1267056.33321        10.000           0.344
 91  6  3 17  3 30.0000000  0  4G18G19G11G 2
  20552943.094      199311.265 7    147661.80523        27.500           2.531
  20674989.563     -496532.767 7   -348011.11422        20.000           1.906
  23836987.430    -1476849.453 6  -1074980.42121        14.250           0.688
  24008458.094    -1867781.563 5  -1313690.60221         9.500           0.313
 91  6  3 17  3 45.0000000  0  4G18G19G11G 2
  20554480.492      207384.639 7    153952.72123        27.500           2.719
  20672065.500     -511875.875 7   -359966.78222        21.500           1.969
  23828139.547    -1523352.394 6  -1111216.41721        14.000           0.688
  23997072.531    -1927610.034 5  -1360310.10921         9.500           0.438
 91  6  3 17  4  0.0000000  0  4G18G19G11G 2
  20556034.797      215553.784 7    160318.25823        27.500           2.656
  20669154.008     -527183.802 7   -371895.04322        20.250           1.938
  23819304.320    -1569786.659 6  -1147398.89621        14.500           0.656
  23985691.406    -1987416.759 5  -1406912.67021         9.750           0.406
 91  6  3 17  4 15.0000000  0  4G18G19G11G 2
  20557605.711      223809.215 7    166751.03523        27.500           2.688
  20666243.125     -542465.923 7   -383803.19122        21.000           1.844
  23810478.242    -1616161.105 6  -1183534.78221        14.250           0.750
  23974314.531    -2047210.798 5  -1453505.35221        10.000           0.406
 91  6  3 17  4 30.0000000  0  4G18G19G11G 2
  20559193.969      232158.454 7    173256.90623        27.250           2.781
  20663342.266     -557714.824 7   -395685.46422        20.750           1.906
  23801669.641    -1662468.068 6  -1219618.06921        14.250           0.750
  23962940.008    -2106984.660 5  -1500082.31221        10.250           0.500
 91  6  3 17  4 45.0000000  0  4G18G19G11G 2
  20560804.031      240614.130 7    179845.71623        27.500           2.750
  20660449.047     -572917.712 7   -407531.86922        21.500           1.875
  23792870.383    -1708694.144 6  -1255638.33521        13.750           0.719
  23951570.000    -2166725.296 5  -1546633.35921        10.000           0.531
 91  6  3 17  5  0.0000000  0  4G18G19G11G 2
  20562430.102      249161.328 7    186505.84323        27.250           2.750
  20657563.469     -588089.767 7   -419354.25722        20.750           1.813
  23784085.313    -1754854.246 6  -1291607.19521        13.750           0.656
  23940204.313    -2226447.897 5  -1593170.37021        10.250           0.531
 91  6  3 17  5 15.0000000  0  4G18G19G11G 2
  20564074.867      257806.695 7    193242.46523        27.000           2.750
  20654681.414     -603224.042 7   -431147.20122        21.250           1.875
  23775317.102    -1800940.885 6  -1327518.81521        13.750           0.563
  23928844.594    -2286145.084 5  -1639687.57421        10.250           0.594
 91  6  3 17  5 30.0000000  0  4G18G19G11G 2
  20565738.523      266547.942 7    200053.79723        27.000           2.813
  20651809.172     -618323.162 7   -442912.75622        20.750           1.938
  23766557.734    -1846956.251 6  -1363374.90221        13.500           0.719
  23917490.336    -2345819.115 5  -1686186.72021        11.000           0.563
 91  6  3 17  5 45.0000000  0  4G18G19G11G 2
  20567420.758      275385.651 7    206940.29723        26.750           2.750
  20648940.688     -633386.368 7   -454650.32522        21.000           1.969
  23757815.320    -1892899.313 6  -1399174.64621        13.250           0.719
  23906138.148    -2405469.371 5  -1732667.36921        11.000           0.625
 91  6  3 17  6  0.0000000  0  4G18G19G11G 2
  20569121.109      284321.332 7    213903.13823        27.000           2.688
  20646085.633     -648411.832 7   -466358.48222        20.500           1.969
  23749088.180    -1938767.892 6  -1434916.34121        13.250           0.656
  23894790.016    -2465093.860 5  -1779127.90921        11.000           0.594
 91  6  3 17  6 15.0000000  0  4G18G19G11G 2
  20570839.492      293350.294 7    220938.65823        26.750           2.719
  20643229.820     -663404.043 7   -478040.72922        21.250           1.938
  23740371.680    -1984566.054 6  -1470603.18321        13.500           0.750
  23883449.570    -2524696.918 5  -1825571.76221        11.250           0.719
 91  6  3 17  6 30.0000000  0  4G18G19G11G 2
  20572576.859      302479.026 7    228051.92923        27.000           2.688
  20640386.148     -678356.772 7   -489692.21022        20.750           2.031
  23731673.133    -2030287.267 6  -1506230.05921        13.500           0.750
  23872114.258    -2584272.066 5  -1871993.86521        11.750           0.625
 91  6  3 17  6 45.0000000  0  4G18G19G11G 2
  20574331.547      311702.665 7    235239.15723        26.750           2.844
  20637546.258     -693274.880 7   -501316.71522        21.250           2.063
  23722984.742    -2075935.934 6  -1541800.40621        13.500           0.625
  23860781.141    -2643823.910 5  -1918397.80621        11.750           0.531
 91  6  3 17  7  0.0000000  0  4G18G19G11G 2
  20576103.367      321018.418 7    242498.15723        26.500           2.844
  20634712.945     -708161.456 7   -512916.64022        20.500           1.938
  23714311.883    -2121514.523 6  -1577316.15321        13.750           0.844
  23849453.750    -2703355.169 6  -1964785.71821        12.000           0.625
 91  6  3 17  7 15.0000000  0  4G18G19G11G 2
  20577896.938      330440.123 7    249839.72023        26.750           2.813
  20631889.609     -723002.367 7   -524480.98822        21.250           1.906
  23705654.891    -2167008.537 6  -1612765.99521        13.750           0.719
  23838129.609    -2762851.661 6  -2011146.52021        12.250           0.656
 91  6  3 17  7 30.0000000  0  4G18G19G11G 2
  20579709.148      339963.405 7    257260.43023        27.000           2.906
  20629072.914     -737801.592 7   -536012.85522        20.250           2.063
  23697015.320    -2212421.612 6  -1648152.76821        13.750           0.656
  23826811.773    -2822317.178 5  -2057483.19921        11.500           0.469
 91  6  3 17  7 45.0000000  0  4G18G19G11G 2
  20581541.102      349586.874 7    264759.20323        27.250           2.906
  20626265.242     -752560.790 7   -547513.52722        21.250           1.938
  23688386.961    -2257755.102 6  -1683477.52021        13.250           0.656
  23815502.891    -2881753.212 5  -2103796.88821        11.750           0.594
 91  6  3 17  8  0.0000000  0  4G18G19G11G 2
  20583392.648      359318.270 7    272342.08123        27.000           2.969
  20623467.023     -767272.204 7   -558976.96422        20.000           2.031
  23679777.352    -2303000.826 6  -1718733.87921        13.500           0.656
  23804199.539    -2941151.704 6  -2150081.35521        12.000           0.500
 91  6  3 17  8 15.0000000  0  4G18G19G11G 2
  20585264.117      369155.033 7    280007.05923        27.000           2.938
  20620672.539     -781938.198 7   -570405.01222        20.750           1.906
  23671181.813    -2348160.710 6  -1753923.36421        13.250           0.656
  23792903.023    -3000515.068 5  -2196338.44521        11.250           0.594
 91  6  3 17  8 30.0000000  0  4G18G19G11G 2
  20587156.906      379099.879 7    287756.26023        27.250           2.875
  20617893.914     -796556.204 7   -581795.66622        20.750           2.000
  23662605.070    -2393231.888 6  -1789043.72921        13.000           0.688
  23781614.484    -3059840.610 5  -2242566.02821        11.500           0.563
 91  6  3 17  8 45.0000000  0  4G18G19G11G 2
  20589069.359      389151.027 7    295588.29723        26.750           2.813
  20615118.375     -811127.985 7   -593150.30122        21.000           2.000
  23654044.586    -2438215.622 6  -1824095.93821        13.500           0.625
  23770332.680    -3119129.585 5  -2288765.14721        11.250           0.500
 91  6  3 17  9  0.0000000  0  4G18G19G11G 2
  20591003.883      399316.061 7    303509.07223        26.750           2.781
  20612359.438     -825646.018 7   -604463.05422        20.250           1.969
  23645503.836    -2483103.918 6  -1859073.79421        14.000           0.625
  23759057.234    -3178374.336 5  -2334929.79521        10.750           0.500
 91  6  3 17  9 15.0000000  0  4G18G19G11G 2
  20592958.352      409592.536 7    311516.68523        26.500           2.781
  20609603.688     -840112.553 7   -615735.68522        21.250           1.938
  23636978.227    -2527898.723 6  -1893978.80721        13.750           0.656
  23747790.805    -3237576.906 5  -2381061.58521        11.000           0.406
 91  6  3 17  9 30.0000000  0  4G18G19G11G 2
  20594936.836      419985.534 7    319615.09523        26.750           2.875
  20606863.117     -854522.303 7   -626964.06522        20.750           1.906
  23628472.047    -2572594.478 6  -1928806.64121        13.500           0.563
  23736532.875    -3296731.820 5  -2427156.22521        10.750           0.469
 91  6  3 17  9 45.0000000  0  4G18G19G11G 2
  20596938.328      430500.546 7    327808.58323        27.000           2.875
  20604130.016     -868870.125 7   -638144.18822        20.750           2.000
  23619988.031    -2617185.516 6  -1963552.85621        13.750           0.594
  23725288.305    -3355833.872 5  -2473209.68621        11.500           0.469
 91  6  3 17 10  0.0000000  0  4G18G19G11G 2
  20598963.617      441144.011 7    336102.15923        27.000           2.844
  20601416.969     -883149.305 7   -649270.82822        20.250           2.094
  23611523.367    -2661664.693 6  -1998211.92221        14.250           0.594
  23714050.648    -3414875.931 5  -2519216.41121        10.500           0.438
 91  6  3 17 10 15.0000000  0  4G18G19G11G 2
  20601016.820      451931.387 7    344507.87323        27.000           2.875
  20598712.523     -897344.603 7   -660332.10222        21.000           1.875
  23603084.461    -2706016.330 6  -2032771.59221        14.000           0.563
  23702831.133    -3473842.710 5  -2565164.44721        11.000           0.469
 91  6  3 17 10 29.9990000  0  4G18G19G11G 2
  20603094.980      462851.167 7    353016.76823        27.000           2.844
  20596027.526     -911465.486 7   -671335.39222        20.000           2.031
  23594667.823    -2750247.592 6  -2067237.47121        14.500           0.688
  23691622.362    -3532740.577 5  -2611058.81321        10.750           0.406
 91  6  3 17 10 44.9990000  0  4G18G19G11G 2
  20605199.948      473914.698 7    361637.66723        26.750           2.875
  20593354.230     -925503.794 7   -682274.33622        20.750           2.000
  23586274.847    -2794353.999 6  -2101606.07021        14.250           0.594
  23680430.792    -3591567.056 5  -2656897.55221        11.500           0.438
 91  6  3 17 10 59.9990000  0  4G18G19G11G 2
  20607333.292      485124.894 7    370372.85223        26.750           2.875
  20590700.831     -939455.049 6   -693145.44822        19.750           2.094
  23577907.339    -2838328.605 6  -2135871.94821        14.250           0.625
  23669250.003    -3650314.520 5  -2702674.69821        11.750           0.469
 91  6  3 17 11 14.9990000  0  4G18G19G11G 2
  20609495.151      496488.367 7    379227.47523        26.500           2.781
  20588062.425     -953312.618 7   -703943.55822        20.750           2.063
  23569565.605    -2882164.389 6  -2170029.66021        15.000           0.594
  23658089.589    -3708976.247 6  -2748385.04421        12.000           0.469
 91  6  3 17 11 29.9990000  0  4G18G19G11G 2
  20611687.925      508008.607 7    388204.25223        26.500           2.906
  20585443.964     -967073.000 7   -714665.93422        20.750           1.969
  23561249.980    -2925857.443 6  -2204076.16021        14.750           0.563
  23646940.097    -3767548.432 5  -2794025.63821        11.500           0.594
 91  6  3 17 11 44.9990000  0  4G18G19G11G 2
  20613913.894      519705.093 7    397318.36723        26.250           2.844
  20582847.409     -980716.414 7   -725297.17222        21.000           2.063
  23552967.480    -2969387.839 6  -2237995.90421        14.500           0.625
  23635814.511    -3826011.364 5  -2839581.08021        11.500           0.469
 91  6  3 17 11 59.9990000  0  5G18G19G11G 2G16
  20616173.065      531579.887 7    406571.42323        26.500           2.938
  20580278.940     -994241.004 7   -735835.81522        20.000           2.063
  23544713.167    -3012753.207 6  -2271787.05821        14.250           0.656
  23624711.808    -3884363.048 5  -2885049.83921        11.750           0.563
  24142326.440          -0.92915                         7.750
 91  6  3 17 12 14.9990000  0  5G18G19G11G 2G16
  20618469.370      543646.661 7    415974.07623        26.250           2.875
  20577725.269    -1007632.967 7   -746271.12022        21.250           1.969
  23536495.190    -3055939.170 6  -2305438.42421        14.500           0.594
  23613632.003    -3942589.203 6  -2930420.79121        12.250           0.688
  24134669.401      -40236.889 5                         7.750
 91  6  3 17 12 29.9990000  0  5G18G19G11G 2G16
  20620802.714      555908.124 7    425528.42823        26.250           2.813
  20575205.878    -1020889.576 7   -756600.94922        20.250           1.938
  23528314.972    -3098942.802 6  -2338947.70121        15.500           0.594
  23602576.792    -4000686.997 6  -2975691.69821        12.250           0.656
  24127051.519      -80274.155 5                         8.000
 91  6  3 17 12 44.9990000  0  5G18G19G11G 2G16
  20623176.542      568379.828 7    435246.60623        26.000           2.875
  20572709.761    -1033994.938 7   -766812.92422        21.000           1.906
  23520167.784    -3141747.834 6  -2372302.23321        15.250           0.594
  23591548.769    -4058640.308 6  -3020850.04521        12.250           0.656
  24119473.636     -120096.809 5                         8.750
 91  6  3 17 12 59.9990000  0  5G18G19G11G 2G16
  20625591.636      581078.254 7    445141.44923        25.750           2.719
  20570248.284    -1046933.034 7   -776894.56722        20.250           1.906
  23512062.105    -3184337.728 6  -2405489.12821        15.000           0.531
  23580549.222    -4116432.779 6  -3065883.03321        12.750           0.625
  24111941.386     -159688.261 5                         9.750
 91  6  3 17 13 14.9990000  0  5G18G19G11G 2G16
  20628053.933      594014.543 7    455221.64223        25.750           2.781
  20567818.487    -1059692.424 7   -786836.95422        20.500           2.031
  23504001.503    -3226700.759 6  -2438499.22821        15.000           0.594
  23569586.339    -4174052.879 6  -3110781.71821        13.000           0.656
  24104451.425     -199037.051 5        -0.27831        10.250           0.250
 91  6  3 17 13 29.9990000  0  5G18G19G11G 2G16
  20630562.667      607198.384 7    465494.73423        26.000           2.750
  20565427.776    -1072263.437 6   -796632.55222        19.750           1.844
  23495984.175    -3268826.833 6  -2471324.70321        14.750           0.625
  23558655.261    -4231490.800 6  -3155538.45521        13.000           0.688
  24097015.472     -238133.451 5    -30465.01921        10.500           0.156
 91  6  3 17 13 44.9990000  0  5G18G19G11G 2G16
  20633122.456      620642.211 7    475970.41123        26.250           2.781
  20563071.581    -1084633.539 7   -806271.59522        20.500           2.063
  23488015.722    -3310702.840 6  -2503955.32421        15.000           0.625
  23547764.183    -4288733.907 6  -3200143.38421        13.000           0.719
  24089622.659     -276964.253 5    -60722.80621        10.250           0.094
 91  6  3 17 13 59.9990000  0  5G18G19G11G 2G16
  20635733.144      634364.252 7    486662.87923        26.750           2.781
  20560764.753    -1096784.282 6   -815739.71122        19.500           1.875
  23480100.034    -3352310.284 6  -2536376.66521        15.250           0.625
  23536911.003    -4345763.578 6  -3244581.99221        12.750           0.656
  24082286.339     -315511.299 5    -90759.49221         9.500           0.156
 91  6  3 17 14 14.9990000  0  5G18G19G11G 2G16
  20638399.112      648375.626 7    497580.80323        26.500           2.719
  20558492.573    -1108704.579 7   -825028.26222        20.500           2.000
  23472234.214    -3393637.807 6  -2568579.89121        15.000           0.656
  23526100.605    -4402568.668 6  -3288845.61021        12.750           0.719
  24075009.808     -353763.055 5   -120566.09121         9.000           0.156
 91  6  3 17 14 29.9990000  0  5G18G19G11G 2G16
  20641123.034      662687.268 7    508732.69823        26.750           2.750
  20556271.714    -1120383.257 7   -834128.53822        20.250           2.000
  23464424.706    -3434673.842 6  -2600555.97221        15.000           0.594
  23515337.026    -4459137.860 6  -3332925.40821        13.250           0.750
  24067781.737     -391708.424 5   -150133.93321         8.500           0.219
 91  6  3 17 14 44.9990000  0  5G18G19G11G 2G16
  20643906.698      677316.285 7    520131.89723        26.750           2.719
  20554097.034    -1131803.311 7   -843027.28622        20.750           2.000
  23456673.933    -3475400.848 6  -2632291.27121        15.000           0.531
  23504621.519    -4515453.917 6  -3376807.95521        13.250           0.594
  24060628.214     -429329.878 5   -179449.36121         9.250           0.281
 91  6  3 17 14 59.9990000  0  5G18G19G11G 2G16
  20646750.214      692258.844 7    531775.41823        26.750           2.813
  20551975.183    -1142968.649 7   -851727.55522        20.000           1.906
  23448983.237    -3515822.404 6  -2663788.54421        14.750           0.563
  23493951.886    -4571520.473 6  -3420496.08721        13.000           0.625
  24053528.722     -466631.018 5   -208515.23221         9.500           0.250
 91  6  3 17 15 14.9990000  0  5G18G19G11G 2G16
  20649656.917      707536.716 7    543680.21823        26.750           2.844
  20549901.003    -1153857.166 7   -860212.12422        20.750           2.063
  23441354.378    -3555915.975 6  -2695030.24821        15.000           0.594
  23483331.394    -4627315.148 6  -3463972.36821        12.000           0.625
  24046498.503     -503589.694 5   -237314.24821        10.000           0.094
 91  6  3 17 15 29.9990000  0  5G18G19G11G 2G16
  20652629.237      723156.912 7    555851.76723        26.250           2.781
  20547884.167    -1164461.982 7   -868475.62622        20.000           1.906
  23433788.730    -3595674.356 6  -2726010.76321        15.000           0.688
  23472768.222    -4682830.949 6  -3507231.31221        12.500           0.656
  24039532.870     -540198.950 5   -265840.97321        10.500           0.188
 91  6  3 17 15 44.9990000  0  5G18G19G11G 2G16
  20655666.620      739117.067 7    568288.21623        26.500           2.813
  20545917.964    -1174785.212 7   -876519.71022        20.500           1.969
  23426285.261    -3635099.347 6  -2756731.48921        15.000           0.625
  23462258.386    -4738069.949 6  -3550274.61821        12.500           0.719
  24032632.308     -576460.463 5   -294096.72921        10.250           0.281
 91  6  3 17 15 59.9990000  0  5G18G19G11G 2G16
  20658767.636      755415.430 7    580988.20523        26.750           2.719
  20544011.870    -1184828.459 6   -884345.62422        19.000           1.906
  23418845.362    -3674192.067 6  -2787193.30121        14.750           0.625
  23451798.159    -4793033.381 6  -3593103.16121        12.750           0.688
  24025797.683     -612375.517 5   -322082.53721        10.750           0.250
 91  6  3 17 16 14.9990000  0  5G18G19G11G 2G16
  20661933.284      772053.642 7    593953.00723        26.250           2.906
  20542149.019    -1194590.157 7   -891952.15122        20.500           1.906
  23411468.894    -3712950.716 6  -2817394.81221        14.750           0.563
  23441390.347    -4847719.604 6  -3635715.71221        12.500           0.656
  24019028.558     -647942.376 5   -349797.01821        10.500           0.250
 91  6  3 17 16 29.9990000  0  5G18G19G11G 2G16
  20665163.339      789024.404 7    607176.94223        26.500           2.813
  20540346.644    -1204077.652 6   -899345.01322        19.500           1.969
  23404157.433    -3751382.278 6  -2847341.44121        15.250           0.656
  23431036.980    -4902135.863 6  -3678117.89021        12.000           0.719
  24012324.183     -683168.413 5   -377245.91221        10.000           0.188
 91  6  3 17 16 44.9990000  0  5G18G19G11G 2G16
  20668454.722      806323.508 7    620656.72923        26.500           2.906
  20538590.659    -1213295.155 7   -906527.49522        20.500           1.938
  23396905.464    -3789490.496 6  -2877036.11921        15.250           0.563
  23420731.050    -4956286.022 6  -3720312.70621        12.000           0.656
  24005686.112     -718057.798 5   -404432.49721        10.000           0.344
 91  6  3 17 16 59.9990000  0  5G18G19G11G 2G16
  20671807.550      823941.847 7    634385.27423        26.750           2.844
  20536887.253    -1222251.361 7   -913506.36322        20.000           1.844
  23389715.042    -3827283.660 6  -2906485.30121        15.250           0.594
  23410474.159    -5010178.715 6  -3762306.92221        12.000           0.688
  23999111.464     -752618.557 5   -431362.95621        10.000           0.156
 91  6  3 17 17 14.9990000  0  5G18G19G11G 2G16
  20675217.394      841858.939 7    648346.61523        26.500           2.875
  20535227.284    -1230966.725 7   -920297.56322        20.500           1.969
  23382580.589    -3864781.970 6  -2935704.71521        15.500           0.688
  23400265.253    -5063834.381 6  -3804116.44421        12.500           0.781
  23992593.198     -786870.812 5   -458053.04621        10.000           0.344
 91  6  3 17 17 29.9990000  0  5G18G19G11G 2G16
  20678679.440      860051.417 7    662522.54123        26.750           2.875
  20533610.425    -1239464.833 6   -926919.48122        19.750           1.938
  23375494.503    -3902008.589 6  -2964712.42821        14.750           0.656
  23390093.526    -5117276.303 5  -3845759.40221        11.750           0.750
  23986126.878     -820838.174 5   -484521.18521         9.750           0.250
 91  6  3 17 17 44.9990000  0  5G18G19G11G 2G16
  20682190.315      878503.730 7    676900.93223        26.250           2.938
  20532031.331    -1247761.020 7   -933384.04822        20.500           2.000
  23368460.761    -3938978.520 6  -2993520.12221        14.750           0.656
  23379963.206    -5170519.578 6  -3887247.56421        12.750           0.781
  23979717.042     -854535.766 5   -510779.07321        10.000           0.281
 91  6  3 17 17 59.9990000  0  5G18G19G11G 2G16
  20685745.565      897186.307 7    691458.75423        26.250           2.781
  20530487.925    -1255884.499 7   -939714.04322        20.500           1.906
  23361469.269    -3975720.694 6  -3022150.34821        15.000           0.688
  23369865.315    -5223593.323 6  -3928603.64121        12.250           0.688
  23973349.495     -887992.587 5   -536849.37021         9.250           0.281
 91  6  3 17 18 14.9990000  0  5G18G19G11G 2G16
  20689342.058      916082.838 7    706183.29523        26.250           2.750
  20528969.269    -1263851.803 7   -945922.34022        20.750           1.875
  23354516.894    -4012251.248 6  -3050615.66021        15.500           0.844
  23359794.276    -5276513.737 6  -3969840.23421        12.750           0.656
  23967026.105     -921225.111 5   -562744.86421         8.750           0.281
 91  6  3 17 18 29.9990000  0  5G18G19G11G 2G16
  20692972.136      935163.577 7    721051.37323        26.000           2.906
  20527477.089    -1271692.328 7   -952031.85122        20.000           2.125
  23347599.401    -4048599.428 6  -3078938.88021        15.000           0.719
  23349749.144    -5329310.544 6  -4010980.50121        12.750           0.688
  23960741.644     -954262.747 5   -588488.50921         9.500           0.250
 91  6  3 17 18 44.9990000  0  5G18G19G11G 2G16
  20696636.448      954414.264 7    736051.87523        26.000           2.969
  20526007.675    -1279420.268 7   -958053.63122        20.750           1.906
  23340713.433    -4084778.880 6  -3107130.61921        14.250           0.688
  23339720.495    -5381997.407 6  -4052035.10721        13.000           0.750
  23954488.956     -987119.329 5   -614091.08521         9.250           0.250
 91  6  3 17 18 59.9990000  0  5G18G19G11G 2G16
  20700328.815      973820.645 7    751173.69923        26.250           3.000
  20524557.237    -1287050.064 7   -963998.93422        20.000           2.031
  23333859.722    -4120803.584 6  -3135201.77721        14.750           0.688
  23329710.784    -5434588.486 6  -4093015.07521        12.750           0.563
  23948265.558    -1019809.088 5   -639563.65521         9.000           0.469
 91  6  3 17 19 14.9990000  0  5G18G19G11G 2G16
  20704047.339      993354.028 7    766394.48123        26.000           3.063
  20523115.198    -1294609.962 7   -969889.77522        20.500           2.000
  23327025.581    -4156701.422 6  -3163174.07721        15.000           0.781
  23319718.105    -5487112.033 6  -4133942.43421        13.500           0.625
  23942071.065    -1052359.858 5   -664927.92621         9.000           0.469
 91  6  3 17 19 29.9990000  0  5G18G19G11G 2G16
  20707784.987     1013000.566 7    781703.43723        26.000           3.063
  20521688.159    -1302113.982 6   -975737.07722        19.750           1.938
  23320214.940    -4192486.156 6  -3191058.23921        15.000           0.750
  23309733.120    -5539581.853 6  -4174827.91521        13.500           0.625
  23935900.667    -1084785.430 5   -690194.62821         9.000           0.531
 91  6  3 17 19 44.9990000  0  5G18G19G11G 2G16
  20711543.261     1032749.658 7    797092.30223        25.750           3.063
  20520268.847    -1309572.736 7   -981549.10122        20.500           1.906
  23313427.519    -4228168.085 6  -3218862.29321        15.250           0.719
  23299757.698    -5592008.536 6  -4215679.78821        14.000           0.656
  23929752.292    -1117096.389 5   -715372.02321         8.750           0.531
 91  6  3 17 19 59.9990000  0  5G18G19G11G 2G16
  20715318.761     1052585.333 7    812548.63823        26.000           3.063
  20518857.198    -1317001.661 7   -987337.88822        20.250           1.906
  23306652.659    -4263762.350 6  -3246598.04321        15.500           0.656
  23289783.690    -5644407.367 6  -4256509.98321        13.250           0.594
  23923621.776    -1149307.920 5   -740471.92821         9.000           0.594
 91  6  3 17 20 14.9990000  0  5G18G19G11G 2G16
  20719107.097     1072497.573 7    828064.63223        25.500           3.094
  20517445.503    -1324410.873 7   -993111.31122        20.750           1.906
  23299894.730    -4299278.769 6  -3274273.13021        15.250           0.625
  23279817.292    -5696788.198 6  -4297326.12221        14.000           0.656
  23917510.159    -1181430.105 5   -765502.24921         8.500           0.469
 91  6  3 17 20 29.9990000  0  5G18G19G11G 2G16
  20722908.675     1092474.027 7    843630.66323        25.750           3.063
  20516038.323    -1331812.610 6   -998878.90622        19.750           1.906
  23293148.276    -4334729.131 6  -3301896.73721        15.250           0.688
  23269851.792    -5749163.153 6  -4338137.69521        13.750           0.563
  23911410.081    -1213475.058 5   -790472.36021         8.000           0.281
 91  6  3 17 20 44.9990000  0  5G18G19G11G 2G16
  20726721.261     1112509.143 7    859242.40723        25.750           3.031
  20514629.105    -1339212.510 7  -1004645.07122        20.750           1.844
  23286412.683    -4370118.576 6  -3329472.88221        15.000           0.656
  23259884.448    -5801537.497 6  -4378948.78521        14.500           0.688
  23905325.714    -1245448.138 5   -815386.46721         8.250           0.438
 91  6  3 17 20 59.9990000  0  5G18G19G11G 2G16
  20730542.909     1132588.078 7    874888.29123        25.500           2.969
  20513220.206    -1346625.200 7  -1010421.20822        20.250           1.906
  23279689.573    -4405461.595 6  -3357012.83921        15.250           0.688
  23249912.972    -5853925.903 6  -4419770.84721        14.250           0.750
  23899256.394    -1277363.691 5   -840255.76021         9.000           0.344
 91  6  3 17 21 14.9990000  0  5G18G19G11G 2G16
  20734372.253     1152708.411 7    890565.93523        25.500           2.844
  20511805.151    -1354052.967 7  -1016209.59022        20.500           1.906
  23272972.870    -4440760.205 6  -3384518.70421        15.250           0.688
  23239942.565    -5906330.589 6  -4460606.09221        13.750           0.656
  23893193.136    -1309223.859 5   -865082.40921         9.250           0.469
 91  6  3 17 21 29.9990000  0  5G18G19G11G 2G16
  20738257.753     1173132.056 7    906480.92923        25.250           2.781
  20510440.362    -1361232.825 6  -1021804.57522        19.750           2.031
  23266315.190    -4475750.880 6  -3411784.39021        15.750           0.688
  23230016.980    -5958489.317 6  -4501248.67821        14.000           0.688
  23887188.839    -1340765.409 5   -889660.56121         9.250           0.438
 91  6  3 17 21 44.9990000  0  5G18G19G11G 2G16
  20742152.620     1193596.822 7    922427.46223        25.500           2.938
  20509067.573    -1368429.231 7  -1027412.17222        20.750           2.031
  23259663.128    -4510697.738 6  -3439015.65221        15.250           0.750
  23220088.964    -6010664.175 6  -4541904.33121        14.000           0.719
  23881196.065    -1372252.386 5   -914195.88121         9.000           0.469
 91  6  3 17 21 59.9990000  0  5G18G19G11G 2G16
  20746054.901     1214104.032 7    938407.06923        25.500           2.906
  20507697.784    -1375639.518 7  -1033030.58922        20.500           1.969
  23253020.761    -4545597.697 6  -3466210.38421        15.500           0.719
  23210158.503    -6062853.434 6  -4582571.22021        14.000           0.719
  23875214.175    -1403682.094 5   -938686.60421         8.750           0.500
 91  6  3 17 22 14.9990000  0  5G18G19G11G 2G16
  20749970.183     1234675.509 7    954436.76023        25.500           3.031
  20506325.495    -1382841.813 7  -1038642.77422        20.750           2.031
  23246391.214    -4580428.705 6  -3493351.36621        15.750           0.813
  23200226.315    -6115035.149 6  -4623232.22021        13.250           0.781
  23869247.815    -1435032.764 5   -963115.70821         7.750           0.531
 91  6  3 17 22 29.9990000  0  5G18G19G11G 2G16
  20753891.605     1255285.057 7    970496.10623        25.500           2.969
  20504954.011    -1390061.856 6  -1044268.79322        19.750           1.969
  23239774.175    -4615216.262 6  -3520458.48521        16.250           0.656
  23190295.355    -6167234.799 6  -4663907.19621        14.000           0.750
  23863291.230    -1466329.789 5   -987503.00821         7.750           0.531
 91  6  3 17 22 44.9990000  0  5G18G19G11G 2G16
  20757819.425     1275926.313 7    986580.16323        25.250           2.938
  20503573.519    -1397305.951 7  -1049913.55122        21.000           1.875
  23233161.651    -4649966.395 6  -3547536.45021        15.750           0.688
  23180355.605    -6219458.819 6  -4704601.17621        13.000           0.688
  23857343.370    -1497579.559 5  -1011853.48921         8.000           0.500
 91  6  3 17 22 59.9990000  0  5G18G19G11G 2G16
  20761752.589     1296596.266 7   1002686.58623        25.250           3.031
  20502192.472    -1404577.198 7  -1055579.46922        20.000           1.969
  23226555.612    -4684681.605 6  -3574587.20221        16.000           0.781
  23170412.081    -6271709.992 6  -4745316.28821        13.500           0.750
  23851410.440    -1528784.615 5  -1036169.15221         9.250           0.375
 91  6  3 17 23 14.9990000  0  5G18G19G11G 2G16
  20765693.503     1317306.818 7   1018824.64223        25.000           2.906
  20500803.706    -1411863.815 7  -1061257.36022        20.750           1.875
  23219958.308    -4719349.929 6  -3601601.42621        16.000           0.781
  23160464.003    -6323976.492 6  -4786043.37021        13.000           0.875
  23845484.870    -1559933.445 5  -1060441.00621         9.750           0.438
 91  6  3 17 23 29.9990000  0  5G18G19G11G 2G16
  20769642.323     1338056.876 7   1034993.48523        25.000           2.938
  20499416.526    -1419166.532 6  -1066947.79822        19.750           1.875
  23213369.112    -4753971.540 6  -3628579.23021        15.750           0.813
  23150517.894    -6376258.618 6  -4826782.62121        13.750           0.844
  23839565.667    -1591026.482 5  -1084669.38921         9.500           0.531
 91  6  3 17 23 44.9990000  0  5G18G19G11G 2G16
  20773598.565     1358845.391 7   1051192.29323        25.000           2.906
  20498021.003    -1426486.154 7  -1072651.40822        20.750           1.969
  23206791.370    -4788547.175 6  -3655521.22421        16.250           0.781
  23140563.761    -6428557.147 6  -4867534.66121        13.000           0.938
  23833659.620    -1622064.105 5  -1108854.59321         9.000           0.500
 91  6  3 17 23 59.9990000  0  5G18G19G11G 2G16
  20777561.331     1379669.337 7   1067418.71123        24.750           2.719
  20496626.183    -1433825.708 7  -1078370.55522        20.750           1.969
  23200219.644    -4823079.532 6  -3682429.48321        16.000           0.688
  23130609.019    -6480875.077 6  -4908301.80121        14.000           0.875
  23827760.394    -1653049.266 5  -1132998.89721         8.000           0.500
 91  6  3 17 24 14.9990000  0  5G18G19G11G 2G16
  20781531.659     1400536.888 7   1083679.10623        24.750           2.938
  20495224.698    -1441176.907 7  -1084098.76722        21.000           1.969
  23193656.230    -4857559.861 6  -3709297.20421        15.750           0.813
  23120652.073    -6533203.904 6  -4949077.45521        13.750           0.938
  23821878.472    -1683973.179 5  -1157095.46821         8.250           0.438
 91  6  3 17 24 29.9990000  0  5G18G19G11G 2G16
  20785510.933     1421448.353 7   1099973.72023        25.000           2.781
  20493826.792    -1448539.423 7  -1089835.79922        20.250           1.969
  23187105.667    -4891987.689 6  -3736124.01721        16.000           0.781
  23110693.722    -6585543.200 6  -4989861.25221        14.250           0.781
  23816009.323    -1714835.502 5  -1181144.03521         8.500           0.656
 91  6  3 17 24 44.9990000  0  5G18G19G11G 2G16
  20789501.308     1442412.942 7   1116309.72823        25.000           2.781
  20492422.620    -1455903.668 7  -1095574.18622        21.750           1.906
  23180565.331    -4926353.012 6  -3762902.12321        15.750           0.844
  23100733.722    -6637883.108 6  -5030645.53221        13.750           0.844
  23810148.284    -1745626.879 5  -1205137.33721         9.000           0.500
 91  6  3 17 24 59.9990000  0  5G18G19G11G 2G16
  20793500.698     1463433.308 7   1132689.19723        25.000           2.844
  20491024.230    -1463266.954 7  -1101311.82022        20.750           1.969
  23174040.308    -4960652.890 6  -3789629.22521        16.000           0.750
  23090774.011    -6690220.944 6  -5071428.19821        14.000           0.750
  23804302.823    -1776344.309 5  -1229073.01421        10.000           0.531
 91  6  3 17 25 14.9990000  0  5G18G19G11G 2G16
  20797511.948     1484513.307 7   1149115.13023        25.000           2.844
  20489621.519    -1470625.168 7  -1107045.50022        21.500           1.875
  23167526.011    -4994882.936 6  -3816301.91821        15.500           0.688
  23080814.276    -6742552.249 6  -5112205.78321        13.750           0.875
  23798473.612    -1806983.655 5  -1252947.86621        10.000           0.469
 91  6  3 17 25 29.9990000  0  5G18G19G11G 2G16
  20801534.175     1505654.547 7   1165588.78423        24.500           2.969
  20488224.808    -1477976.790 7  -1112774.04522        21.250           2.063
  23161024.300    -5029041.127 6  -3842918.61221        15.500           0.625
  23070857.980    -6794875.330 6  -5152976.95521        14.000           0.875
  23792655.800    -1837542.965 5  -1276760.36221         9.500           0.438
 91  6  3 17 25 44.9990000  0  5G18G19G11G 2G16
  20805569.253     1526857.859 7   1182110.80423        24.500           2.906
  20486824.253    -1485320.883 7  -1118496.72122        21.500           1.906
  23154537.980    -5063126.348 6  -3869478.46921        15.750           0.688
  23060901.956    -6847189.336 6  -5193741.07421        14.250           0.781
  23786854.300    -1868021.374 5  -1300509.80021         9.500           0.313
 91  6  3 17 25 59.9990000  0  5G18G19G11G 2G16
  20809617.472     1548127.840 7   1198684.77423        25.000           2.906
  20485429.784    -1492652.704 7  -1124209.83922        20.250           2.125
  23148068.159    -5097133.383 6  -3895977.37321        15.750           0.781
  23050951.855    -6899489.410 6  -5234494.30421        14.750           0.844
  23781071.464    -1898413.841 5  -1324192.27421         8.750           0.406
 91  6  3 17 26 14.9990000  0  5G18G19G11G 2G16
  20813677.409     1569464.929 7   1215311.03423        25.250           2.875
  20484037.276    -1499972.044 7  -1129913.22722        21.000           2.063
  23141611.159    -5131061.743 6  -3922414.97521        16.000           0.844
  23041002.690    -6951774.985 6  -5275236.25921        14.500           0.813
  23775303.159    -1928720.081 5  -1347807.54721         9.250           0.469
 91  6  3 17 26 29.9990000  0  5G18G19G11G 2G16
  20817752.222     1590872.280 7   1231992.05023        25.250           2.844
  20482650.800    -1507275.380 7  -1135604.14322        20.250           2.031
  23135170.519    -5164907.711 6  -3948788.38721        16.000           0.781
  23031054.745    -7004042.422 6  -5315964.07621        14.500           0.875
  23769552.901    -1958936.567 5  -1371352.88221         9.500           0.344
 91  6  3 17 26 44.9990000  0  5G18G19G11G 2G16
  20821837.222     1612349.066 7   1248727.16923        25.000           2.844
  20481260.425    -1514563.168 7  -1141282.94722        21.000           1.969
  23128745.073    -5198671.300 6  -3975097.60321        16.000           0.781
  23021111.323    -7056291.971 6  -5356677.95521        14.750           0.844
  23763823.276    -1989063.356 5  -1394828.33721        10.250           0.625
 91  6  3 17 26 59.9990000  0  5G18G19G11G 2G16
  20825938.448     1633896.066 7   1265517.00423        25.500           2.781
  20479879.284    -1521834.457 7  -1146948.89822        20.500           2.031
  23122336.097    -5232351.402 6  -4001341.76821        15.250           0.781
  23011173.597    -7108522.982 6  -5397377.39821        14.750           0.906
  23758110.565    -2019099.366 5  -1418233.04821        10.000           0.563
 91  6  3 17 27 14.9990000  0  5G18G19G11G 2G16
  20830051.519     1655509.172 7   1282358.35223        25.250           2.813
  20478496.440    -1529093.493 7  -1152605.29722        21.500           2.000
  23115943.042    -5265951.909 6  -4027523.90021        15.750           0.688
  23001235.940    -7160739.262 6  -5438065.35521        14.250           0.781
  23752408.128    -2049048.784 5  -1441570.27121        10.250           0.531
 91  6  3 17 27 29.9990000  0  5G18G19G11G 2G16
  20834179.659     1677196.123 7   1299257.23523        25.750           2.688
  20477119.339    -1536332.448 7  -1158246.05322        20.500           2.031
  23109565.894    -5299464.608 6  -4053637.61321        15.750           0.750
  22991305.058    -7212932.614 6  -5478735.45621        14.750           0.813
  23746729.089    -2078903.459 5  -1464833.68021        10.250           0.531
 91  6  3 17 27 44.9990000  0  5G18G19G11G 2G16
  20838320.425     1698957.520 7   1316214.13023        25.750           2.719
  20475744.019    -1543550.434 7  -1163870.46322        21.500           1.906
  23103204.620    -5332888.292 6  -4079681.97221        15.500           0.750
  22981373.901    -7265102.246 6  -5519387.06721        14.750           0.813
  23741060.855    -2108662.374 5  -1488022.47221         9.500           0.500
 91  6  3 17 27 59.9990000  0  5G18G19G11G 2G16
  20842473.722     1720787.177 7   1333224.21423        25.250           2.844
  20474374.706    -1550753.510 7  -1169483.25722        20.750           1.875
  23096860.284    -5366228.841 6  -4105661.55621        15.750           0.781
  22971452.589    -7317254.054 6  -5560024.79921        14.750           0.844
  23735417.308    -2138331.593 5  -1511141.35721        10.000           0.313
 91  6  3 17 28 14.9990000  0  5G18G19G11G 2G16
  20846642.034     1742692.046 7   1350292.90423        25.000           2.813
  20473008.448    -1557934.959 7  -1175079.20222        21.250           2.031
  23090531.815    -5399479.251 6  -4131570.89421        15.750           0.781
  22961533.292    -7369381.249 6  -5600643.32621        14.750           0.844
  23729791.230    -2167904.319 5  -1534185.08121        10.500           0.375
 91  6  3 17 28 29.9990000  0  5G18G19G11G 2G16
  20850824.964     1764671.417 7   1367419.64223        25.250           2.813
  20471649.300    -1565095.146 6  -1180658.57422        19.750           1.875
  23084221.745    -5432639.354 6  -4157409.85521        15.250           0.656
  22951618.894    -7421483.803 6  -5641242.67121        14.750           0.875
  23724181.105    -2197380.701 5  -1557153.71421        11.000           0.250
 91  6  3 17 28 44.9990000  0  5G18G19G11G 2G16
  20855021.050     1786718.925 7   1384599.48123        25.250           2.875
  20470284.972    -1572240.130 7  -1186226.09722        20.750           1.938
  23077928.784    -5465715.098 6  -4183183.08821        15.500           0.844
  22941705.940    -7473567.885 6  -5681827.60921        14.500           0.875
  23718592.839    -2226766.461 6  -1580051.75621        12.000           0.281
 91  6  3 17 28 59.9990000  0  5G18G19G11G 2G16
  20859231.636     1808841.459 7   1401837.77523        25.500           2.688
  20468933.448    -1579362.828 6  -1191776.25722        19.750           1.906
  23071651.323    -5498699.175 6  -4208884.89321        15.500           0.750
  22931799.284    -7525626.311 6  -5722392.57521        15.000           0.875
  23713020.050    -2256054.602 5  -1602873.72421        11.750           0.438
 91  6  3 17 29 14.9990000  0  5G18G19G11G 2G16
  20863455.206     1831040.605 7   1419135.77423        25.500           2.938
  20467577.886    -1586461.680 7  -1197307.83822        21.000           1.969
  23065393.815    -5531589.546 6  -4234513.68021        15.000           0.750
  22921899.737    -7577657.031 6  -5762935.94721        14.750           0.781
  23707466.370    -2285243.404 5  -1625618.28421        11.000           0.375
 91  6  3 17 29 29.9990000  0  5G18G19G11G 2G16
  20867694.401     1853315.194 7   1436492.56123        25.500           2.750
  20466233.464    -1593537.565 7  -1202821.51822        20.500           2.031
  23059150.784    -5564386.770 6  -4260069.88921        15.250           0.750
  22912004.784    -7629660.968 6  -5803458.44421        15.000           0.875
  23701929.862    -2314333.505 5  -1648285.90721        10.500           0.500
 91  6  3 17 29 44.9990000  0  5G18G19G11G 2G16
  20871946.847     1875666.497 7   1453909.12023        25.500           2.781
  20464889.222    -1600588.972 7  -1208316.12522        21.250           2.031
  23052926.886    -5597089.292 6  -4285552.30721        14.750           0.750
  22902113.073    -7681636.764 6  -5843959.00821        15.250           0.844
  23696412.808    -2343323.540 5  -1670875.55221        10.250           0.438
 91  6  3 17 29 59.9990000  0  5G18G19G11G 2G16
  20876214.792     1898092.000 7   1471383.49523        25.500           2.719
  20463553.378    -1607618.674 7  -1213793.82322        20.750           1.938
  23046720.534    -5629699.440 6  -4310962.73921        15.000           0.813
  22892225.440    -7733586.882 6  -5884439.56621        15.000           0.875
  23690916.972    -2372215.995 5  -1693389.16421        10.500           0.375
 91  6  3 17 30 14.9990000  0  5G18G19G11G 2G16
  20880496.433     1920589.559 7   1488914.02223        25.250           2.750
  20462218.230    -1614628.409 7  -1219255.95922        21.500           2.000
  23040534.300    -5662218.696 6  -4336302.34521        15.500           0.844
  22882344.940    -7785512.938 6  -5924901.38121        15.000           0.844
  23685435.542    -2401012.441 5  -1715827.99621        11.250           0.188
 91  6  3 17 30 29.9990000  0  5G18G19G11G 2G16
  20884789.261     1943160.831 7   1506501.98623        24.500           2.906
  20460890.972    -1621616.389 7  -1224701.14722        20.750           1.906
  23034363.722    -5694644.874 6  -4361569.43421        15.500           0.719
  22872469.925    -7837412.965 6  -5965342.90921        15.500           0.813
  23679972.792    -2429710.937 5  -1738190.49821        11.500           0.219
 91  6  3 17 30 44.9990000  0  5G18G19G11G 2G16
  20889098.230     1965802.239 7   1524144.60223        24.500           2.938
  20459562.433    -1628586.104 7  -1230132.09522        21.250           1.906
  23028210.448    -5726981.253 6  -4386766.56421        15.000           0.844
  22862595.456    -7889290.221 6  -6005766.70121        14.750           0.969
  23674529.401    -2458314.862 5  -1760479.29621        11.500           0.438
 91  6  3 17 30 59.9990000  0  5G18G19G11G 2G16
  20893424.190     1988525.721 7   1541851.16723        24.500           2.656
  20458243.261    -1635525.551 7  -1235539.46222        20.750           1.969
  23022076.972    -5759215.434 6  -4411884.04121        15.250           0.781
  22852731.151    -7941132.525 6  -6046163.23921        15.250           0.938
  23669104.214    -2486811.822 5  -1782684.74321        11.250           0.313
 91  6  3 17 31 14.9990000  0  5G18G19G11G 2G16
  20897761.042     2011320.486 7   1559613.28023        24.750           2.906
  20456925.214    -1642445.256 7  -1240931.44522        21.000           1.938
  23015959.901    -5791357.710 6  -4436929.90821        15.250           0.844
  22842870.198    -7992950.465 6  -6086540.80121        15.250           0.906
  23663700.925    -2515212.332 5  -1804815.03721        10.750           0.406
 91  6  3 17 31 29.9990000  0  5G18G19G11G 2G16
  20902112.800     2034190.078 7   1577433.69923        25.000           2.813
  20455614.995    -1649341.561 7  -1246305.19422        20.500           1.938
  23009860.784    -5823404.317 6  -4461901.23921        15.250           0.875
  22833015.003    -8044740.287 6  -6126896.45721        15.250           0.969
  23658313.261    -2543512.897 5  -1826867.44221        10.750           0.500
 91  6  3 17 31 44.9990000  0  6G18G19G11G 2G16G 6
  20906478.394     2057128.202 7   1595307.52223        25.000           2.750
  20454303.808    -1656220.639 7  -1251665.52122        21.000           1.906
  23003779.058    -5855361.135 6  -4486802.59321        15.000           0.875
  22823164.769    -8096508.042 6  -6167234.90321        15.750           1.000
  23652947.987    -2571719.606 5  -1848846.70921        10.500           0.406
  24200358.144          -0.00113                         5.000
 91  6  3 17 31 59.9990000  0  6G18G19G11G 2G16G 6
  20910858.167     2080143.819 7   1613241.73023        24.750           2.719
  20453000.925    -1663073.531 7  -1257005.44622        20.500           1.844
  22997717.894    -5887218.673 6  -4511626.59421        15.750           0.813
  22813317.948    -8148244.396 6  -6207548.89821        15.250           1.000
  23647598.980    -2599823.222 5  -1870745.64421        10.500           0.438
  24191900.120      -44428.730 3                         5.000
 91  6  3 17 32 14.9990000  0  6G18G19G11G 2G16G 6
  20915252.292     2103237.610 7   1631236.84823        24.500           2.750
  20451701.136    -1669899.275 7  -1262324.21322        21.250           1.969
  22991673.112    -5918975.719 6  -4536372.29721        15.250           0.844
  22803479.995    -8199948.346 6  -6247837.62321        15.750           0.938
  23642270.706    -2627822.408 5  -1892563.21321        10.750           0.344
  24183442.730      -88866.818 3                         5.250
 91  6  3 17 32 29.9990000  0  6G18G19G11G 2G16G 6
  20919663.487     2126407.598 7   1649291.34423        24.500           2.813
  20450404.511    -1676699.744 7  -1267623.29222        20.750           1.938
  22985649.761    -5950633.979 6  -4561041.01221        15.000           0.875
  22793647.878    -8251621.776 6  -6288102.58321        16.000           1.031
  23636963.862    -2655719.281 5  -1914301.05921        11.250           0.250
  24174986.565     -133316.270 3                         5.250
 91  6  3 17 32 44.9990000  0  6G18G19G11G 2G16G 6
  20924083.651     2149655.342 7   1667406.42423        24.500           2.750
  20449119.722    -1683472.957 7  -1272901.12722        21.500           1.938
  22979647.214    -5982191.340 6  -4585631.11321        15.500           0.813
  22783821.230    -8303262.642 6  -6328342.16121        16.000           1.125
  23631674.464    -2683511.774 5  -1935957.59621        11.250           0.250
  24166531.472     -177775.098 3                         5.750
 91  6  3 17 32 59.9990000  0  6G18G19G11G 2G16G 6
  20928522.784     2172979.697 7   1685581.20123        24.750           2.750
  20447837.347    -1690220.080 7  -1278158.63422        20.250           2.000
  22973659.253    -6013648.667 6  -4610143.26521        15.500           0.813
  22774000.331    -8354871.889 6  -6368557.10521        16.500           1.000
  23626406.456    -2711200.764 5  -1957533.46121        10.750           0.281
  24158074.839     -222244.653 3        -0.24431         5.750           0.375
 91  6  3 17 33 14.9990000  0  6G18G19G11G 2G16G 6
  20932975.878     2196379.956 7   1703815.12323        24.750           2.781
  20446555.206    -1696941.886 7  -1283396.41222        21.000           1.938
  22967691.862    -6045006.355 6  -4634577.76821        15.500           0.906
  22764183.589    -8406450.048 6  -6408747.82421        16.750           1.031
  23621155.573    -2738786.988 5  -1979029.25021        10.500           0.250
  24149605.526     -266725.555 3    -34660.63721         5.500           0.313
 91  6  3 17 33 29.9990000  0  6G18G19G11G 2G16G 6
  20937444.081     2219853.084 7   1722105.82923        24.750           2.688
  20445280.894    -1703640.953 7  -1288616.47722        20.750           2.000
  22961742.847    -6076266.633 6  -4658936.37621        15.500           0.875
  22754374.769    -8457999.657 6  -6448916.29621        16.250           1.125
  23615922.159    -2766272.912 5  -2000446.86521        10.250           0.250
  24141139.761     -311220.581 3    -69332.03321         5.750           0.313
 91  6  3 17 33 44.9990000  0  6G18G19G11G 2G16G 6
  20941925.706     2243405.902 7   1740458.63023        25.000           2.656
  20444011.019    -1710310.175 7  -1293813.28322        21.000           1.969
  22955813.339    -6107422.234 6  -4683213.42621        15.250           0.906
  22744571.612    -8509513.558 6  -6489056.93221        16.250           1.063
  23610712.769    -2793651.361 5  -2021780.74421        10.250           0.313
  24132671.987     -355722.720 4   -104008.95421         6.250           0.281
 91  6  3 17 33 59.9990000  0  6G18G19G11G 2G16G 6
  20946422.503     2267034.932 7   1758870.81823        25.500           2.719
  20442750.730    -1716953.205 6  -1298989.68022        19.750           2.000
  22949906.292    -6138476.532 6  -4707411.52521        15.750           0.938
  22734776.487    -8560995.187 6  -6529172.43821        16.500           1.063
  23605526.745    -2820925.641 5  -2043033.43821        10.500           0.375
  24124204.503     -400235.529 4   -138694.22721         6.250           0.219
 91  6  3 17 34 14.9990000  0  6G18G19G11G 2G16G 6
  20950933.690     2290742.400 7   1777344.12523        25.500           2.781
  20441489.042    -1723567.603 7  -1304143.76322        20.500           1.938
  22944016.894    -6169426.751 6  -4731528.52921        16.000           0.813
  22724984.667    -8612442.036 6  -6569260.83921        16.000           1.125
  23600356.058    -2848093.291 5  -2064203.05121        10.500           0.438
  24115730.347     -444756.631 4   -173385.92321         6.500           0.281
 91  6  3 17 34 29.9990000  0  6G18G19G11G 2G16G 6
  20955459.925     2314526.272 7   1795876.96623        25.500           2.656
  20440235.644    -1730154.977 7  -1309276.79422        20.250           2.094
  22938145.409    -6200274.330 6  -4755565.56121        15.750           0.906
  22715201.659    -8663855.602 6  -6609323.31021        16.750           1.063
  23595206.097    -2875156.103 5  -2085290.97921        10.000           0.281
  24107257.464     -489287.792 4   -208085.49121         6.750           0.313
 91  6  3 17 34 44.9990000  0  6G18G19G11G 2G16G 6
  20960001.190     2338390.407 7   1814472.34823        25.500           2.625
  20438988.003    -1736711.393 7  -1314385.69822        20.750           2.000
  22932297.105    -6231014.995 6  -4779519.28121        15.500           0.875
  22705426.042    -8715231.826 6  -6649356.68121        17.000           1.000
  23590079.308    -2902110.068 5  -2106294.07721        10.500           0.313
  24098778.612     -533825.146 4   -242789.87221         6.750           0.281
 91  6  3 17 34 59.9990000  0  6G18G19G11G 2G16G 6
  20964556.980     2362333.604 7   1833129.34123        25.500           2.688
  20437748.597    -1743238.172 7  -1319471.51022        20.000           1.969
  22926465.276    -6261649.717 6  -4803390.44621        15.750           0.906
  22695657.276    -8766571.849 6  -6689361.83421        17.000           0.938
  23584969.526    -2928956.346 5  -2127213.29521        10.500           0.313
  24090303.714     -578369.940 4   -277500.04821         6.250           0.156
 91  6  3 17 35 14.9990000  0  6G18G19G11G 2G16G 6
  20969128.589     2386353.596 7   1851846.17323        25.250           2.625
  20436509.690    -1749737.211 7  -1324535.70822        20.750           2.000
  22920656.323    -6292180.153 6  -4827180.36021        15.500           0.750
  22685891.589    -8817877.513 6  -6729340.22521        16.750           1.000
  23579878.284    -2955696.559 5  -2148049.85921        10.000           0.313
  24081821.698     -622924.148 4   -312217.57521         6.500           0.250
 91  6  3 17 35 29.9990000  0  6G18G19G11G 2G16G 6
  20973714.886     2410448.952 7   1870621.73023        25.750           2.750
  20435280.839    -1756209.902 7  -1329579.36922        20.000           2.000
  22914866.550    -6322607.698 6  -4850890.08821        15.750           0.813
  22676134.573    -8869150.282 6  -6769292.98121        16.500           0.938
  23574808.206    -2982332.188 5  -2168804.92221         9.750           0.344
  24073342.300     -667489.354 4   -346943.67121         6.500           0.313
 91  6  3 17 35 44.9990000  0  6G18G19G11G 2G16G 6
  20978314.190     2434624.980 7   1889460.14823        25.500           2.625
  20434051.714    -1762650.639 7  -1334598.13822        20.750           1.938
  22909097.269    -6352926.269 6  -4874514.90721        15.750           0.781
  22666383.456    -8920384.233 6  -6809215.49321        16.000           1.063
  23569760.440    -3008857.425 5  -2189473.95621         9.500           0.344
  24064862.081     -712059.884 4   -381673.92021         7.000           0.219
 91  6  3 17 35 59.9990000  0  6G18G19G11G 2G16G 6
  20982928.925     2458875.758 7   1908356.80723        25.250           2.625
  20432833.776    -1769065.298 6  -1339596.58822        19.750           2.031
  22903348.019    -6383141.379 6  -4898059.10721        15.500           0.844
  22656640.730    -8971584.878 6  -6849112.04321        15.750           1.063
  23564734.550    -3035277.562 5  -2210061.09021        10.000           0.375
  24056376.636     -756641.526 5   -416412.80021         7.500           0.219
 91  6  3 17 36 14.9990000  0  6G18G19G11G 2G16G 6
  20987558.237     2483207.352 7   1927316.44023        24.750           2.563
  20431616.808    -1775447.563 7  -1344569.79922        20.500           2.031
  22897618.190    -6413246.622 6  -4921517.69121        15.500           0.938
  22646907.175    -9022746.016 6  -6888977.81121        16.500           0.906
  23559731.909    -3061586.444 5  -2230561.53321        10.000           0.313
  24047890.964     -801228.119 4   -451155.54321         7.250           0.281
 91  6  3 17 36 29.9990000  0  6G18G19G11G 2G16G 6
  20992203.831     2507618.414 7   1946337.99823        25.000           2.594
  20430408.097    -1781798.660 7  -1349518.71422        20.250           1.906
  22891909.331    -6443243.051 6  -4944891.49121        15.500           0.844
  22637178.144    -9073868.832 6  -6928813.72221        16.500           1.063
  23554745.519    -3087785.637 5  -2250976.51321        10.000           0.406
  24039402.980     -845821.014 4   -485903.22521         7.250           0.188
 91  6  3 17 36 44.9990000  0  6G18G19G11G 2G16G 6
  20996865.503     2532114.401 7   1965425.72823        24.750           2.563
  20429206.253    -1788112.789 7  -1354438.83422        20.500           1.906
  22886225.144    -6473124.616 6  -4968175.78421        15.750           0.813
  22627458.128    -9124947.311 6  -6968615.08621        16.500           1.063
  23549783.487    -3113869.367 5  -2271301.51421         9.750           0.438
  24030917.409     -890414.369 5   -520651.24421         7.750           0.188
 91  6  3 17 36 59.9990000  0  6G18G19G11G 2G16G 6
  21001543.308     2556688.509 7   1984574.33523        25.250           2.531
  20428014.011    -1794396.539 6  -1359335.26922        19.250           2.000
  22880559.183    -6502897.658 6  -4991375.52121        15.500           0.750
  22617745.159    -9175987.942 6  -7008386.95621        16.500           1.031
  23544840.870    -3139843.711 5  -2291541.27121         9.750           0.438
  24022438.183     -935014.988 5   -555404.95321         8.250           0.219
 91  6  3 17 37 14.9990000  0  6G18G19G11G 2G16G 6
  21006232.667     2581338.603 7   2003782.15622        24.750           2.406
  20426820.292    -1800651.878 7  -1364209.56822        20.750           1.969
  22874914.253    -6532563.827 6  -5014491.98421        15.750           0.813
  22608038.440    -9226992.700 6  -7048130.86821        16.500           1.031
  23539917.651    -3165710.697 5  -2311697.39221         9.750           0.313
  24013947.144     -979624.801 5   -590165.80321         8.000           0.250
 91  6  3 17 37 29.9990000  0  6G18G19G11G 2G16G 6
  21010940.214     2606072.360 7   2023055.16522        24.500           2.469
  20425638.417    -1806871.359 7  -1369055.93622        20.000           2.031
  22869290.503    -6562115.419 6  -5037519.16321        16.000           0.813
  22598341.605    -9277953.996 6  -7087840.92421        16.750           1.063
  23535013.956    -3191462.960 5  -2331764.10721         9.250           0.438
  24005456.190    -1024236.443 5   -624928.08521         7.500           0.250
 91  6  3 17 37 44.9990000  0  6G18G19G11G 2G16G 6
  21015660.620     2630881.126 7   2042386.61923        24.250           2.500
  20424458.261    -1813062.873 7  -1373880.50222        20.500           1.906
  22863687.292    -6591560.124 6  -5060463.04921        16.000           0.781
  22588652.183    -9328879.512 6  -7127523.08621        17.000           1.094
  23530135.511    -3217108.051 5  -2351747.32221         9.250           0.375
  23996962.331    -1068857.807 4   -659697.93521         7.250           0.281
 91  6  3 17 37 59.9990000  0  6G18G19G11G 2G16G 6
  21020397.128     2655772.515 7   2061782.45622        24.000           2.375
  20423288.659    -1819218.875 7  -1378677.40022        20.250           2.000
  22858106.362    -6620890.156 6  -5083317.59421        16.000           0.750
  22578969.690    -9379761.612 6  -7167171.42421        17.250           1.063
  23525272.956    -3242638.283 5  -2371641.04921         9.000           0.281
  23988468.870    -1113481.388 4   -694469.54321         7.250           0.250
 91  6  3 17 38 14.9990000  0  6G18G19G11G 2G16G 6
  21025150.503     2680750.404 7   2081245.69322        24.000           2.438
  20422124.042    -1825335.799 7  -1383443.84522        20.750           1.938
  22852546.261    -6650101.473 6  -5106079.61921        16.250           0.844
  22569295.534    -9430596.358 6  -7206782.87221        16.500           1.063
  23520440.081    -3268049.735 5  -2391442.18721         9.500           0.406
  23979979.855    -1158103.495 4   -729239.95121         7.000           0.188
 91  6  3 17 38 29.9990000  0  6G18G19G11G 2G16G 6
  21029918.269     2705802.448 7   2100766.71622        23.750           2.406
  20420965.144    -1831425.428 7  -1388189.02322        20.500           1.969
  22847008.870    -6679205.707 6  -5128758.21221        16.000           0.844
  22559628.815    -9481395.782 6  -7246366.78421        16.500           1.094
  23515625.151    -3293354.661 5  -2411160.32521        10.250           0.438
  23971482.714    -1202736.128 4   -764018.60621         6.750           0.219
 91  6  3 17 38 44.9990000  0  6G18G19G11G 2G16G 6
  21034700.980     2730936.396 7   2120351.55422        23.750           2.375
  20419810.683    -1837479.737 7  -1392906.67322        21.000           2.063
  22841491.464    -6708194.695 6  -5151347.00121        15.750           0.844
  22549970.815    -9532151.683 6  -7285916.78121        17.000           1.031
  23510832.159    -3318544.883 5  -2430789.09221        10.500           0.469
  23962987.745    -1247371.322 4   -798799.22621         7.000           0.281
 91  6  3 17 38 59.9990000  0  6G18G19G11G 2G16G 6
  21039498.214     2756148.943 7   2139997.64322        23.750           2.375
  20418669.448    -1843501.858 7  -1397599.25322        20.000           1.938
  22835997.089    -6737071.345 6  -5173848.25521        16.000           0.813
  22540319.167    -9582867.055 6  -7325435.20721        17.000           0.969
  23506058.589    -3343623.414 5  -2450330.82721        10.250           0.438
  23954496.198    -1292012.230 5   -833584.29021         7.750           0.219
 91  6  3 17 39 14.9990000  0  6G18G19G11G 2G16G 6
  21044311.714     2781445.768 7   2159709.39922        23.500           2.438
  20417526.386    -1849486.196 7  -1402262.37022        21.000           1.906
  22830523.698    -6765829.724 6  -5196257.35421        16.250           0.844
  22530677.651    -9633536.216 6  -7364917.62221        17.000           1.000
  23501308.597    -3368584.567 5  -2469781.09021        10.250           0.344
  23946004.261    -1336653.309 4   -868369.54221         7.250           0.219
 91  6  3 17 39 29.9990000  0  6G18G19G11G 2G16G 6
  21049142.019     2806827.212 7   2179487.09223        24.000           2.531
  20416397.190    -1855432.150 7  -1406895.59022        20.250           1.906
  22825074.269    -6794468.980 6  -5218573.62921        16.000           0.875
  22521043.417    -9684158.479 6  -7404363.49221        17.000           1.063
  23496582.480    -3393427.639 5  -2489139.34821        10.000           0.469
  23937508.065    -1381294.045 4   -903154.48121         7.000           0.188
 91  6  3 17 39 44.9990000  0  6G18G19G11G 2G16G 6
  21053987.940     2832289.104 7   2199327.47123        24.250           2.500
  20415270.456    -1861343.643 7  -1411501.95622        20.750           1.813
  22819645.761    -6822992.793 6  -5240799.95021        15.750           0.844
  22511418.550    -9734737.470 6  -7443775.64021        17.250           1.063
  23491879.144    -3418156.450 5  -2508408.56521         9.500           0.500
  23929013.503    -1425938.311 4   -937942.17921         7.250           0.250
 91  6  3 17 39 59.9990000  0  6G18G19G11G 2G16G 6
  21058848.222     2857833.480 7   2219232.12723        24.000           2.500
  20414155.550    -1867218.208 6  -1416079.55022        19.750           1.781
  22814241.050    -6851398.670 6  -5262934.36921        16.500           0.938
  22501802.253    -9785270.878 6  -7483152.27221        17.250           1.063
  23487195.808    -3442768.556 5  -2527586.83721         9.750           0.469
  23920518.456    -1470583.867 5   -972730.88221         7.500           0.250
 91  6  3 17 40 14.9990000  0  6G18G19G11G 2G16G 6
  21063726.464     2883463.765 7   2239203.72422        24.000           2.406
  20413042.722    -1873052.309 7  -1420625.61022        20.500           1.938
  22808858.425    -6879682.869 6  -5284973.96321        16.250           0.969
  22492194.597    -9835755.008 6  -7522490.50521        17.250           1.250
  23482531.230    -3467260.293 5  -2546671.34521         9.750           0.469
  23912022.995    -1515227.157 4  -1007517.83121         7.000           0.250
 91  6  3 17 40 29.9990000  0  6G18G19G11G 2G16G 6
  21068619.987     2909180.848 7   2259242.95223        24.000           2.563
  20411942.792    -1878844.891 6  -1425139.31522        19.500           1.813
  22803500.120    -6907844.017 6  -5306917.69021        16.500           1.000
  22482598.651    -9886188.569 6  -7561789.33221        17.250           1.188
  23477895.331    -3491630.751 5  -2565661.31921        10.000           0.438
  23903527.394    -1559867.264 5  -1042302.30221         7.500           0.250
 91  6  3 17 40 44.9990000  0  6G18G19G11G 2G16G 6
  21073529.808     2934982.990 7   2279348.46323        23.500           2.500
  20410846.237    -1884597.549 6  -1429621.91722        19.750           1.969
  22798163.159    -6935883.512 6  -5328766.61821        16.250           0.906
  22473010.831    -9936573.085 6  -7601049.93721        17.500           1.281
  23473280.464    -3515881.290 5  -2584557.87621        10.250           0.344
  23895030.737    -1604505.818 5  -1077085.56421         7.500           0.250
 91  6  3 17 40 59.9990000  0  6G18G19G11G 2G16G 6
  21078453.675     2960856.179 7   2299509.33022        23.750           2.406
  20409761.269    -1890324.384 6  -1434084.39222        18.750           1.969
  22792845.612    -6963815.114 6  -5350531.47521        15.750           0.906
  22463429.597    -9986922.592 6  -7640283.27221        17.750           1.313
  23468687.394    -3540025.893 5  -2603371.86621        10.500           0.469
  23886539.050    -1649156.773 5  -1111878.48021         7.750           0.313
 91  6  3 17 41 14.9990000  0  6G18G19G11G 2G16G 6
  21083394.284     2986819.859 7   2319740.71222        23.750           2.406
  20408674.980    -1896005.511 7  -1438511.25622        20.000           1.938
  22787557.323    -6991618.747 6  -5372196.61621        16.250           0.969
  22453858.784   -10037217.240 6  -7679473.85321        17.750           1.281
  23464117.308    -3564044.481 5  -2622087.66721        10.500           0.438
  23878040.433    -1693800.487 5  -1146665.77321         7.500           0.281
 91  6  3 17 41 29.9990000  0  6G18G19G11G 2G16G 6
  21088350.136     3012867.115 7   2340037.22423        23.750           2.500
  20407603.761    -1901647.617 6  -1442907.71422        19.500           1.969
  22782290.347    -7019300.943 6  -5393767.13721        17.000           0.906
  22444297.362   -10087463.506 6  -7718626.73821        17.250           1.188
  23459567.730    -3587943.767 5  -2640710.50321        10.500           0.500
  23869545.323    -1738443.617 5  -1181452.59121         7.500           0.281
 91  6  3 17 41 44.9990000  0  6G18G19G11G 2G16G 6
  21093323.636     3039000.677 7   2360400.98222        24.000           2.438
  20406535.690    -1907247.999 7  -1447271.65222        20.000           1.969
  22777046.605    -7046858.767 6  -5415240.73721        17.000           1.000
  22434744.651   -10137658.450 6  -7757739.63021        17.000           1.375
  23455044.097    -3611721.252 5  -2659238.42921        10.250           0.438
  23861046.394    -1783083.533 5  -1216236.91121         7.500           0.281
 91  6  3 17 41 59.9990000  0  6G18G19G11G 2G16G 6
  21098314.292     3065217.875 7   2380829.91422        24.250           2.469
  20405478.409    -1912809.057 6  -1451604.95722        19.500           2.000
  22771823.901    -7074294.289 6  -5436619.03721        16.500           0.906
  22425203.058   -10187804.398 6  -7796814.34521        17.250           1.281
  23450541.425    -3635379.175 5  -2677673.18321        10.250           0.563
  23852552.128    -1827722.603 5  -1251020.55921         7.500           0.281
 91  6  3 17 42 14.9990000  0  6G18G19G11G 2G16G 6
  21103318.940     3091523.950 7   2401328.09722        24.250           2.406
  20404428.198    -1918325.260 7  -1455903.30822        20.000           1.875
  22766628.980    -7101601.814 6  -5457897.60521        17.000           0.969
  22415671.550   -10237895.850 6  -7835846.59021        17.250           1.313
  23446062.565    -3658911.820 5  -2696010.32621        10.500           0.531
  23844062.417    -1872355.462 5  -1285799.40121         7.500           0.250
 91  6  3 17 42 29.9990000  0  6G18G19G11G 2G16G 6
  21108340.355     3117907.640 7   2421886.76122        24.250           2.438
  20403387.058    -1923807.647 6  -1460175.30122        19.250           1.844
  22761454.347    -7128792.268 6  -5479084.94521        16.750           1.063
  22406147.136   -10287943.683 6  -7874844.85121        17.250           1.281
  23441605.058    -3682330.208 5  -2714258.44321        10.750           0.500
  23835563.722    -1916993.178 4  -1320581.99921         7.000           0.281
 91  6  3 17 42 44.9990000  0  6G18G19G11G 2G16G 6
  21113377.769     3144383.581 7   2442517.31122        24.000           2.469
  20402351.120    -1929241.416 6  -1464409.41822        19.750           2.000
  22756303.683    -7155850.651 6  -5500169.36821        17.000           1.000
  22396634.073   -10337932.872 6  -7913797.41421        17.250           1.250
  23437174.605    -3705619.456 5  -2732405.92221        11.000           0.469
  23827072.097    -1961620.956 4  -1355356.88121         7.250           0.219
 91  6  3 17 42 59.9990000  0  6G18G19G11G 2G16G 6
  21118430.440     3170936.251 7   2463207.65223        23.750           2.500
  20401324.401    -1934641.873 6  -1468617.57722        19.250           1.938
  22751177.581    -7182791.988 6  -5521162.59821        17.000           1.031
  22387128.597   -10387878.826 6  -7952716.28121        16.750           1.188
  23432764.839    -3728794.868 5  -2750464.71321        10.750           0.500
  23818578.917    -2006254.197 4  -1390135.99221         7.250           0.219
 91  6  3 17 43 14.9990000  0  6G18G19G11G 2G16G 6
  21123501.417     3197576.422 7   2483966.17023        24.250           2.563
  20400303.659    -1939998.166 7  -1472791.31922        20.000           1.813
  22746074.151    -7209605.018 6  -5542055.84521        17.000           0.938
  22377634.886   -10437770.466 6  -7991592.83521        16.500           1.344
  23428379.261    -3751845.648 5  -2768426.37321        10.500           0.531
  23810086.355    -2050881.996 4  -1424910.85921         7.250           0.313
 91  6  3 17 43 29.9990000  0  6G18G19G11G 2G16G 6
  21128588.058     3224310.076 7   2504797.53023        24.250           2.500
  20399295.605    -1945304.143 6  -1476925.85922        19.500           1.875
  22740999.987    -7236283.637 6  -5562844.35321        17.000           1.000
  22368153.612   -10487601.663 6  -8030422.27921        16.750           1.219
  23424016.605    -3774765.519 5  -2786286.01821        10.500           0.469
  23801599.964    -2095498.304 4  -1459676.80821         7.250           0.375
 91  6  3 17 43 44.9990000  0  6G18G19G11G 2G16G 6
  21133690.050     3251127.371 7   2525694.06422        24.000           2.469
  20398292.011    -1950569.405 7  -1481028.66922        20.000           1.875
  22735946.159    -7262837.321 6  -5583535.50821        16.750           0.906
  22358680.276   -10537382.014 6  -8069212.11121        16.750           1.281
  23419679.581    -3797564.059 5  -2804051.13821        11.000           0.438
  23793110.300    -2140112.956 5  -1494441.41321         7.750           0.375
 91  6  3 17 43 59.9990000  0  6G18G19G11G 2G16G 6
  21138810.331     3278029.756 7   2546656.90822        24.250           2.438
  20397298.776    -1955792.026 6  -1485098.25122        19.500           1.875
  22730916.987    -7289264.008 6  -5604127.70321        17.000           1.000
  22349216.714   -10587109.649 6  -8107960.86321        16.500           1.219
  23415362.862    -3820239.563 5  -2821720.37021        10.250           0.656
  23784622.761    -2184724.113 5  -1529203.33821         7.750           0.344
 91  6  3 17 44 14.9990000  0  6G18G19G11G 2G16G 6
  21143944.644     3305017.843 7   2567686.53122        24.000           2.469
  20396312.073    -1960971.333 7  -1489134.08922        20.000           1.969
  22725912.472    -7315562.598 6  -5624620.08521        17.000           1.000
  22339764.034   -10636783.503 6  -8146667.70021        16.750           1.313
  23411070.456    -3842791.344 5  -2839293.19721        10.500           0.594
  23776136.987    -2229331.090 5  -1563961.97621         8.000           0.344
 91  6  3 17 44 29.9990000  0  6G18G19G11G 2G16G 6
  21149097.362     3332091.321 7   2588782.69122        24.000           2.375
  20395335.081    -1966107.374 6  -1493136.20722        19.500           1.969
  22720932.300    -7341732.965 6  -5645012.55021        17.000           0.969
  22330321.503   -10686403.611 6  -8185332.66721        16.500           1.156
  23406802.534    -3865219.115 5  -2856769.40021        10.500           0.531
  23767643.089    -2273933.887 5  -1598717.37721         7.500           0.375
 91  6  3 17 44 44.9990000  0  6G18G19G11G 2G16G 6
  21154265.519     3359249.214 7   2609944.62622        24.000           2.406
  20394365.480    -1971201.060 7  -1497105.32122        20.000           1.844
  22715977.487    -7367775.816 6  -5665305.65221        17.250           0.969
  22320888.870   -10735970.681 6  -8223956.29921        16.250           1.313
  23402559.730    -3887523.569 5  -2874149.50821        10.250           0.500
  23759155.573    -2318533.435 5  -1633470.25721         8.000           0.344
 91  6  3 17 44 59.9990000  0  6G18G19G11G 2G16G 6
  21159449.503     3386490.584 7   2631171.60922        24.000           2.313
  20393406.753    -1976253.248 6  -1501042.10222        19.500           1.875
  22711044.651    -7393691.757 6  -5685499.86321        17.500           1.094
  22311466.878   -10785485.553 6  -8262539.25521        16.750           1.313
  23398339.331    -3909705.690 5  -2891434.29021        10.750           0.500
  23750671.308    -2363130.674 5  -1668221.29921         8.250           0.344
 91  6  3 17 45 14.9990000  0  6G18G19G11G 2G16G 6
  21164650.097     3413819.632 7   2652466.91222        23.750           2.250
  20392453.651    -1981259.322 7  -1504942.94722        20.000           1.750
  22706137.901    -7419476.082 6  -5705591.52321        17.250           1.125
  22302055.089   -10834943.465 6  -8301077.83821        16.750           1.250
  23394139.753    -3931760.991 5  -2908620.25821        10.500           0.500
  23742189.448    -2407721.118 5  -1702967.05521         8.250           0.313
 91  6  3 17 45 29.9990000  0  6G18G19G11G 2G16G 6
  21169867.667     3441238.512 7   2673832.21622        23.500           2.219
  20391510.159    -1986217.041 6  -1508806.11622        18.750           1.813
  22701258.503    -7445126.224 6  -5725578.61821        17.500           1.063
  22292655.175   -10884342.186 6  -8339570.28921        16.750           1.375
  23389969.550    -3953687.122 5  -2925705.55921        10.500           0.563
  23733703.542    -2452302.391 5  -1737705.67921         8.500           0.375
 91  6  3 17 45 44.9990000  0  6G18G19G11G 2G16G 6
  21175102.737     3468743.621 7   2695264.71322        23.500           2.250
  20390574.940    -1991129.495 6  -1512634.01022        19.750           1.906
  22696401.089    -7470645.116 6  -5745463.44721        17.500           1.031
  22283265.269   -10933684.711 6  -8378018.95221        17.250           1.344
  23385817.581    -3975487.012 5  -2942692.49821        10.500           0.500
  23725217.644    -2496877.806 5  -1772439.73821         8.000           0.344
 91  6  3 17 45 59.9990000  0  6G18G19G11G 2G16G 6
  21180353.933     3496338.767 7   2716767.36822        23.500           2.188
  20389649.464    -1995993.098 6  -1516423.83922        19.500           1.844
  22691571.151    -7496029.026 6  -5765243.08821        17.500           0.969
  22273888.190   -10982967.262 6  -8416420.88821        17.250           1.250
  23381697.519    -3997157.045 5  -2959578.26221        11.000           0.500
  23716737.847    -2541443.742 5  -1807166.42421         8.000           0.281
 91  6  3 17 46 14.9990000  0  6G18G19G11G 2G16G 6
  21185621.956     3524024.667 7   2738340.74322        23.250           2.188
  20388732.417    -2000806.796 6  -1520174.78122        19.750           1.844
  22686766.370    -7521276.743 6  -5784916.60621        17.250           0.906
  22264521.237   -11032188.663 6  -8454775.17321        17.000           1.281
  23377599.722    -4018696.194 5  -2976362.02521        11.000           0.500
  23708262.183    -2585999.269 5  -1841884.98921         8.000           0.344
 91  6  3 17 46 29.9990000  0  6G18G19G11G 2G16G 6
  21190907.972     3551798.407 7   2759982.55922        23.500           2.156
  20387829.667    -2005573.337 6  -1523888.97822        19.000           1.781
  22681987.565    -7546390.872 6  -5804486.03321        17.000           1.000
  22255164.534   -11081351.664 6  -8493083.95121        17.000           1.250
  23373521.831    -4040107.125 5  -2993045.89221        10.750           0.563
  23699785.112    -2630547.202 5  -1876597.61921         8.500           0.281
 91  6  3 17 46 44.9990000  0  6G18G19G11G 2G16G 6
  21196209.230     3579658.670 7   2781691.80122        23.500           2.094
  20386926.315    -2010293.901 6  -1527567.35322        19.750           1.781
  22677232.386    -7571372.294 6  -5823952.04121        17.000           1.031
  22245821.448   -11130457.374 6  -8531348.09121        17.250           1.281
  23369474.464    -4061391.113 5  -3009630.81921        11.000           0.594
  23691305.347    -2675088.680 5  -1911305.25321         8.000           0.250
 91  6  3 17 46 59.9990000  0  6G18G19G11G 2G16G 6
  21201526.464     3607604.178 7   2803467.46322        23.250           2.156
  20386037.323    -2014969.273 6  -1531210.50822        19.500           1.781
  22672503.933    -7596221.771 6  -5843315.24621        17.250           0.969
  22236486.565   -11179506.544 6  -8569568.17321        17.500           1.438
  23365446.362    -4082549.002 5  -3026117.50621        10.500           0.594
  23682831.300    -2719624.693 5  -1946008.59321         7.750           0.313
 91  6  3 17 47 14.9990000  0  6G18G19G11G 2G16G 6
  21206861.901     3635639.727 7   2825313.28622        23.250           2.125
  20385156.839    -2019594.645 6  -1534814.70622        19.750           1.813
  22667803.011    -7620934.301 6  -5862571.73721        17.250           0.906
  22227164.542   -11228494.173 6  -8607740.29221        17.500           1.375
  23361444.745    -4103575.953 5  -3042502.15621        10.500           0.656
  23674360.839    -2764150.397 5  -1980703.93421         8.250           0.250
 91  6  3 17 47 29.9990000  0  6G18G19G11G 2G16G 6
  21212212.112     3663759.051 7   2847224.39122        22.750           2.125
  20384288.519    -2024175.816 6  -1538384.45722        19.000           1.781
  22663126.315    -7645515.397 6  -5881725.80321        17.750           0.969
  22217853.581   -11277426.090 6  -8645869.00321        17.500           1.406
  23357471.308    -4124477.704 5  -3058789.25121        11.000           0.563
  23665890.995    -2808671.668 5  -2015395.80221         8.250           0.281
 91  6  3 17 47 44.9990000  0  6G18G19G11G 2G16G 6
  21217581.159     3691967.584 7   2869205.00722        23.000           2.125
  20383425.019    -2028707.356 6  -1541915.53922        19.750           1.781
  22658473.800    -7669959.440 6  -5900773.09121        17.750           1.000
  22208553.425   -11326296.784 6  -8683950.01422        17.250           1.531
  23353516.394    -4145248.919 5  -3074974.62821        11.250           0.531
  23657418.269    -2853183.084 5  -2050079.99121         8.000           0.313
 91  6  3 17 47 59.9990000  0  6G18G19G11G 2G16G 6
  21222965.940     3720264.507 7   2891254.49922        23.250           2.188
  20382572.480    -2033190.075 6  -1545408.57622        18.750           1.875
  22653846.847    -7694267.057 6  -5919714.05821        17.250           1.063
  22199265.542   -11375106.924 6  -8721983.84021        17.750           1.344
  23349590.636    -4165890.163 5  -3091058.74221        11.500           0.563
  23648946.714    -2897685.618 5  -2084757.27221         7.750           0.313
 91  6  3 17 48 14.9990000  0  6G18G19G11G 2G16G 6
  21228366.276     3748644.670 7   2913368.85022        22.500           2.250
  20381725.097    -2037628.559 6  -1548867.14522        19.500           1.875
  22649246.823    -7718442.667 6  -5938552.16321        17.500           1.063
  22189987.347   -11423860.950 6  -8759973.93822        18.000           1.594
  23345686.026    -4186406.161 6  -3107045.25821        12.000           0.531
  23640479.909    -2942183.752 5  -2119431.10821         8.000           0.313
 91  6  3 17 48 29.9990000  0  6G18G19G11G 2G16G 6
  21233784.073     3777114.688 7   2935553.21722        22.750           2.125
  20380893.651    -2042015.889 6  -1552285.85822        18.500           1.781
  22644673.042    -7742479.297 6  -5957281.98021        17.750           1.063
  22180723.198   -11472551.914 6  -8797914.89321        18.250           1.469
  23341803.183    -4206789.866 5  -3122928.68321        11.500           0.563
  23632015.190    -2986670.887 5  -2154096.39121         8.500           0.281
 91  6  3 17 48 44.9990000  0  6G18G19G11G 2G16G 6
  21239217.448     3805671.465 7   2957805.19122        22.250           2.156
  20380066.003    -2046354.936 6  -1555666.94322        19.500           1.906
  22640124.237    -7766379.478 6  -5975905.46221        18.000           1.000
  22171468.222   -11521182.473 6  -8835808.78822        18.000           1.531
  23337951.683    -4227044.166 5  -3138711.27521        11.000           0.563
  23623550.823    -3031149.695 5  -2188755.18621         8.250           0.406
 91  6  3 17 48 59.9990000  0  6G18G19G11G 2G16G 6
  21244668.292     3834315.639 7   2980125.27022        22.500           2.125
  20379249.284    -2050645.028 6  -1559009.88722        18.750           1.844
  22635603.480    -7790142.422 6  -5994422.01421        18.250           1.000
  22162226.253   -11569752.076 6  -8873655.17822        18.500           1.531
  23334121.706    -4247168.519 5  -3154392.60421        11.500           0.531
  23615089.706    -3075619.613 5  -2223407.03121         8.250           0.375
 91  6  3 17 49 14.9990000  0  6G18G19G11G 2G16G 6
  21250136.948     3863054.577 7   3002519.18722        22.750           2.125
  20378442.323    -2054878.776 6  -1562308.92222        19.000           1.844
  22631109.737    -7813760.682 6  -6012825.82221        17.750           1.031
  22152996.167   -11618253.375 6  -8911448.35121        18.500           1.469
  23330317.558    -4267155.314 5  -3169966.74721        11.250           0.531
  23606630.370    -3120073.429 5  -2258046.35121         8.500           0.375
 91  6  3 17 49 29.9990000  0  6G18G19G11G 2G16G 6
  21255624.472     3891888.656 7   3024987.23622        23.000           2.156
  20377653.065    -2059055.435 6  -1565563.47322        18.000           1.813
  22626642.433    -7837233.181 6  -6031116.05421        17.500           1.000
  22143780.808   -11666685.381 6  -8949187.52522        18.750           1.500
  23326544.362    -4287004.020 5  -3185433.28321        11.750           0.500
  23598173.308    -3164510.279 5  -2292672.44121         8.250           0.500
 91  6  3 17 49 44.9990000  0  6G18G19G11G 2G16G 6
  21261129.331     3920814.300 7   3047526.64022        22.750           2.031
  20376862.550    -2063178.093 6  -1568775.94522        19.250           1.875
  22622203.745    -7860562.934 6  -6049295.05221        17.750           0.969
  22134576.675   -11715051.118 6  -8986875.06122        19.000           1.531
  23322787.433    -4306717.551 5  -3200794.49021        11.500           0.625
  23589722.433    -3208933.403 5  -2327287.82921         8.500           0.344
 91  6  3 17 49 59.9990000  0  6G18G19G11G 2G16G 6
  21266649.401     3949831.971 7   3070137.75022        22.500           2.156
  20376092.058    -2067246.397 6  -1571946.06522        18.500           1.813
  22617789.511    -7883749.467 6  -6067362.45821        17.750           0.969
  22125385.323   -11763350.320 6  -9024510.75622        19.000           1.500
  23319063.714    -4326295.824 5  -3216050.30421        11.750           0.531
  23581269.722    -3253342.630 5  -2361892.40021         8.000           0.469
 91  6  3 17 50 14.9990000  0  6G18G19G11G 2G16G 6
  21272191.292     3978947.500 7   3092825.11622        22.750           2.094
  20375327.073    -2071254.124 6  -1575068.98122        19.250           1.750
  22613405.425    -7906786.474 6  -6085313.34221        17.250           0.969
  22116208.292   -11811576.549 6  -9062089.57922        18.750           1.563
  23315366.667    -4345732.557 6  -3231195.83421        12.250           0.469
  23572821.792    -3297731.731 5  -2396481.29021         8.250           0.344
 91  6  3 17 50 29.9990000  0  6G18G19G11G 2G16G 6
  21277750.440     4008154.956 7   3115584.11022        23.250           2.188
  20374576.901    -2075207.132 6  -1578149.26322        18.750           1.875
  22609050.050    -7929679.528 6  -6103152.06221        17.250           1.125
  22107043.605   -11859735.401 6  -9099615.91022        19.000           1.500
  23311691.456    -4365033.519 5  -3246235.57221        11.750           0.469
  23564375.503    -3342106.493 5  -2431058.99721         8.500           0.438
 91  6  3 17 50 44.9990000  0  6G18G19G11G 2G16G 6
  21283324.550     4037450.493 7   3138411.74222        23.250           2.125
  20373832.300    -2079108.630 6  -1581189.40622        19.000           1.781
  22604720.690    -7952431.703 6  -6120881.00121        17.500           0.938
  22097892.120   -11907830.232 6  -9137092.35622        19.250           1.500
  23308042.659    -4384202.027 5  -3261172.09221        11.250           0.563
  23555935.065    -3386470.220 5  -2465628.09521         8.500           0.406
 91  6  3 17 50 59.9990000  0  6G18G19G11G 2G16G 6
  21288918.573     4066838.266 7   3161311.24222        23.250           2.156
  20373102.190    -2082954.590 6  -1584186.27522        18.750           1.813
  22600416.706    -7975038.697 6  -6138496.82521        17.250           1.031
  22088752.589   -11955856.763 6  -9174515.58021        19.250           1.438
  23304421.644    -4403233.725 5  -3276001.99721        11.000           0.531
  23547495.112    -3430818.942 5  -2500185.51221         8.500           0.469
 91  6  3 17 51 14.9990000  0  6G18G19G11G 2G16G 6
  21294527.706     4096321.198 7   3184284.89322        22.750           2.219
  20372379.667    -2086741.783 6  -1587137.35022        19.000           1.813
  22596144.589    -7997497.274 6  -6155996.98221        17.500           0.969
  22079627.003   -12003811.784 6  -9211883.08022        19.250           1.500
  23300828.511    -4422125.461 5  -3290722.85221        11.250           0.531
  23539060.808    -3475149.529 5  -2534728.77821         8.750           0.438
 91  6  3 17 51 29.9990000  0  6G18G19G11G 2G16G 6
  21300154.722     4125893.605 7   3207328.25822        22.750           2.188
  20371673.128    -2090475.729 6  -1590046.93822        18.000           1.750
  22591897.565    -8019812.702 6  -6173385.59721        17.750           0.969
  22070514.058   -12051700.717 6  -9249199.09122        19.250           1.563
  23297258.175    -4440882.878 5  -3305339.03921        11.000           0.625
  23530623.909    -3519467.418 5  -2569262.17321         8.750           0.438
 91  6  3 17 51 44.9990000  0  6G18G19G11G 2G16G 6
  21305797.339     4155548.350 7   3230435.78322        22.500           2.125
  20370967.605    -2094163.135 6  -1592920.25822        19.500           1.781
  22587676.230    -8041991.614 6  -6190667.83921        17.750           1.031
  22061411.980   -12099530.148 6  -9286468.72922        19.000           1.625
  23293714.151    -4459512.828 5  -3319855.89721        11.000           0.656
  23522192.550    -3563779.481 5  -2603791.03621         8.750           0.344
 91  6  3 17 51 59.9990000  0  6G18G19G11G 2G16G 6
  21311457.995     4185293.828 7   3253614.02322        22.250           2.219
  20370278.245    -2097795.766 6  -1595750.89522        18.750           1.750
  22583484.862    -8064025.595 6  -6207837.14621        17.500           1.125
  22052324.058   -12147291.933 6  -9323685.65822        19.250           1.594
  23290194.198    -4478007.049 5  -3334266.99921        11.250           0.500
  23513764.644    -3608077.470 5  -2638308.91921         8.750           0.375
 91  6  3 17 52 14.9990000  0  6G18G19G11G 2G16G 6
  21317135.667     4215130.850 7   3276863.58522        22.000           2.063
  20369595.800    -2101372.465 6  -1598537.94522        19.500           1.750
  22579319.847    -8085913.309 6  -6224892.47821        17.750           1.031
  22043247.230   -12194984.707 6  -9360848.81322        19.500           1.531
  23286702.847    -4496364.363 5  -3348571.41121        11.500           0.438
  23505337.573    -3652360.279 5  -2672814.97021         9.000           0.313
 91  6  3 17 52 29.9990000  0  6G18G19G11G 2G16G 6
  21322830.878     4245055.587 7   3300181.49722        22.250           2.188
  20368926.573    -2104896.989 6  -1601284.34922        18.750           1.781
  22575181.034    -8107658.396 6  -6241836.67721        17.750           1.031
  22034184.542   -12242612.158 6  -9397961.07122        19.250           1.563
  23283236.737    -4514588.522 5  -3362772.06821        11.500           0.531
  23496913.159    -3696631.743 5  -2707312.18421         9.250           0.563
 91  6  3 17 52 44.9980000  0  6G18G19G11G 2G16G 6
  21328542.795     4275071.059 7   3323570.11022        22.250           2.156
  20368264.764    -2108363.437 6  -1603985.48922        19.500           1.813
  22571072.022    -8129253.749 6  -6258664.19521        17.750           1.188
  22025135.225   -12290165.659 6  -9435015.70221        19.000           1.469
  23279794.326    -4532672.826 5  -3376863.75021        11.250           0.438
  23488491.162    -3740883.466 5  -2741794.01321         9.000           0.375
 91  6  3 17 52 59.9980000  0  6G18G19G11G 2G16G 6
  21334270.600     4305179.207 7   3347030.94122        22.000           2.094
  20367617.397    -2111773.940 6  -1606643.04622        19.250           1.781
  22566990.725    -8150703.794 6  -6275378.49321        17.500           1.156
  22016099.256   -12337652.995 6  -9472018.77721        19.750           1.438
  23276374.811    -4550621.266 5  -3390849.57521        10.500           0.531
  23480071.623    -3785123.094 5  -2776266.43321         9.000           0.375
 91  6  3 17 53 14.9980000  0  6G18G19G11G 2G16G 6
  21340017.623     4335375.632 7   3370560.56122        22.250           2.031
  20366976.662    -2115130.803 6  -1609258.80022        19.750           1.844
  22562934.420    -8172009.304 6  -6291980.15921        17.250           1.094
  22007075.389   -12385073.378 6  -9508969.68421        19.500           1.406
  23272985.982    -4568435.037 5  -3404730.43221        10.500           0.563
  23471657.748    -3829350.028 5  -2810728.95021         9.500           0.375
 91  6  3 17 53 29.9980000  0  6G18G19G11G 2G16G 6
  21345781.787     4365661.860 7   3394160.15322        22.500           2.031
  20366355.107    -2118432.214 6  -1611831.34222        18.250           1.813
  22558907.576    -8193168.470 6  -6308467.79821        17.000           1.031
  21998064.553   -12432425.040 6  -9545867.03621        19.500           1.469
  23269622.365    -4586112.247 5  -3418504.91021        11.250           0.594
  23463245.311    -3873562.662 5  -2845180.33421         9.750           0.250
 91  6  3 17 53 44.9980000  0  6G18G19G11G 2G16G 6
  21351561.201     4396034.582 7   3417827.14422        22.500           2.031
  20365731.881    -2121681.316 6  -1614363.12922        19.500           1.875
  22554908.506    -8214184.233 6  -6324843.68521        17.000           1.063
  21989067.756   -12479710.919 6  -9582713.13521        19.750           1.344
  23266283.678    -4603656.414 5  -3432175.70921        11.250           0.469
  23454830.467    -3917764.116 5  -2879622.99721         9.250           0.344
 91  6  3 17 53 59.9980000  0  6G18G19G11G 2G16G 6
  21357358.342     4426496.050 7   3441563.28422        21.750           2.031
  20365125.686    -2124875.393 6  -1616852.03822        18.750           1.813
  22550939.709    -8235053.749 6  -6341105.61321        17.500           1.156
  21980080.342   -12526928.374 6  -9619505.91021        19.500           1.438
  23262972.607    -4621064.611 5  -3445740.55821        11.250           0.531
  23446422.795    -3961951.820 5  -2914054.95921         9.250           0.313
 91  6  3 17 54 14.9980000  0  6G18G19G11G 2G16G 6
  21363171.147     4457045.423 7   3465367.92122        21.500           2.094
  20364527.248    -2128015.039 6  -1619298.53022        19.750           1.844
  22546995.287    -8255777.597 6  -6357254.03321        17.500           1.125
  21971107.584   -12574077.905 6  -9656245.76321        19.250           1.281
  23259686.623    -4638337.632 5  -3459200.07721        11.250           0.500
  23438017.193    -4006126.429 5  -2948476.70221         9.500           0.344
 91  6  3 17 54 29.9980000  0  6G18G19G11G 2G16G 6
  21369000.186     4487676.708 7   3489236.39222        21.500           1.844
  20363939.912    -2131105.988 6  -1621707.08022        19.250           1.781
  22543077.709    -8276361.296 6  -6373293.25221        17.250           1.031
  21962147.709   -12621165.182 6  -9692937.10721        19.750           1.375
  23256423.975    -4655481.242 5  -3472558.76121        11.250           0.500
  23429612.272    -4050293.760 5  -2982892.78721         8.750           0.313
 91  6  3 17 54 44.9980000  0  6G18G19G11G 2G16G 6
  21374845.209     4518397.584 7   3513174.67222        21.000           1.969
  20363359.373    -2134140.423 6  -1624071.59122        19.750           1.750
  22539189.553    -8296796.835 6  -6389217.02221        17.250           1.125
  21953200.639   -12668182.214 6  -9729573.70922        19.750           1.531
  23253186.334    -4672487.698 5  -3485810.56321        10.500           0.438
  23421214.639    -4094445.905 5  -3017297.02121         9.250           0.344
 91  6  3 17 54 59.9980000  0  6G18G19G11G 2G16G 6
  21380708.717     4549206.098 7   3537181.23922        21.000           1.906
  20362794.482    -2137120.526 6  -1626393.76722        19.250           1.844
  22535328.732    -8317086.331 6  -6405026.99821        17.500           1.031
  21944266.842   -12715131.181 6  -9766157.27921        19.750           1.406
  23249973.342    -4689359.099 5  -3498957.13021        10.250           0.500
  23412812.537    -4138585.130 5  -3051691.18121         9.250           0.344
 91  6  3 17 55 14.9980000  0  6G18G19G11G 2G16G 6
  21386588.951     4580106.647 7   3561259.52122        21.250           1.906
  20362238.240    -2140041.124 6  -1628669.57022        19.750           1.813
  22531494.529    -8337224.471 6  -6420719.02421        16.750           1.094
  21935346.490   -12762006.862 6  -9802683.74321        19.500           1.406
  23246791.014    -4706090.145 5  -3511994.31221        10.500           0.438
  23404417.428    -4182706.397 5  -3086071.36221         9.000           0.313
 91  6  3 17 55 29.9980000  0  6G18G19G11G 2G16G 6
  21392486.201     4611095.086 7   3585406.28722        21.500           1.906
  20361694.170    -2142906.245 6  -1630902.15322        19.250           1.781
  22527691.287    -8357215.060 6  -6436296.07621        17.250           1.031
  21926440.147   -12808813.142 6  -9839156.11921        19.500           1.469
  23243634.100    -4722684.994 5  -3524925.37921        10.750           0.406
  23396022.826    -4226813.601 5  -3120440.57921         8.750           0.375
 91  6  3 17 55 44.9980000  0  6G18G19G11G 2G16G 6
  21398397.256     4642162.297 7   3609614.43622        21.000           1.813
  20361156.014    -2145724.773 6  -1633098.42622        19.750           1.813
  22523914.748    -8377066.941 6  -6451765.04321        17.250           1.031
  21917543.967   -12855558.955 6  -9875581.39122        19.500           1.531
  23240501.053    -4739152.590 5  -3537757.29121        10.750           0.594
  23387632.092    -4270915.782 5  -3154805.90821         9.000           0.313
 91  6  3 17 55 59.9980000  0  6G18G19G11G 2G16G 6
  21404327.857     4673319.870 7   3633893.00022        21.250           1.875
  20360632.357    -2148484.872 6  -1635249.16922        19.500           1.719
  22520165.584    -8396768.059 6  -6467116.54321        17.500           1.063
  21908662.084   -12902232.288 6  -9911950.18022        19.750           1.594
  23237394.943    -4755481.022 5  -3550480.76521        11.000           0.531
  23379241.139    -4315001.056 5  -3189158.03021         9.000           0.250
 91  6  3 17 56 14.9980000  0  6G18G19G11G 2G16G 6
  21410274.350     4704571.065 7   3658244.50722        21.250           1.844
  20360117.818    -2151183.157 7  -1637351.74622        20.000           1.781
  22516446.850    -8416314.974 6  -6482347.88121        17.750           1.156
  21899795.693   -12948829.747 6  -9948259.84822        19.500           1.625
  23234316.326    -4771667.182 5  -3563093.37021        11.250           0.625
  23370857.131    -4359066.264 5  -3223494.52621         8.500           0.375
 91  6  3 17 56 29.9980000  0  6G18G19G11G 2G16G 6
  21416238.029     4735908.391 7   3682663.13622        21.750           1.781
  20359616.381    -2153826.633 6  -1639411.61822        19.250           1.750
  22512754.272    -8435714.650 6  -6497464.48521        17.500           1.094
  21890941.451   -12995358.315 6  -9984515.82122        19.750           1.563
  23231261.568    -4787718.223 5  -3575600.70121        11.250           0.563
  23362473.600    -4403118.550 5  -3257820.96921         8.500           0.344
 91  6  3 17 56 44.9980000  0  6G18G19G11G 2G16G 6
  21422218.498     4767331.869 7   3707148.89822        21.750           1.750
  20359120.936    -2156414.864 6  -1641428.43722        19.750           1.813
  22509090.240    -8454966.594 6  -6512465.98121        17.250           1.031
  21882100.772   -13041817.583 7 -10020717.80022        20.250           1.594
  23228227.123    -4803634.028 5  -3588002.64921        10.000           0.469
  23354091.756    -4447157.524 5  -3292137.02021         8.500           0.250
 91  6  3 17 56 59.9980000  0  6G18G19G11G 2G16G 6
  21428213.904     4798842.832 7   3731702.82922        21.500           1.719
  20358641.654    -2158946.464 6  -1643401.13122        19.250           1.719
  22505455.490    -8474069.177 6  -6527351.08521        17.500           1.063
  21873272.764   -13088205.978 7 -10056864.56522        20.250           1.594
  23225225.131    -4819412.700 5  -3600297.70221         9.750           0.375
  23345713.826    -4491181.779 5  -3326441.60821         8.500           0.344
 91  6  3 17 57 14.9980000  0  6G18G19G11G 2G16G 6
  21434226.811     4830439.905 7   3756323.85222        21.500           1.875
  20358169.279    -2161422.694 7  -1645330.67822        20.000           1.750
  22501846.904    -8493023.532 6  -6542120.69421        17.000           1.094
  21864459.225   -13134524.738 7 -10092957.05722        20.000           1.625
  23222252.279    -4835055.541 5  -3612486.95621        10.500           0.563
  23337341.295    -4535192.551 5  -3360735.67321         8.750           0.281
 91  6  3 17 57 29.9980000  0  6G18G19G11G 2G16G 6
  21440254.459     4862118.191 7   3781008.16322        21.250           1.844
  20357708.873    -2163848.193 6  -1647220.69522        19.500           1.844
  22498267.506    -8511834.409 6  -6556778.49921        17.000           1.000
  21855656.764   -13180778.460 7 -10128998.87822        20.250           1.625
  23219300.123    -4850567.378 5  -3624574.11621        10.500           0.563
  23328968.209    -4579194.608 5  -3395022.94021         8.750           0.250
 91  6  3 17 57 44.9980000  0  6G18G19G11G 2G16G 6
  21446301.389     4893887.171 7   3805763.14522        21.250           1.813
  20357257.272    -2166212.917 7  -1649063.35322        20.000           1.844
  22494718.811    -8530491.632 6  -6571316.57021        17.250           0.969
  21846869.615   -13226957.156 7 -10164982.23022        20.500           1.688
  23216372.842    -4865938.380 5  -3636551.53121        10.500           0.375
  23320598.357    -4623178.060 5  -3429295.75321         8.500           0.406
 91  6  3 17 57 59.9980000  0  6G18G19G11G 2G16G 6
  21452361.561     4925742.266 7   3830585.22622        21.000           1.750
  20356822.647    -2168521.627 6  -1650862.36222        19.250           1.813
  22491196.443    -8548999.646 6  -6585738.38121        17.250           1.000
  21838096.373   -13273065.301 7 -10200910.61022        20.750           1.625
  23213474.147    -4881173.172 5  -3648422.82921        10.500           0.469
  23312233.061    -4667147.493 5  -3463557.59721         8.250           0.344
 91  6  3 17 58 14.9980000  0  6G18G19G11G 2G16G 6
  21458438.303     4957677.991 7   3855470.13422        20.750           1.750
  20356388.529    -2170779.456 7  -1652621.73122        20.250           1.781
  22487702.389    -8567363.477 6  -6600047.83221        17.250           0.938
  21829333.772   -13319107.871 7 -10236787.89122        20.250           1.656
  23210599.607    -4896276.805 5  -3660191.91521        10.500           0.500
  23303868.100    -4711108.119 5  -3497812.58821         8.500           0.313
 91  6  3 17 58 29.9980000  0  6G18G19G11G 2G16G 6
  21464533.795     4989702.371 7   3880424.12622        21.500           1.656
  20355970.701    -2172978.165 6  -1654335.02622        19.750           1.875
  22484236.498    -8585574.677 6  -6614238.35721        17.500           1.000
  21820586.076   -13365076.835 7 -10272607.81922        20.000           1.656
  23207755.006    -4911241.339 5  -3671852.59521        10.750           0.563
  23295503.029    -4755051.780 5  -3532054.36921         8.250           0.281
 91  6  3 17 58 44.9980000  0  6G18G19G11G 2G16G 6
  21470644.740     5021812.279 7   3905444.76222        21.250           1.625
  20355562.647    -2175120.580 7  -1656004.45922        20.500           1.813
  22480799.709    -8603636.171 6  -6628312.23121        17.750           1.031
  21811851.959   -13410975.081 6 -10308372.65022        19.750           1.781
  23204933.451    -4926069.421 5  -3683406.97021        10.750           0.500
  23287145.428    -4798981.386 5  -3566285.18421         8.500           0.250
 91  6  3 17 58 59.9980000  0  6G18G19G11G 2G16G 6
  21476769.693     5054004.253 7   3930529.34522        20.750           1.688
  20355167.607    -2177209.672 6  -1657632.33822        19.750           1.781
  22477390.115    -8621551.000 6  -6642271.82121        18.000           1.031
  21803129.334   -13456805.639 6 -10344084.72222        19.750           1.719
  23202135.131    -4940764.312 5  -3694857.55921        10.250           0.406
  23278786.100    -4842900.197 5  -3600507.60921         8.750           0.375
 91  6  3 17 59 14.9980000  0  6G18G19G11G 2G16G 6
  21482910.428     5086273.761 7   3955674.33922        20.500           1.688
  20354777.482    -2179249.909 7  -1659222.14822        20.500           1.781
  22474009.248    -8639323.556 6  -6656120.54221        18.000           1.031
  21794420.412   -13502572.619 6 -10379747.26022        19.750           1.844
  23199361.717    -4955330.624 5  -3706207.95321         9.500           0.438
  23270428.139    -4886812.594 5  -3634725.02021         8.750           0.375
 91  6  3 17 59 29.9980000  0  6G18G19G11G 2G16G 6
  21489067.686     5118631.862 7   3980888.36722        20.750           1.594
  20354401.045    -2181229.782 7  -1660764.91822        20.000           1.813
  22470656.107    -8656942.202 6  -6669849.34321        17.750           1.063
  21785724.725   -13548264.443 7 -10415351.23022        20.000           1.781
  23196617.311    -4969756.707 5  -3717449.06821        10.000           0.469
  23262076.037    -4930707.035 5  -3668928.43421         8.750           0.344
 91  6  3 17 59 44.9980000  0  6G18G19G11G 2G16G 6
  21495241.256     5151069.550 7   4006164.42122        20.750           1.625
  20354033.092    -2183157.959 7  -1662267.40622        20.500           1.750
  22467330.123    -8674415.583 6  -6683464.94421        17.750           0.938
  21777044.131   -13593889.888 6 -10450903.48322        19.750           1.875
  23193898.100    -4984051.502 5  -3728587.89621        10.000           0.563
  23253725.693    -4974592.458 5  -3703124.82521         9.000           0.438
 91  6  3 17 59 59.9980000  0  6G18G19G11G 2G16G 6
  21501430.014     5183597.244 7   4031510.60222        20.250           1.625
  20353681.389    -2185023.984 6  -1663721.46722        19.500           1.813
  22464034.553    -8691732.964 6  -6696958.99421        18.000           1.000
  21768375.795   -13639438.367 6 -10486395.75922        19.750           1.813
  23191207.037    -4998204.597 5  -3739616.29921        10.500           0.469
  23245378.568    -5018458.355 5  -3737306.02121         9.250           0.344
 91  6  3 18  0 14.9980000  0  6G18G19G11G 2G16G 6
  21507636.412     5216209.978 7   4056923.04622        20.250           1.625
  20353336.522    -2186832.657 6  -1665130.84122        19.500           1.781
  22460768.928    -8708899.119 6  -6710335.20421        17.750           1.031
  21759722.459   -13684914.712 7 -10521831.83022        20.000           1.750
  23188536.732    -5012220.890 5  -3750538.11221        10.250           0.531
  23237034.264    -5062309.527 5  -3771475.72421         9.250           0.344
 91  6  3 18  0 29.9980000  0  6G18G19G11G 2G16G 6
  21513860.186     5248908.615 7   4082402.41822        20.500           1.750
  20353003.295    -2188583.005 6  -1666494.76222        19.500           1.781
  22457529.717    -8725912.713 6  -6723592.52821        17.500           1.063
  21751083.404   -13730317.694 7 -10557210.73422        20.500           1.813
  23185896.764    -5026099.247 5  -3761352.43721        10.000           0.531
  23228693.795    -5106144.890 5  -3805633.11621         9.500           0.344
 91  6  3 18  0 44.9980000  0  6G18G19G11G 2G16G 6
  21520097.201     5281691.382 7   4107947.36022        20.250           1.688
  20352680.350    -2190276.319 6  -1667814.24322        19.500           1.781
  22454322.092    -8742775.175 6  -6736732.09421        17.500           1.094
  21742457.420   -13775648.751 7 -10592533.58922        20.500           1.781
  23183281.568    -5039841.088 5  -3772060.37521        10.000           0.469
  23220352.240    -5149965.845 5  -3839779.28821         9.250           0.344
 91  6  3 18  0 59.9980000  0  6G18G19G11G 2G16G 6
  21526351.053     5314555.102 7   4133555.37222        20.250           1.563
  20352369.295    -2191915.458 6  -1669091.51022        19.750           1.781
  22451141.795    -8759489.198 6  -6749755.99921        17.750           1.063
  21733843.795   -13820910.542 7 -10627802.47222        20.000           1.844
  23180693.350    -5053449.375 5  -3782664.26221        10.500           0.531
  23212018.053    -5193775.325 5  -3873916.49921         9.500           0.500
 91  6  3 18  1 14.9980000  0  6G18G19G11G 2G16G 6
  21532620.717     5347498.194 7   4159225.23422        20.500           1.625
  20352067.803    -2193501.895 6  -1670327.70622        19.750           1.750
  22447989.209    -8776056.339 6  -6762665.44221        17.500           1.063
  21725241.912   -13866104.745 6 -10663018.69322        19.250           1.813
  23178127.818    -5066925.807 5  -3793165.39721        10.500           0.500
  23203680.889    -5237574.994 5  -3908046.07721         9.500           0.375
 91  6  3 18  1 29.9980000  0  6G18G19G11G 2G16G 6
  21538906.006     5380527.494 7   4184962.27322        20.250           1.594
  20351776.092    -2195028.452 7  -1671517.25022        20.500           1.875
  22444864.553    -8792469.359 6  -6775454.78921        17.500           1.000
  21716657.537   -13911224.054 6 -10698176.55422        19.500           1.844
  23175588.982    -5080262.828 5  -3803557.89021        10.500           0.438
  23195349.357    -5281357.739 5  -3942162.46021         9.500           0.563
 91  6  3 18  1 44.9980000  0  6G18G19G11G 2G16G 6
  21545206.928     5413638.375 7   4210762.87922        20.250           1.500
  20351496.615    -2196499.582 7  -1672663.58622        20.000           1.781
  22441769.951    -8808732.590 6  -6788127.43021        17.000           1.031
  21708084.998   -13956272.741 6 -10733279.38222        19.750           1.875
  23173079.389    -5093465.470 5  -3813845.69721        10.750           0.469
  23187018.256    -5325128.030 5  -3976269.14121         9.500           0.469
 91  6  3 18  1 59.9980000  0  6G18G19G11G 2G16G 6
  21551523.529     5446837.287 7   4236632.08822        20.250           1.563
  20351230.490    -2197908.469 6  -1673761.43022        19.250           1.875
  22438705.537    -8824839.198 6  -6800678.01721        17.250           1.094
  21699527.084   -14001244.072 7 -10768321.94422        20.000           1.875
  23170593.709    -5106526.715 5  -3824023.32021        10.250           0.500
  23178695.217    -5368879.123 5  -4010360.87321         9.750           0.406
 91  6  3 18  2 14.9980000  0  6G18G19G11G 2G16G 6
  21557856.568     5480115.681 7   4262563.22422        20.250           1.531
  20350971.748    -2199263.305 6  -1674817.15922        19.750           1.875
  22435668.607    -8840797.251 6  -6813112.86121        17.250           1.031
  21690981.873   -14046146.033 7 -10803310.44222        20.000           1.875
  23168134.193    -5119455.173 5  -3834097.45021        10.000           0.531
  23170367.678    -5412619.284 5  -4044444.08821         9.500           0.438
 91  6  3 18  2 29.9980000  0  6G18G19G11G 2G16G 6
  21564208.123     5513480.013 7   4288561.32422        20.500           1.594
  20350725.951    -2200557.470 6  -1675825.60822        19.500           1.875
  22432661.928    -8856599.904 6  -6825426.60221        17.250           1.063
  21682451.654   -14090972.066 7 -10838239.77622        20.000           1.844
  23165698.607    -5132243.865 5  -3844062.68521         9.750           0.469
  23162047.061    -5456341.758 5  -4078513.51121         9.750           0.469
 91  6  3 18  2 44.9980000  0  6G18G19G11G 2G16G 6
  21570570.826     5546922.468 7   4314620.29822        20.250           1.719
  20350489.311    -2201798.703 6  -1676792.81422        19.250           1.938
  22429682.350    -8872255.025 6  -6837625.38021        17.500           0.969
  21673935.818   -14135729.881 7 -10873115.95622        20.250           1.906
  23163289.397    -5144900.779 5  -3853925.23921        10.000           0.563
  23153731.717    -5500054.369 5  -4112575.26421        10.250           0.469
 91  6  3 18  2 59.9980000  0  6G18G19G11G 2G16G 6
  21576949.256     5580443.241 7   4340740.30822        20.000           1.563
  20350261.115    -2202986.132 6  -1677718.09222        19.500           1.938
  22426731.443    -8887761.657 6  -6849708.46121        17.250           1.031
  21665431.459   -14180418.636 7 -10907938.32122        20.500           1.969
  23160905.311    -5157425.146 5  -3863684.49421        10.000           0.531
  23145418.889    -5543756.400 5  -4146628.75821        10.500           0.500
 91  6  3 18  3 14.9980000  0  6G18G19G11G 2G16G 6
  21583343.475     5614046.818 7   4366924.82922        20.250           1.500
  20350048.568    -2204115.086 6  -1678597.80522        19.250           1.938
  22423809.522    -8903115.029 6  -6861672.11521        17.500           1.125
  21656940.865   -14225033.612 7 -10942703.19722        20.500           1.938
  23158548.131    -5169812.447 5  -3873336.97321        10.000           0.438
  23137103.287    -5587443.326 5  -4180670.47921        10.500           0.469
 91  6  3 18  3 29.9980000  0  6G18G19G11G 2G16G 6
  21589753.404     5647729.005 7   4393170.61221        20.000           1.469
  20349842.514    -2205189.746 6  -1679435.21122        19.500           1.875
  22420917.084    -8918319.313 6  -6873519.60721        17.000           0.969
  21648464.592   -14269578.953 7 -10977413.81322        20.500           1.875
  23156220.022    -5182066.957 5  -3882885.96721        10.500           0.438
  23128793.350    -5631119.317 5  -4214703.70021        10.500           0.344
 91  6  3 18  3 44.9980000  0  6G18G19G11G 2G16G 6
  21596179.529     5681495.165 7   4419481.82722        20.000           1.531
  20349650.037    -2206204.436 6  -1680225.89022        19.000           1.781
  22418053.662    -8933368.709 6  -6885246.39721        17.250           1.094
  21640001.693   -14314048.764 7 -11012065.57922        20.500           1.875
  23153914.443    -5194183.051 5  -3892327.10021        10.750           0.500
  23120486.045    -5674778.678 5  -4248723.94821        10.250           0.500
 91  6  3 18  3 59.9980000  0  6G18G19G11G 2G16G 6
  21602618.748     5715339.849 6   4445854.23021        19.750           1.469
  20349468.967    -2207164.371 6  -1680973.90222        19.000           1.906
  22415218.936    -8948268.291 6  -6896856.45721        17.500           1.031
  21631551.076   -14358448.258 7 -11046662.55122        20.250           1.844
  23151633.498    -5206166.042 5  -3901664.52821        10.750           0.500
  23112179.123    -5718426.676 5  -4282735.35321        10.000           0.469
 91  6  3 18  4 14.9980000  0  6G18G19G11G 2G16G 6
  21609076.365     5749267.987 7   4472291.65522        20.500           1.500
  20349296.256    -2208064.125 6  -1681675.01922        19.500           1.938
  22412411.928    -8963012.714 6  -6908345.60621        16.750           1.000
  21623117.373   -14402772.096 7 -11081200.56722        20.000           1.750
  23149377.100    -5218010.867 5  -3910894.27021        10.500           0.563
  23103874.201    -5762057.984 5  -4316733.74421        10.000           0.500
 91  6  3 18  4 29.9980000  0  6G18G19G11G 2G16G 6
  21615546.264     5783270.525 7   4498787.05822        20.250           1.531
  20349133.584    -2208912.542 6  -1682336.13122        19.750           1.813
  22409634.756    -8977610.640 6  -6919720.60021        17.000           1.031
  21614695.178   -14447028.960 7 -11115686.39922        20.250           1.875
  23147147.225    -5229726.157 5  -3920023.09721        10.250           0.531
  23095573.990    -5805681.408 5  -4350726.00821        10.250           0.500
 91  6  3 18  4 44.9980000  0  6G18G19G11G 2G16G 6
  21622031.225     5817351.304 6   4525343.42522        19.750           1.500
  20348983.967    -2209705.645 6  -1682954.14622        19.500           1.844
  22406885.248    -8992058.135 6  -6930978.38221        16.500           0.906
  21606287.959   -14491214.835 7 -11150116.91422        20.500           1.875
  23144944.318    -5241307.944 5  -3929047.90221        10.250           0.500
  23087273.709    -5849293.026 5  -4384709.06221        10.250           0.594
 91  6  3 18  4 59.9980000  0  6G18G19G11G 2G16G 6
  21628530.982     5851511.990 6   4551962.07422        19.250           1.500
  20348844.873    -2210441.195 6  -1683527.31422        19.500           1.938
  22404163.967    -9006352.977 6  -6942117.22121        16.750           1.000
  21597893.068   -14535327.750 7 -11184490.57222        20.250           1.906
  23142766.225    -5252754.416 5  -3937967.25121        10.250           0.500
  23078980.170    -5892890.881 5  -4418681.38621        10.750           0.406
 91  6  3 18  5 14.9980000  0  6G18G19G11G 2G16G 6
  21635047.748     5885751.975 6   4578642.49021        19.500           1.469
  20348715.787    -2211119.849 6  -1684056.14722        19.750           1.875
  22401473.256    -9020495.781 6  -6953137.58121        16.500           0.906
  21589511.326   -14579368.230 7 -11218807.79522        20.250           1.844
  23140613.053    -5264066.066 5  -3946781.55121        10.250           0.500
  23070687.647    -5936475.540 5  -4452643.44321        10.500           0.469
 91  6  3 18  5 29.9980000  0  6G18G19G11G 2G16G 6
  21641579.568     5920072.011 7   4605385.29422        20.000           1.594
  20348596.404    -2211740.356 6  -1684539.66722        19.750           1.906
  22398811.912    -9034485.266 6  -6964038.46421        16.500           1.000
  21581146.240   -14623334.951 7 -11253067.53722        20.500           1.906
  23138487.123    -5275241.838 5  -3955489.98621        10.250           0.500
  23062392.717    -5980045.949 5  -4486594.38921        10.250           0.469
 91  6  3 18  5 44.9980000  0  6G18G19G11G 2G16G 6
  21648125.232     5954471.691 7   4632190.15321        20.000           1.406
  20348489.982    -2212303.147 6  -1684978.21622        19.250           1.875
  22396178.186    -9048321.688 6  -6974820.08821        16.500           1.063
  21572794.881   -14667228.064 7 -11287269.92222        20.250           1.875
  23136386.857    -5286282.361 5  -3964093.01921        10.500           0.500
  23054101.662    -6023602.391 5  -4520534.46821        10.500           0.500
 91  6  3 18  5 59.9980000  0  6G18G19G11G 2G16G 6
  21654686.295     5988950.706 6   4659056.83521        19.500           1.375
  20348395.342    -2212808.096 6  -1685371.68922        19.000           1.906
  22393575.092    -9062004.886 6  -6985482.30621        17.000           1.063
  21564454.209   -14711047.418 6 -11321414.83822        19.750           1.813
  23134310.006    -5297187.546 5  -3972590.59421        10.750           0.375
  23045818.615    -6067144.713 5  -4554463.53021        11.000           0.500
 91  6  3 18  6 14.9980000  0  6G18G19G11G 2G16G 6
  21661262.022     6023507.710 6   4685984.28521        19.500           1.438
  20348308.561    -2213256.255 6  -1685720.91222        19.500           1.906
  22390999.795    -9075535.924 6  -6996025.97121        16.750           0.969
  21556130.404   -14754794.328 7 -11355503.29722        20.000           1.875
  23132262.709    -5307958.637 5  -3980983.68521        10.250           0.438
  23037538.576    -6110674.165 5  -4588382.56521        10.750           0.469
 91  6  3 18  6 29.9980000  0  6G18G19G11G 2G16G 6
  21667851.639     6058143.254 6   4712972.93821        19.250           1.438
  20348235.686    -2213646.835 6  -1686025.26922        19.750           1.969
  22388454.107    -9088913.887 6  -7006450.34821        17.000           0.969
  21547818.998   -14798467.800 7 -11389534.53922        20.000           1.906
  23130243.482    -5318595.060 5  -3989271.82821        10.750           0.406
  23029255.537    -6154189.887 5  -4622290.89121        10.250           0.500
 91  6  3 18  6 44.9980000  0  6G18G19G11G 2G16G 6
  21674456.990     6092856.588 6   4740022.20321        19.000           1.438
  20348171.115    -2213980.311 7  -1686285.12822        20.000           1.875
  22385938.334    -9102139.148 6  -7016755.73921        17.500           1.063
  21539521.857   -14842068.307 7                        20.250
  23128240.357    -5329097.019 5  -3997455.20421        10.250           0.313
  23020977.928    -6197692.397 5                        10.000
 91  6  3 18  6 59.9980000  0  6G18G19G11G 2G16G 6
  21681079.787     6127648.637 6   4767132.80622        19.250           1.500
  20348117.506    -2214255.274 7  -1686499.39622        20.250           1.938
  22383450.311    -9115210.587 6  -7026941.26621        17.250           0.938
  21531239.631   -14885594.614 7                        20.500
  23126263.982    -5339463.613 5  -4005533.09621        10.500           0.406
  23012706.326    -6241180.674 5                        10.250
 91  6  3 18  7 14.9980000  0  6G18G19G11G 2G16G 6
  21687714.631     6162518.897 6   4794304.35121        19.000           1.438
  20348077.350    -2214472.122 6  -1686668.38022        19.500           1.938
  22380990.326    -9128128.413 6  -7037007.09221        17.500           0.969
  21522971.373   -14929046.919 7                        20.250
  23124316.631    -5349694.983 5  -4013505.62321        10.000           0.500
  23004430.209    -6284654.934 5                        10.250
 91  6  3 18  7 29.9980000  0  6G18G19G11G 2G16G 6
  21694365.865     6197471.423 6   4821539.99721        18.750           1.469
  20348048.006    -2214626.603 7                        20.000
  22378563.287    -9140888.405 6  -7046949.94121        17.750           0.906
  21514717.115   -14972420.939 7 -11525082.28822        20.250           1.875
  23122401.904    -5359786.963 5  -4021369.54021        10.000           0.469
  22996158.584    -6328111.032 5  -4757813.77721        10.250           0.438
 91  6  3 18  7 44.9980000  0  6G18G19G11G 2G16G 6
  21701032.232     6232500.699 6   4848835.45621        18.750           1.344
  20348030.357    -2214723.762 6                        19.750
  22376164.186    -9153495.425 6  -7056773.58821        17.750           1.000
  21506477.662   -15015721.675 7 -11558823.08622        20.500           2.031
  23120503.826    -5369744.912 5  -4029129.00921        10.250           0.563
  22987889.014    -6371553.942 5  -4791665.36821         9.750           0.313
 91  6  3 18  7 59.9980000  0  6G18G19G11G 2G16G 6
  21707711.967     6267605.247 6   4876189.55821        19.000           1.469
  20348020.732    -2214765.044 7                        20.000
  22373795.295    -9165950.847 6  -7066479.10821        18.000           1.000
  21498251.928   -15058950.639 7 -11592507.95622        20.500           1.969
  23118634.490    -5379570.632 5  -4036785.45021        10.250           0.438
  22979624.404    -6414985.241 5  -4825507.94621        10.000           0.531
 91  6  3 18  8 14.9980000  0  6G18G19G11G 2G16G 6
  21714407.928     6302785.678 6   4903602.79321        19.000           1.313
  20348025.756    -2214749.680 6                        19.750
  22371453.795    -9178253.863 6  -7076065.86621        17.250           0.875
  21490040.061   -15102106.955 7 -11626136.21122        20.500           2.063
  23116791.982    -5389263.210 5  -4044338.13221        10.250           0.375
  22971361.412    -6458404.195 5  -4859340.85021        10.000           0.406
 91  6  3 18  8 29.9980000  0  6G18G19G11G 2G16G 6
  21721117.467     6338045.916 6   4931078.21321        19.000           1.375
  20348039.154    -2214673.306 7                        20.000
  22369141.256    -9190400.108 6  -7085530.46421        17.250           1.031
  21481841.131   -15145186.128 7 -11659704.36422        20.250           2.063
  23114970.701    -5398818.486 5  -4051783.83221         9.750           0.406
  22963105.326    -6501806.337 5  -4893160.68421        10.250           0.438
 91  6  3 18  8 44.9980000  0  6G18G19G11G 2G16G 6
  21727840.623     6373378.738 6   4958610.19121        18.750           1.344
  20348062.951    -2214542.771 6                        19.750
  22366858.607    -9202396.480 6  -7094878.28121        17.250           1.063
  21473656.615   -15188195.016 7 -11693217.74322        20.250           2.125
  23113177.397    -5408243.387 5  -4059127.95521        10.000           0.469
  22954848.850    -6545198.683 5  -4926972.88021         9.750           0.438
 91  6  3 18  8 59.9980000  0  6G18G19G11G 2G16G 6
  21734580.154     6408787.057 6   4986200.99921        19.000           1.344
  20348097.701    -2214354.860 7                        20.000
  22364604.740    -9214239.777 6  -7104106.81821        17.250           1.063
  21465485.826   -15231130.481 7 -11726673.91122        20.250           2.188
  23111411.217    -5417534.565 5  -4066367.85221        10.500           0.438
  22946590.397    -6588578.205 5  -4960775.07521         9.750           0.469
 91  6  3 18  9 14.9980000  0  6G18G19G11G 2G16G 6
  21741331.006     6444266.286 6   5013847.06821        19.000           1.313
  20348145.123    -2214113.930 6                        19.500
  22362380.654    -9225934.352 6  -7113219.47621        17.500           1.063
  21457329.654   -15273996.805 7 -11760076.20422        20.750           2.250
  23109668.693    -5426696.660 5  -4073507.18821        10.500           0.375
  22938334.670    -6631949.095 5  -4994570.54921         9.750           0.469
 91  6  3 18  9 29.9980000  0  6G18G19G11G 2G16G 6
  21748096.904     6479823.668 6   5041554.02921        18.750           1.438
  20348201.451    -2213812.350 6  -1686154.36122        19.500           1.875
  22360184.443    -9237472.558 6  -7122210.28521        17.000           1.063
  21449186.693   -15316786.366 7 -11793418.67822        20.750           2.188
  23107950.279    -5435722.380 5  -4080540.25121        10.000           0.406
  22930089.100    -6675304.004 5  -5028353.57221        10.500           0.594
 91  6  3 18  9 44.9980000  0  6G18G19G11G 2G16G 6
  21754876.568     6515454.624 6   5069318.32821        18.250           1.438
  20348272.436    -2213454.548 6  -1685875.56722        19.250           2.000
  22358016.990    -9248858.801 6  -7131082.68021        16.750           1.094
  21441058.686   -15359503.601 7 -11826704.79422        21.250           2.281
  23106259.232    -5444616.389 5  -4087470.67921         9.750           0.406
  22921840.975    -6718647.228 5  -5062127.48521        10.500           0.531
 91  6  3 18  9 59.9980000  0  6G18G19G11G 2G16G 6
  21761670.537     6551155.664 6   5097137.22521        18.250           1.406
  20348348.154    -2213043.806 6  -1685555.51222        19.250           1.969
  22355879.318    -9260096.227 6  -7139839.11721        17.250           1.000
  21432942.990   -15402151.497 7 -11859936.88222        21.750           2.188
  23104586.904    -5453381.877 5  -4094300.96721         9.750           0.438
  22913594.795    -6761982.024 5  -5095894.82621        10.250           0.469
 91  6  3 18 10 14.9980000  0  6G18G19G11G 2G16G 6
  21768479.303     6586935.910 6   5125017.84521        18.000           1.281
  20348439.803    -2212570.533 6  -1685186.73222        19.000           1.969
  22353769.482    -9271175.255 6  -7148472.13121        17.000           1.125
  21424841.764   -15444720.678 7 -11893107.63522        21.750           2.313
  23102943.678    -5462009.347 5  -4101023.69021         9.750           0.313
  22905350.678    -6805298.971 5  -5129648.28321         9.750           0.438
 91  6  3 18 10 29.9980000  0  6G18G19G11G 2G16G 6
  21775304.490     6622796.677 6   5152961.21321        18.500           1.344
  20348542.600    -2212033.153 6  -1684768.00522        19.000           1.969
  22351691.897    -9282094.403 6  -7156980.55621        17.500           0.938
  21416755.607   -15487209.556 7 -11926215.82022        21.750           2.188
  23101330.092    -5470497.242 5  -4107637.67921         9.500           0.406
  22897112.811    -6848596.555 5  -5163386.62421        10.500           0.625
 91  6  3 18 10 44.9980000  0  6G18G19G11G 2G16G 6
  21782143.240     6658738.314 6   5180967.59821        18.500           1.344
  20348656.076    -2211431.249 6  -1684298.99422        18.750           2.000
  22349644.811    -9292853.135 6  -7165363.97521        17.250           1.094
  21408686.154   -15529617.735 7 -11959261.11822        21.750           2.344
  23099745.123    -5478845.616 5  -4114142.93621        10.000           0.344
  22888877.217    -6891874.287 5  -5197109.50121        10.250           0.563
 91  6  3 18 10 59.9980000  0  6G18G19G11G 2G16G 6
  21788997.045     6694750.782 6   5209029.17021        18.000           1.313
  20348779.943    -2210774.118 6  -1683786.94722        19.750           2.094
  22347625.576    -9303460.815 6  -7173629.69621        17.250           1.125
  21400630.100   -15571954.547 7 -11992250.80222        21.750           2.188
  23098181.342    -5487063.835 5  -4120546.77421         9.750           0.469
  22880646.248    -6935141.769 5  -5230824.40021        10.500           0.531
 91  6  3 18 11 14.9980000  0  6G18G19G11G 2G16G 6
  21795861.959     6730835.177 6   5237146.78221        17.750           1.281
  20348917.357    -2210060.456 6  -1683230.85722        19.000           2.094
  22345637.389    -9313916.252 6  -7181776.78821        17.750           1.188
  21392587.381   -15614218.657 7 -12025183.84022        21.750           2.313
  23096642.068    -5495150.480 5  -4126848.09721         9.500           0.438
  22872411.451    -6978397.692 5  -5264530.28921        10.750           0.406
 91  6  3 18 11 29.9980000  0  6G18G19G11G 2G16G 6
  21802743.295     6766994.201 6   5265322.55221        17.750           1.219
  20349064.482    -2209287.434 6  -1682628.51222        19.000           2.063
  22343677.498    -9324216.548 6  -7189802.99321        18.500           1.156
  21384558.850   -15656407.087 7 -12058057.90522        21.500           2.188
  23095127.498    -5503102.911 5  -4133044.82621         9.500           0.469
  22864184.186    -7021639.233 5  -5298224.97221        10.750           0.563
 91  6  3 18 11 44.9980000  0  6G18G19G11G 2G16G 6
  21809640.482     6803231.205 6   5293559.09321        18.000           1.375
  20349223.467    -2208451.795 6  -1681977.37722        19.000           2.063
  22341748.561    -9334358.362 6  -7197705.70621        18.500           1.094
  21376545.490   -15698516.569 7 -12090870.45722        21.500           2.313
  23093638.795    -5510917.896 5  -4139134.44121         9.500           0.344
  22855959.678    -7064863.093 5  -5331905.88021        11.000           0.563
 91  6  3 18 11 59.9980000  0  6G18G19G11G 2G16G 6
  21816549.076     6839535.969 6   5321848.42321        18.000           1.281
  20349389.764    -2207563.005 6  -1681284.81522        19.250           2.031
  22339845.787    -9344351.288 6  -7205492.40121        18.250           1.063
  21368545.701   -15740556.558 7 -12123628.85222        21.750           2.313
  23092180.342    -5518605.355 5  -4145124.69521         9.750           0.344
  22847736.740    -7108078.838 5  -5365580.46221        11.750           0.656
 91  6  3 18 12 14.9980000  0  6G18G19G11G 2G16G 6
  21823469.873     6875906.535 6   5350189.04021        17.750           1.219
  20349570.889    -2206622.684 6  -1680552.10622        19.000           2.000
  22337975.365    -9354196.996 6  -7213164.37421        18.500           1.125
  21360558.959   -15782528.900 7 -12156334.54022        21.750           2.281
  23090738.357    -5526167.122 5  -4151017.00521         9.750           0.375
  22839513.717    -7151288.183 5  -5399250.05221        11.250           0.531
 91  6  3 18 12 29.9980000  0  6G18G19G11G 2G16G 6
  21830402.537     6912335.821 6   5378575.39921        17.750           1.313
  20349757.889    -2205637.878 6  -1679784.73122        18.750           2.063
  22336126.592    -9363902.470 6  -7220727.07621        18.500           1.094
  21352583.553   -15824440.478 7 -12188992.88022        21.750           2.375
  23089326.506    -5533610.404 5  -4156817.01721        10.250           0.313
  22831291.022    -7194498.251 5  -5432920.21721        11.000           0.594
 91  6  3 18 12 44.9980000  0  6G18G19G11G 2G16G 6
  21837347.678     6948835.338 6   5407016.48621        17.250           1.313
  20349955.975    -2204596.438 6  -1678973.23222        18.750           1.969
  22334308.498    -9373455.567 6  -7228171.04921        18.750           1.031
  21344621.592   -15866278.968 7 -12221594.26422        22.000           2.250
  23087931.303    -5540923.356 5  -4162515.45421        10.000           0.375
  22823067.857    -7237696.861 5  -5466581.44821        11.000           0.531
 91  6  3 18 12 59.9980000  0  6G18G19G11G 2G16G 6
  21844306.365     6985406.493 6   5435513.40221        17.250           1.188
  20350165.865    -2203497.148 6  -1678116.64522        18.750           2.031
  22332518.670    -9382855.107 6  -7235495.36721        18.250           1.094
  21336673.248   -15908043.119 7 -12254137.72422        22.250           2.313
  23086563.287    -5548104.527 5  -4168111.20421         9.750           0.313
  22814852.100    -7280882.879 5  -5500232.85721        11.000           0.563
 91  6  3 18 13 14.9980000  0  6G18G19G11G 2G16G 6
  21851278.795     7022048.910 6   5464065.84221        17.500           1.344
  20350385.904    -2202339.807 6  -1677214.82522        18.750           2.000
  22330758.803    -9392100.746 6  -7242699.75721        18.000           1.000
  21328741.311   -15949732.896 7 -12286623.22922        22.500           2.438
  23085219.897    -5555153.721 5  -4173604.10721         9.500           0.375
  22806632.514    -7324056.078 5  -5533874.27421        10.750           0.531
 91  6  3 18 13 29.9980000  0  6G18G19G11G 2G16G 6
  21858265.436     7058756.590 6   5492669.13921        17.250           1.219
  20350616.412    -2201129.933 6  -1676272.07322        19.000           2.063
  22329028.084    -9401198.111 6  -7249788.60721        18.000           1.094
  21320820.459   -15991353.892 7 -12319055.14023        22.500           2.500
  23083903.772    -5562077.088 5  -4178998.96421         9.500           0.469
  22798421.061    -7367222.047 5  -5567510.07921        11.000           0.500
 91  6  3 18 13 44.9980000  0  6G18G19G11G 2G16G 6
  21865262.334     7095533.204 6   5521326.14621        17.250           1.250
  20350858.022    -2199863.842 6  -1675285.51622        18.750           2.063
  22327325.107    -9410143.416 6  -7256758.97121        17.750           1.000
  21312913.553   -16032902.242 7 -12351430.44622        22.500           2.375
  23082617.537    -5568870.860 5  -4184292.84721        10.000           0.438
  22790208.826    -7410377.075 5  -5601137.34521        11.000           0.438
 91  6  3 18 13 59.9980000  0  6G18G19G11G 2G16G 6
  21872275.631     7132383.097 6   5550040.25821        17.250           1.250
  20351107.740    -2198536.891 6  -1674251.53022        19.750           2.125
  22325652.068    -9418931.957 6  -7263607.18021        17.500           1.063
  21305021.865   -16074373.292 7 -12383745.51622        22.750           2.406
  23081347.209    -5575530.538 5  -4189482.24521        10.000           0.438
  22782001.631    -7453516.633 5  -5634752.56221        11.500           0.563
 91  6  3 18 14 14.9980000  0  6G18G19G11G 2G16G 6
  21879301.303     7169302.021 6   5578808.15521        17.750           1.219
  20351373.061    -2197153.035 6  -1673173.20622        19.000           2.000
  22324010.389    -9427567.920 6  -7270336.50021        17.750           1.000
  21297144.592   -16115770.941 7 -12416003.38922        22.750           2.375
  23080101.865    -5582060.093 5  -4194570.25221        10.000           0.344
  22773792.147    -7496644.664 5  -5668358.78221        11.000           0.625
 91  6  3 18 14 29.9980000  0  6G18G19G11G 2G16G 6
  21886339.334     7206284.826 6   5607625.83321        18.000           1.188
  20351647.818    -2195717.172 6  -1672054.35922        18.500           2.094
  22322394.240    -9436056.190 6  -7276950.72921        18.000           1.094
  21289280.428   -16157100.103 7 -12448207.90022        22.750           2.250
  23078882.092    -5588464.662 5  -4199560.84921        10.000           0.438
  22765587.232    -7539766.180 5  -5701959.93021        11.000           0.594
 91  6  3 18 14 44.9980000  0  6G18G19G11G 2G16G 6
  21893390.561     7243337.030 6   5636497.59021        18.000           1.219
  20351929.842    -2194223.502 6  -1670890.46922        19.000           2.125
  22320808.912    -9444390.944 6  -7283445.33921        17.750           0.969
  21281429.147   -16198355.041 7 -12480354.57622        22.750           2.219
  23077687.365    -5594738.878 5  -4204449.88021         9.500           0.313
  22757383.092    -7582875.470 5  -5735551.55321        10.500           0.531
 91  6  3 18 14 59.9980000  0  6G18G19G11G 2G16G 6
  21900454.381     7280454.543 6   5665420.23121        17.500           1.188
  20352225.662    -2192675.916 6  -1669684.56422        19.000           2.094
  22319251.865    -9452576.052 6  -7289823.33621        17.750           1.063
  21273591.334   -16239539.751 7 -12512446.52522        23.000           2.313
  23076521.600    -5600886.466 5  -4209240.22621         9.750           0.375
  22749182.076    -7625976.289 5  -5769136.58321        10.750           0.500
 91  6  3 18 15 14.9980000  0  6G18G19G11G 2G16G 6
  21907529.170     7317640.021 6   5694395.83621        17.500           1.063
  20352530.592    -2191071.257 6  -1668434.18722        18.500           2.188
  22317723.264    -9460608.484 6  -7296082.37321        18.000           1.063
  21265768.545   -16280650.927 7 -12544481.17722        23.000           2.281
  23075374.756    -5606904.537 5  -4213929.67321         9.500           0.406
  22740981.943    -7669065.647 5  -5802712.66421        10.750           0.594
 91  6  3 18 15 29.9980000  0  6G18G19G11G 2G16G 6
  21914618.592     7354894.958 6   5723425.56521        17.500           1.125
  20352846.623    -2189407.584 6  -1667137.82222        18.750           2.125
  22316223.889    -9468486.507 6  -7302221.08621        18.000           1.063
  21257960.436   -16321686.545 7 -12576456.95422        23.250           2.281
  23074255.873    -5612791.480 5  -4218516.91521         9.500           0.313
  22732782.686    -7712141.724 5  -5836278.41021        10.750           0.625
 91  6  3 18 15 44.9980000  0  6G18G19G11G 2G16G 6
  21921722.522     7392216.978 6   5752507.57321        17.500           1.094
  20353175.193    -2187687.213 6  -1665797.28022        18.500           2.031
  22314752.850    -9476212.374 6  -7308241.23021        18.000           1.000
  21250164.779   -16362649.039 7 -12608375.75422        23.000           2.281
  23073159.170    -5618549.753 5  -4223003.93121         9.500           0.375
  22724590.873    -7755206.824 5  -5869835.59921        11.000           0.594
 91  6  3 18 15 59.9980000  0  6G18G19G11G 2G16G 6
  21928836.412     7429606.091 6   5781641.85321        17.500           1.156
  20353511.756    -2185909.892 6  -1664412.36222        18.500           2.125
  22313312.162    -9483785.796 6  -7314142.58621        18.250           1.188
  21242384.459   -16403538.255 7 -12640237.44922        23.250           2.250
  23072089.475    -5624179.255 5  -4227390.56821         9.500           0.406
  22716394.311    -7798260.772 5  -5903384.09621        11.000           0.594
 91  6  3 18 16 14.9980000  0  6G18G19G11G 2G16G 6
  21935963.740     7467060.679 6   5810827.14821        17.500           1.219
  20353861.350    -2184076.624 6  -1662983.84922        18.250           2.094
  22311901.076    -9491207.910 6  -7319926.04321        17.750           1.031
  21234615.818   -16444355.036 7 -12672042.70522        23.250           2.219
  23071042.373    -5629681.011 5  -4231677.68121        10.000           0.344
  22708205.053    -7841304.602 5  -5936924.70421        11.000           0.563
 91  6  3 18 16 29.9980000  0  6G18G19G11G 2G16G 6
  21943103.943     7504574.455 6   5840058.55621        17.500           1.219
  20354220.232    -2182193.393 6  -1661516.40322        18.000           2.094
  22310514.514    -9498484.566 6  -7325596.15221        18.250           1.156
  21226863.451   -16485105.275 7 -12703796.10422        23.500           2.281
  23070016.592    -5635061.317 5  -4235870.16321        10.250           0.469
  22700014.615    -7884344.218 5  -5970462.03621        11.000           0.594
 91  6  3 18 16 44.9980000  0  6G18G19G11G 2G16G 6
  21950255.600     7542161.272 6   5869346.89221        17.500           1.219
  20354590.623    -2180246.318 6  -1659999.21122        18.250           2.094
  22309160.545    -9505601.908 6  -7331142.12121        18.250           1.000
  21219124.303   -16525775.082 7 -12735486.83722        24.000           2.344
  23069018.498    -5640306.370 5  -4239957.23121         9.750           0.438
  22691827.943    -7927365.857 5  -6003985.34821        10.750           0.625
 91  6  3 18 16 59.9980000  0  6G18G19G11G 2G16G 6
  21957418.350     7579803.748 6   5898678.60021        17.250           1.188
  20354968.342    -2178252.466 6  -1658445.56822        18.500           2.031
  22307833.678    -9512577.128 6  -7336577.34421        18.000           1.156
  21211395.811   -16566381.560 7 -12767128.22222        23.000           2.313
  23068047.287    -5645433.454 5  -4243952.40221        10.250           0.375
  22683640.100    -7970386.606 5  -6037507.98221        11.000           0.563
 91  6  3 18 17 14.9980000  0  6G18G19G11G 2G16G 6
  21964596.334     7617519.412 6   5928067.33121        17.000           1.031
  20355360.607    -2176194.138 6  -1656841.68322        18.250           2.125
  22306537.248    -9519392.472 6  -7341887.99621        18.250           1.281
  21203684.029   -16606906.967 7 -12798706.44122        23.000           2.344
  23067095.248    -5650425.197 5  -4247842.10321        10.000           0.344
  22675461.568    -8013388.764 5  -6071016.12521        11.500           0.688
 91  6  3 18 17 29.9980000  0  6G18G19G11G 2G16G 6
  21971784.420     7655294.198 6   5957502.13221        16.500           1.156
  20355762.131    -2174084.765 6  -1655198.02422        18.500           2.156
  22305268.740    -9526061.522 6  -7347084.64321        18.250           1.188
  21195984.826   -16647364.925 7 -12830232.08922        22.500           2.469
  23066167.443    -5655294.885 5  -4251636.67221        10.000           0.344
  22667275.842    -8056385.912 5  -6104520.34921        11.750           0.500
 91  6  3 18 17 44.9980000  0  6G18G19G11G 2G16G 6
  21978985.022     7693135.064 6   5986988.42521        16.500           1.000
  20356175.459    -2171917.261 6  -1653509.06322        18.250           2.094
  22304027.920    -9532577.074 6  -7352161.69321        18.250           1.188
  21188300.014   -16687748.216 7 -12861699.56022        22.500           2.469
  23065266.576    -5660035.852 5  -4255330.97521        10.250           0.313
  22659099.123    -8099370.850 6  -6138015.07821        12.250           0.594
 91  6  3 18 17 59.9980000  0  6G18G19G11G 2G16G 6
  21986198.248     7731039.892 6   6016524.56021        16.750           1.000
  20356597.412    -2169693.390 6  -1651776.18322        18.750           2.063
  22302817.037    -9538940.994 6  -7357120.58021        17.750           1.125
  21180628.889   -16728058.582 7 -12893110.20723        22.500           2.531
  23064385.686    -5664649.867 5  -4258926.33821        10.250           0.344
  22650920.537    -8142345.456 6  -6171501.73821        12.000           0.563
 91  6  3 18 18 14.9980000  0  6G18G19G11G 2G16G 6
  21993423.053     7769010.529 6   6046111.98321        16.750           1.031
  20357033.943    -2167411.256 6  -1649997.90522        18.750           2.063
  22301634.092    -9545151.529 6  -7361959.94321        18.000           1.125
  21172972.076   -16768294.198 7 -12924462.60522        22.000           2.406
  23063532.725    -5669135.111 5  -4262421.36021        10.000           0.344
  22642744.990    -8185307.885 6  -6204978.91821        12.250           0.563
 91  6  3 18 18 29.9980000  0  6G18G19G11G 2G16G 6
  22000660.795     7807038.906 6   6075744.38021        16.750           0.969
  20357477.498    -2165078.726 6  -1648180.36122        18.250           2.063
  22300480.186    -9551216.505 6  -7366685.88621        17.750           1.188
  21165328.693   -16808462.774 7 -12955762.76022        22.000           2.469
  23062703.686    -5673499.786 5  -4265822.41921        10.500           0.438
  22634568.514    -8228265.913 6  -6238452.67521        12.500           0.594
 91  6  3 18 18 44.9980000  0  6G18G19G11G 2G16G 6
  22007908.436     7845130.492 6   6105426.04621        16.250           0.938
  20357933.193    -2162689.877 6  -1646318.93322        18.750           2.031
  22299353.076    -9557130.072 6  -7371293.85321        17.500           1.156
  21157699.740   -16848558.503 7 -12987006.15522        22.500           2.406
  23061894.975    -5677738.145 5  -4269125.07021        10.750           0.438
  22626394.076    -8271213.798 6  -6271918.51921        12.250           0.594
 91  6  3 18 18 59.9980000  0  6G18G19G11G 2G16G 6
  22015169.490     7883281.628 6   6135154.10321        16.500           0.969
  20358396.326    -2160247.517 6  -1644415.80222        18.750           2.125
  22298256.857    -9562895.271 6  -7375786.20721        17.500           1.156
  21150083.131   -16888584.407 7 -13018195.14022        22.250           2.375
  23061113.834    -5681853.378 5  -4272331.76221        10.250           0.375
  22618222.459    -8314154.470 6  -6305378.75421        12.000           0.563
 91  6  3 18 19 14.9980000  0  6G18G19G11G 2G16G 6
  22022441.506     7921496.642 6   6164931.94221        16.250           1.031
  20358872.006    -2157747.182 6  -1642467.50122        19.000           2.031
  22297190.662    -9568507.628 6  -7380159.46121        17.750           1.188
  21142479.326   -16928535.892 7 -13049326.14022        22.250           2.375
  23060355.990    -5685841.021 5  -4275439.02321        10.000           0.406
  22610052.170    -8357083.429 5  -6338829.86021        11.750           0.594
 91  6  3 18 19 29.9980000  0  6G18G19G11G 2G16G 6
  22029724.084     7959775.266 6   6194759.34521        16.000           1.031
  20359356.295    -2155189.231 6  -1640474.30022        18.750           2.156
  22296151.357    -9573967.494 6  -7384413.89221        17.750           1.063
  21134890.857   -16968413.234 7 -13080399.36622        22.500           2.438
  23059621.404    -5689701.828 5  -4278447.48421        10.250           0.375
  22601887.139    -8400000.999 6  -6372272.09221        12.000           0.594
 91  6  3 18 19 44.9980000  0  6G18G19G11G 2G16G 6
  22037020.482     7998115.810 6   6224634.98721        16.250           1.000
  20359855.779    -2152575.168 6  -1638437.37322        18.500           2.188
  22295140.529    -9579276.450 6  -7388550.72921        17.500           1.094
  21127317.162   -17008217.904 7 -13111415.96622        23.000           2.406
  23058908.436    -5693437.306 5  -4281358.26821        10.250           0.375
  22593723.506    -8442908.776 6  -6405706.68421        12.750           0.594
 91  6  3 18 19 59.9980000  0  6G18G19G11G 2G16G 6
  22044329.311     8036520.511 6   6254560.63021        16.250           0.938
  20360364.576    -2149902.159 6  -1636354.52122        18.750           2.000
  22294159.670    -9584431.725 6  -7392567.81921        17.500           0.969
  21119757.647   -17047947.056 7 -13142373.71822        23.000           2.469
  23058222.748    -5697044.895 5  -4284169.40721        10.000           0.406
  22585561.904    -8485804.026 6  -6439131.52321        12.750           0.531
 91  6  3 18 20 14.9980000  0  6G18G19G11G 2G16G 6
  22051649.123     8074987.256 6   6284534.62221        16.250           0.969
  20360884.154    -2147171.945 6  -1634227.09122        18.500           2.031
  22293207.412    -9589435.144 6  -7396466.57321        17.750           0.969
  21112210.459   -17087602.519 7 -13173274.05423        22.500           2.500
  23057559.350    -5700526.679 5  -4286882.51121        10.000           0.406
  22577399.889    -8528688.540 6  -6472547.97921        12.750           0.625
 91  6  3 18 20 29.9980000  0  6G18G19G11G 2G16G 6
  22058981.248     8113519.420 6   6314559.58121        16.000           1.000
  20361415.389    -2144381.059 6  -1632052.38922        18.750           2.188
  22292285.412    -9594283.158 6  -7400244.23821        17.750           1.063
  21104678.428   -17127180.748 7 -13204114.20423        22.750           2.500
  23056924.678    -5703878.852 5  -4289494.60621        10.250           0.344
  22569244.764    -8571558.651 6  -6505953.23021        12.750           0.563
 91  6  3 18 20 44.9980000  0  6G18G19G11G 2G16G 6
  22066323.951     8152107.396 6   6344628.03421        15.750           1.125
  20361955.092    -2141538.427 6  -1629837.36122        18.250           2.063
  22291390.850    -9598984.930 6  -7403907.93421        18.750           1.000
  21097159.404   -17166690.728 7 -13234901.17923        22.250           2.500
  23056309.256    -5707111.178 5  -4292013.32921        10.000           0.313
  22561087.123    -8614423.501 6  -6539354.37221        12.500           0.594
 91  6  3 18 20 59.9980000  0  6G18G19G11G 2G16G 6
  22073680.561     8190761.533 6   6374748.03521        15.750           1.063
  20362507.459    -2138633.642 6  -1627573.90222        18.500           2.125
  22290525.498    -9603530.162 6  -7407449.66321        18.250           1.063
  21089657.311   -17206122.168 7 -13265626.94723        22.500           2.594
  23055719.654    -5710213.217 5  -4294430.53321        10.000           0.438
  22552932.037    -8657272.847 6  -6572743.42421        12.250           0.625
 91  6  3 18 21 14.9980000  0  6G18G19G11G 2G16G 6
  22081046.131     8229472.366 6   6404912.21721        15.750           1.000
  20363070.967    -2135675.802 6  -1625269.10322        18.250           2.188
  22289690.092    -9607927.892 6  -7410876.46321        18.750           1.125
  21082166.529   -17245484.012 7 -13296298.47923        22.500           2.656
  23055149.381    -5713194.426 5  -4296753.57621        10.250           0.344
  22544777.709    -8700115.642 6  -6606127.39421        12.500           0.500
 91  6  3 18 21 29.9980000  0  6G18G19G11G 2G16G 6
  22088425.115     8268243.190 6   6435123.14221        16.000           1.031
  20363644.865    -2132661.350 6  -1622920.19322        19.000           2.094
  22288879.732    -9612174.733 6  -7414185.67021        18.750           1.063
  21074690.420   -17284772.650 7 -13326912.97123        22.500           2.625
  23054602.693    -5716051.167 5  -4298979.61321        10.000           0.375
  22536624.389    -8742948.456 6  -6639503.57121        12.000           0.625
 91  6  3 18 21 44.9980000  0  6G18G19G11G 2G16G 6
  22095814.584     8307073.005 6   6465380.03921        15.750           1.063
  20364230.553    -2129591.163 6  -1620527.85022        18.750           2.031
  22288101.154    -9616271.581 6  -7417378.00821        18.500           1.031
  21067227.443   -17323989.074 7 -13357471.18923        22.750           2.594
  23054084.217    -5718784.475 5  -4301109.48621        10.500           0.375
  22528477.615    -8785772.045 6  -6672872.56921        12.000           0.719
 91  6  3 18 21 59.9980000  0  6G18G19G11G 2G16G 6
  22103215.217     8345966.067 6   6495686.21821        15.750           1.000
  20364824.334    -2126460.458 6  -1618088.34922        19.250           2.031
  22287351.561    -9620213.814 6  -7420449.87021        18.750           1.188
  21059778.779   -17363128.688 7 -13387969.56023        22.500           2.656
  23053589.147    -5721389.867 5  -4303139.68521        10.500           0.375
  22520330.100    -8828581.898 6  -6706230.85421        12.000           0.594
 91  6  3 18 22 14.9980000  0  6G18G19G11G 2G16G 6
  22110627.357     8384916.346 6   6526036.97521        15.500           1.000
  20365433.139    -2123274.716 6  -1615605.96622        18.750           2.063
  22286630.107    -9624007.109 6  -7423405.67121        18.750           1.094
  21052345.475   -17402197.017 7 -13418412.38523        22.750           2.625
  23053118.201    -5723873.042 5  -4305074.64321        10.750           0.375
  22512187.834    -8871383.520 5  -6739582.73021        11.750           0.688
 91  6  3 18 22 29.9980000  0  6G18G19G11G 2G16G 6
  22118051.420     8423927.377 6   6556435.07521        15.750           0.938
  20366047.209    -2120030.587 6  -1613078.08522        19.000           2.125
  22285937.779    -9627647.873 6  -7426242.62221        18.750           1.188
  21044925.506   -17441190.322 7 -13448796.74723        23.000           2.656
  23052668.022    -5726230.486 5  -4306911.64521        10.250           0.313
  22504045.350    -8914173.293 5  -6772925.37521        11.750           0.781
 91  6  3 18 22 44.9980000  0  6G18G19G11G 2G16G 6
  22125486.248     8462999.472 6   6586880.76221        15.500           1.000
  20366678.647    -2116727.157 6  -1610503.99722        19.000           2.094
  22285271.975    -9631135.489 6  -7428960.24221        18.250           1.156
  21037519.115   -17480108.015 7 -13479122.19123        23.000           2.563
  23052247.076    -5728462.272 5  -4308650.72321        10.500           0.406
  22495903.967    -8956950.715 6  -6806258.38421        12.250           0.594
 91  6  3 18 22 59.9980000  0  6G18G19G11G 2G16G 6
  22132933.772     8502130.393 6   6617372.27421        15.750           0.938
  20367318.264    -2113366.451 6  -1607885.27622        18.750           2.063
  22284636.897    -9634471.950 6  -7431560.07621        17.750           1.188
  21030126.693   -17518952.064 7 -13509390.25123        22.500           2.594
  23051846.764    -5730570.365 5  -4310293.40921        10.750           0.406
  22487766.811    -8999717.651 6  -6839583.23221        12.500           0.719
 91  6  3 18 23 14.9980000  0  6G18G19G11G 2G16G 6
  22140389.232     8541312.527 6   6647903.70221        15.500           0.906
  20367965.092    -2109955.573 6  -1605227.46222        18.750           1.969
  22284030.615    -9637664.475 6  -7434047.75421        18.000           1.188
  21022746.936   -17557729.605 7 -13539606.48423        22.750           2.594
  23051464.068    -5732562.187 5  -4311845.49121        10.500           0.406
  22479632.897    -9042481.357 6  -6872905.55221        12.500           0.656
 91  6  3 18 23 29.9980000  0  6G18G19G11G 2G16G 6
  22147853.686     8580552.009 6   6678479.82021        15.000           0.938
  20368624.631    -2106488.241 6  -1602525.66122        19.500           2.063
  22283450.826    -9640706.852 6  -7436418.43321        17.750           1.313
  21015384.287   -17596434.331 7 -13569765.97823        23.000           2.531
  23051104.217    -5734431.401 5  -4313302.04321        10.500           0.375
  22471494.475    -9085235.404 6  -6906220.35721        12.750           0.656
 91  6  3 18 23 44.9980000  0  6G18G19G11G 2G16G 6
  22155333.928     8619850.558 6   6709101.95621        15.000           0.969
  20369297.100    -2102962.672 6  -1599778.47822        18.750           2.000
  22282900.334    -9643597.234 6  -7438670.67521        17.750           1.250
  21008032.311   -17635064.324 7 -13599867.23423        23.000           2.531
  23050775.287    -5736176.313 5  -4314661.72921        10.500           0.469
  22463362.147    -9127977.923 6  -6939526.17921        12.500           0.656
 91  6  3 18 23 59.9980000  0  6G18G19G11G 2G16G 6
  22162822.647     8659207.215 6   6739769.37421        15.250           0.938
  20369980.592    -2099379.175 6  -1596986.15722        18.750           2.000
  22282379.772    -9646336.267 6  -7440804.98221        18.000           1.156
  21000695.053   -17673620.060 7 -13629910.63123        22.750           2.563
  23050470.889    -5737797.476 5  -4315924.99821        11.250           0.406
  22455231.420    -9170709.551 6  -6972823.51221        12.500           0.656
 91  6  3 18 24 14.9980000  0  6G18G19G11G 2G16G 6
  22170326.264     8698628.695 6   6770487.30121        15.250           1.000
  20370673.318    -2095730.927 6  -1594143.37622        18.750           2.000
  22281889.623    -9648917.233 6  -7442816.12621        18.250           1.156
  20993373.209   -17712094.755 7 -13659890.87923        22.500           2.688
  23050185.990    -5739288.644 5  -4317086.96721        11.000           0.375
  22447101.990    -9213423.405 6  -7006106.99321        13.000           0.719
 91  6  3 18 24 29.9980000  0  6G18G19G11G 2G16G 6
  22177839.225     8738102.258 6   6801245.81121        15.500           0.906
  20371376.264    -2092030.291 6  -1591259.77322        19.000           1.906
  22281424.178    -9651352.420 6  -7444713.66921        18.000           1.156
  20986064.514   -17750500.694 7 -13689817.55323        22.500           2.625
  23049926.897    -5740662.376 5  -4318157.43221        10.750           0.313
  22438975.436    -9256131.852 6  -7039386.26521        12.750           0.750
 91  6  3 18 24 44.9980000  0  6G18G19G11G 2G16G 6
  22185359.248     8777633.443 6   6832049.22021        15.000           0.906
  20372094.123    -2088271.327 6  -1588330.72622        18.750           1.969
  22280989.951    -9653636.005 6  -7446493.08221        18.000           1.125
  20978770.647   -17788831.886 7 -13719685.97523        22.750           2.688
  23049682.334    -5741912.634 5  -4319131.68621        10.500           0.344
  22430851.022    -9298828.991 6  -7072656.72721        12.750           0.750
 91  6  3 18 24 59.9980000  0  6G18G19G11G 2G16G 6
  22192892.068     8817210.082 6   6862888.04921        15.000           0.844
  20372817.514    -2084466.043 6  -1585365.57822        18.750           2.000
  22280583.889    -9655780.103 6  -7448163.80321        18.500           1.031
  20971488.318   -17827100.313 7 -13749505.49323        22.250           2.625
  23049463.506    -5743051.742 5  -4320019.32621        10.250           0.313
  22422726.725    -9341526.795 6  -7105927.70721        13.000           0.750
 91  6  3 18 25 14.9980000  0  6G18G19G11G 2G16G 6
  22200435.607     8856851.592 6   6893777.42421        14.750           0.813
  20373554.342    -2080594.651 6  -1582348.92422        19.250           2.063
  22280206.756    -9657765.084 6  -7449710.53721        18.500           1.000
  20964221.178   -17865286.384 7 -13779260.84123        22.250           2.563
  23049275.811    -5744060.357 5  -4320805.29221        10.250           0.344
  22414604.107    -9384205.584 6  -7139183.85721        13.000           0.781
 91  6  3 18 25 29.9980000  0  6G18G19G11G 2G16G 6
  22207990.193     8896548.493 6   6924709.95621        15.000           0.875
  20374300.873    -2076666.352 6  -1579287.92822        19.000           1.969
  22279856.100    -9659600.218 6  -7451140.50421        18.250           1.063
  20956968.287   -17903399.356 7 -13808959.22323        22.250           2.563
  23049110.342    -5744947.836 5  -4321496.84321        10.750           0.313
  22406482.467    -9426874.522 6  -7172432.34721        13.000           0.750
 91  6  3 18 25 44.9980000  0  6G18G19G11G 2G16G 6
  22215552.537     8936297.495 6   6955683.08721        14.750           0.844
  20375060.303    -2072684.156 6  -1576184.92922        19.250           2.000
  22279534.662    -9661288.616 6  -7452456.14221        18.250           1.125
  20949729.357   -17941442.030 7 -13838602.83323        22.250           2.500
  23048962.654    -5745717.020 5  -4322096.21221        10.250           0.375
  22398363.607    -9469536.555 6  -7205675.45921        13.000           0.719
 91  6  3 18 25 59.9980000  0  6G18G19G11G 2G16G 6
  22223127.170     8976096.625 6   6986695.29021        15.250           1.000
  20375827.053    -2068649.633 6  -1573041.15522        19.250           2.094
  22279241.912    -9662831.880 6  -7453658.67721        18.500           1.063
  20942502.318   -17979416.012 7 -13868192.91723        22.000           2.688
  23048837.990    -5746369.612 5  -4322604.75821        10.500           0.500
  22390246.678    -9512193.350 6  -7238914.48021        13.000           0.719
 91  6  3 18 26 14.9980000  0  6G18G19G11G 2G16G 6
  22230710.795     9015953.585 6   7017752.54421        14.750           0.906
  20376606.201    -2064554.601 6  -1569850.23322        18.750           2.031
  22278977.209    -9664222.057 6  -7454741.93021        18.500           0.969
  20935290.639   -18017313.225 7 -13897723.17823        22.500           2.656
  23048738.272    -5746897.965 5  -4323016.48021        10.750           0.500
  22382129.959    -9554836.831 6  -7272143.13721        13.000           0.656
 91  6  3 18 26 29.9980000  0  6G18G19G11G 2G16G 6
  22238306.865     9055863.584 6   7048851.12021        15.000           1.000
  20377394.482    -2060403.665 6  -1566615.75122        19.500           1.938
  22278740.436    -9665463.838 6  -7455709.54221        17.750           1.031
  20928093.904   -18055138.372 7 -13927197.28923        23.000           2.563
  23048661.193    -5747307.092 5  -4323335.30321        10.250           0.438
  22374015.303    -9597471.655 6  -7305365.04921        13.000           0.625
 91  6  3 18 26 44.9980000  0  6G18G19G11G 2G16G 6
  22245911.553     9095829.925 6   7079993.59821        15.250           1.000
  20378196.850    -2056193.191 6  -1563334.87322        18.500           1.875
  22278534.475    -9666553.748 6  -7456558.81821        18.250           0.969
  20920910.756   -18092887.901 7 -13956612.46823        22.750           2.563
  23048604.053    -5747593.628 5  -4323558.60121        10.500           0.344
  22365903.834    -9640094.203 6  -7338577.38121        13.250           0.688
 91  6  3 18 26 59.9980000  0  6G18G19G11G 2G16G 6
  22253528.459     9135855.237 6   7111182.04221        15.250           0.969
  20379010.881    -2051920.423 6  -1560005.45522        18.250           2.125
  22278356.092    -9667489.006 6  -7457287.58821        18.250           1.000
  20913742.647   -18130558.788 7 -13985966.37823        22.500           2.688
  23048569.475    -5747754.861 5                        10.250
  22357796.693    -9682701.649 6  -7371777.95121        13.250           0.688
 91  6  3 18 27 14.9980000  0  6G18G19G11G 2G16G 6
  22261155.982     9175936.837 6   7142414.34721        15.000           0.875
  20379835.139    -2047587.399 6  -1556629.08222        18.750           2.000
  22278205.967    -9668271.868 6  -7457897.60321        18.000           1.094
  20906588.475   -18168153.262 7 -14015260.74523        22.500           2.594
  23048562.584    -5747793.203 5                        10.250
  22349693.803    -9725296.198 6  -7404968.47321        13.000           0.563
 91  6  3 18 27 29.9980000  0  6G18G19G11G 2G16G 6
  22268793.764     9216079.412 6   7173694.14621        14.250           0.875
  20380671.959    -2043189.451 6  -1553202.12022        18.750           1.813
  22278088.537    -9668897.600 6  -7458385.18321        18.250           1.094
  20899448.811   -18205666.477 7 -14044491.79023        22.500           2.594
  23048583.686    -5747703.861 5                        10.000
  22341590.842    -9767872.970 6  -7438145.13821        12.750           0.656
 91  6  3 18 27 44.9980000  0  6G18G19G11G 2G16G 6
  22276441.342     9256265.310 6   7205007.71821        14.000           0.781
  20381518.459    -2038743.884 6  -1549738.05322        18.750           1.938
  22277994.678    -9669383.718 6  -7458763.96221        18.000           1.188
  20892322.787   -18243116.001 7 -14073673.20723        22.750           2.594
  23048622.318    -5747504.742 5                        10.250
  22333488.490    -9810449.586 6  -7471321.68821        13.000           0.625
 91  6  3 18 27 59.9980000  0  6G18G19G11G 2G16G 6
  22284100.482     9296510.725 6   7236367.65921        14.250           0.906
  20382373.756    -2034234.192 6  -1546224.01422        19.500           2.000
  22277932.545    -9669713.851 6  -7459021.19621        18.250           1.188
  20885211.607   -18280485.244 7 -14102792.06623        23.000           2.563
  23048684.240    -5747179.241 5                        10.250
  22325392.006    -9853009.313 6  -7504485.07621        13.500           0.656
 91  6  3 18 28 14.9980000  0  6G18G19G11G 2G16G 6
  22291770.170     9336812.691 6   7267771.67721        14.250           0.750
  20383245.115    -2029662.969 6  -1542662.03422        19.250           2.000
  22277899.568    -9669890.757 6                        18.000
  20878115.334   -18317776.756 7 -14131850.35722        22.750           2.406
  23048768.240    -5746730.400 5  -4322886.06421        10.250           0.406
  22317296.576    -9895554.875 6  -7537637.42221        13.250           0.625
 91  6  3 18 28 29.9980000  0  6G18G19G11G 2G16G 6
  22299449.982     9377170.877 6   7299219.49821        14.500           0.656
  20384125.897    -2025030.419 6  -1539052.26122        19.250           1.969
  22277895.248    -9669914.680 6                        18.000
  20871034.537   -18354990.727 7 -14160848.22622        23.000           2.438
  23048877.873    -5746158.617 5  -4322440.54221        10.250           0.469
  22309205.357    -9938086.499 6  -7570778.91021        13.750           0.750
 91  6  3 18 28 44.9980000  0  6G18G19G11G 2G16G 6
  22307139.873     9417579.663 6   7330706.73821        14.500           0.750
  20385018.076    -2020341.542 6  -1535398.60322        18.750           2.031
  22277915.568    -9669790.839 6                        18.250
  20863965.076   -18392132.375 7 -14189789.74623        23.000           2.656
  23049009.201    -5745469.159 5  -4321903.33221        10.500           0.313
  22301113.545    -9980609.164 6  -7603913.42721        13.500           0.656
 91  6  3 18 28 59.9980000  0  6G18G19G11G 2G16G 6
  22314840.631     9458047.772 6   7362240.21121        14.500           0.844
  20385925.545    -2015587.417 6  -1531694.10422        18.750           1.875
  22277973.076    -9669510.409 6                        18.250
  20856913.443   -18429192.799 7 -14218667.96523        23.000           2.500
  23049162.061    -5744653.444 5  -4321267.73521        10.250           0.406
  22293023.600   -10023113.914 6  -7637033.96921        13.500           0.750
 91  6  3 18 29 14.9980000  0  6G18G19G11G 2G16G 6
  22322552.232     9498570.181 6   7393815.99821        14.250           0.844
  20386839.912    -2010772.413 6  -1527942.15822        19.000           2.063
  22278054.037    -9669077.878 6  -7458525.60321        17.750           1.063
  20849875.107   -18466176.281 7 -14247486.23523        23.250           2.688
  23049340.779    -5743716.233 5  -4320537.44921        10.000           0.406
  22284935.490   -10065605.393 6  -7670144.17121        13.750           0.625
 91  6  3 18 29 29.9980000  0  6G18G19G11G 2G16G 6
  22330270.850     9539137.279 6   7425426.59721        14.250           0.750
  20387767.061    -2005906.341 6  -1524150.41922        19.250           2.094
  22278161.631    -9668503.128 6  -7458077.74421        18.000           1.063
  20842848.842   -18503092.661 7 -14276252.21523        23.000           2.719
  23049541.709    -5742667.365 5  -4319720.17921        10.250           0.438
  22276848.967   -10108093.218 6  -7703251.52221        13.250           0.656
 91  6  3 18 29 44.9970000  0  6G18G19G11G 2G16G 6
  22338003.462     9579763.489 6   7457083.25321        14.250           0.813
  20388706.134    -2000971.541 6  -1520305.13222        18.750           2.063
  22278302.782    -9667768.578 6  -7457505.35921        18.000           1.063
  20835843.454   -18539921.760 7 -14304950.18523        23.750           2.656
  23049766.126    -5741489.320 5  -4318802.24021        10.750           0.438
  22268765.571   -10150556.787 6  -7736339.98221        13.250           0.656
 91  6  3 18 29 59.9970000  0  6G18G19G11G 2G16G 6
  22345743.079     9620444.472 6   7488782.60421        14.250           0.813
  20389655.454    -1995977.332 6  -1516413.54922        19.000           2.094
  22278469.118    -9666884.075 6  -7456816.12021        18.000           1.094
  20828848.376   -18576678.353 7 -14333591.66023        23.750           2.594
  23050013.431    -5740191.901 5  -4317791.28021        10.750           0.531
  22260688.267   -10193011.738 6  -7769421.72021        13.000           0.781
 91  6  3 18 30 14.9970000  0  6G18G19G11G 2G16G 6
  22353497.829     9661194.701 6   7520535.91221        13.750           0.781
  20390622.235    -1990906.455 6  -1512462.22522        19.250           2.031
  22278668.634    -9665832.065 6  -7455996.35321        18.000           1.031
  20821870.868   -18613342.202 7 -14362160.86723        23.750           2.531
  23050284.782    -5738757.677 5  -4316673.73221        10.500           0.438
  22252616.884   -10235437.340 6  -7802480.57921        13.000           0.719
 91  6  3 18 30 29.9970000  0  6G18G19G11G 2G16G 6
  22361260.142     9701995.453 6   7552328.58121        13.750           0.750
  20391595.454    -1985777.068 6  -1508465.30922        19.500           2.094
  22278897.798    -9664631.010 6  -7455060.45421        17.750           1.156
  20814907.478   -18649931.634 7 -14390672.08523        23.750           2.625
  23050581.399    -5737205.395 5  -4315464.17721        10.250           0.500
  22244546.782   -10277852.002 6  -7835530.92621        13.250           0.750
 91  6  3 18 30 44.9970000  0  6G18G19G11G 2G16G 6
  22369035.399     9742843.771 6   7584158.32721        13.750           0.688
  20392584.759    -1980591.973 6  -1504424.98922        19.000           1.906
  22279153.720    -9663283.876 6  -7454010.72221        17.750           1.250
  20807960.259   -18686449.396 7 -14419127.46023        24.000           2.500
  23050898.696    -5735537.912 5  -4314164.85421        10.000           0.469
  22236475.642   -10320258.570 6  -7868574.96721        13.250           0.875
 91  6  3 18 30 59.9970000  0  6G18G19G11G 2G16G 6
  22376819.415     9783748.286 6   7616031.85821        13.250           0.844
  20393584.728    -1975342.318 6  -1500334.36322        18.500           2.000
  22279441.759    -9661781.882 6  -7452840.32521        18.000           1.094
  20801025.743   -18722886.639 7 -14447520.09223        24.250           2.594
  23051237.259    -5733746.702 5  -4312769.13621         9.500           0.469
  22228409.884   -10362648.125 6  -7901605.74821        13.500           0.844
 91  6  3 18 31 14.9970000  0  6G18G19G11G 2G16G 6
  22384615.610     9824716.513 6   7647955.00821        13.500           0.781
  20394599.040    -1970020.190 6  -1496187.26422        19.250           2.094
  22279757.478    -9660117.312 6  -7451543.24521        17.750           1.188
  20794108.985   -18759235.644 7 -14475843.96023        24.250           2.594
  23051602.978    -5731824.181 5  -4311271.09721         9.500           0.469
  22220347.571   -10405012.765 6  -7934617.12921        13.250           0.719
 91  6  3 18 31 29.9970000  0  6G18G19G11G 2G16G 6
  22392425.923     9865755.142 6   7679933.04121        14.250           0.781
  20395624.532    -1964618.360 6  -1491978.05222        19.000           2.000
  22280106.821    -9658283.029 6  -7450113.92121        18.000           1.031
  20787208.931   -18795489.285 7 -14504093.53522        24.000           2.469
  23051996.806    -5729763.538 5  -4309665.43621         9.250           0.531
  22212292.915   -10447345.416 6  -7967603.56821        13.500           0.750
 91  6  3 18 31 44.9970000  0  6G18G19G11G 2G16G 6
  22400246.017     9906842.653 6   7711949.15521        14.250           0.688
  20396661.329    -1959158.094 6  -1487723.30522        19.000           2.000
  22280484.720    -9656300.448 6  -7448569.04021        17.250           1.125
  20780325.235   -18831668.694 7 -14532285.26323        24.500           2.594
  23052415.438    -5727586.422 5  -4307969.00021         9.500           0.500
  22204236.392   -10489667.415 6  -8000581.71721        13.000           0.688
 91  6  3 18 31 59.9970000  0  6G18G19G11G 2G16G 6
  22408074.384     9947993.170 6   7744014.37321        13.750           0.688
  20397712.845    -1953625.326 6  -1483412.06122        19.250           2.031
  22280891.282    -9654155.558 6  -7446897.68021        17.250           1.063
  20773457.438   -18867759.704 7 -14560408.10223        25.000           2.594
  23052851.735    -5725278.692 5  -4306170.80221         9.750           0.500
  22196186.423   -10531964.449 6  -8033540.41821        13.000           0.688
 91  6  3 18 32 14.9970000  0  6G18G19G11G 2G16G 6
  22415910.337     9989171.576 6   7776101.03021        13.000           0.781
  20398774.376    -1948054.715 6  -1479071.61522        18.500           2.031
  22281322.392    -9651883.060 6  -7445127.17121        17.500           1.188
  20766599.087   -18903797.056 7 -14588489.41423        24.750           2.750
  23053307.892    -5722875.145 5  -4304298.21321         9.250           0.313
  22188134.892   -10574271.116 6  -8066506.88621        13.000           0.781
 91  6  3 18 32 29.9970000  0  6G18G19G11G 2G16G 6
  22423728.204    10030256.636 6   7808115.50721        12.750           0.844
  20399819.259    -1942567.006 6  -1474795.21222        19.500           2.031
  22281756.438    -9649604.062 6                        17.750
  20759728.134   -18939901.732 7 -14616622.62723        24.250           2.688
  23053763.556    -5720496.713 5                         9.750
  22180061.868   -10616708.459 6  -8099574.63021        13.500           0.719
 91  6  3 18 32 44.9970000  0  6G18G19G11G 2G16G 6
  22431544.821    10071325.433 6   7840117.03421        13.000           0.813
  20400864.962    -1937085.062 6  -1470523.57322        19.000           2.094
  22282205.657    -9647241.368 6                        17.500
  20752860.087   -18975996.396 7 -14644748.31623        24.750           2.719
  23054225.759    -5718066.510 5                         9.500
  22171979.220   -10659199.106 6  -8132684.19421        13.750           0.781
 91  6  3 18 32 59.9970000  0  6G18G19G11G 2G16G 6
  22439357.884    10112390.684 6   7872115.80121        12.500           0.750
  20401906.954    -1931595.333 6  -1466245.87222        19.000           2.063
  22282676.118    -9644781.719 6                        17.750
  20745997.540   -19012067.656 7 -14672855.76623        25.000           2.750
  23054696.071    -5715571.676 5                         9.250
  22163886.142   -10701729.774 6  -8165824.93221        14.000           0.813
 91  6  3 18 33 14.9970000  0  6G18G19G11G 2G16G 6
  22447143.212    10153295.410 6   7903989.98721        12.750           0.750
  20402924.829    -1926254.973 6  -1462084.06422        18.500           2.031
  22283132.103    -9642382.424 6                        17.750
  20739105.970   -19048272.620 7 -14701066.90023        25.000           2.750
  23055157.048    -5713169.605 5                         9.000
  22155753.501   -10744457.538 6  -8199118.75221        13.750           0.750
 91  6  3 18 33 29.9970000  0  6G18G19G11G 2G16G 6
  22454911.282    10194124.521 6   7935805.02321        12.500           0.688
  20403927.454    -1920978.362 6  -1457972.15322        19.000           2.094
  22283591.517    -9639958.289 6                        17.500
  20732207.610   -19084526.000 7 -14729315.98223        25.000           2.656
  23055609.548    -5710774.854 5                         9.000
  22147599.853   -10787297.013 6  -8232499.84921        13.250           0.813
 91  6  3 18 33 44.9970000  0  6G18G19G11G 2G16G 6
  22462667.876    10234874.757 6   7967558.82021        13.000           0.719
  20404920.032    -1915768.772 6  -1453912.24422        18.750           2.094
  22284058.868    -9637512.598 6                        18.000
  20725298.774   -19120830.764 7 -14757604.88823        24.750           2.719
  23056062.337    -5708390.957 5                         9.000
  22139427.118   -10830251.222 6  -8265970.61621        13.000           0.719
 91  6  3 18 33 59.9970000  0  6G18G19G11G 2G16G 6
  22470404.431    10275532.321 6   7999239.90921        12.750           0.750
  20405894.603    -1910639.554 6  -1449915.46322        18.750           2.188
  22284525.259    -9635058.734 6  -7432016.16521        18.000           1.156
  20718378.063   -19157200.346 7 -14785944.80223        25.250           2.719
  23056511.720    -5706031.668 5  -4291172.57621         9.250           0.469
  22131230.290   -10873333.588 6  -8299541.25621        12.750           0.719
 91  6  3 18 34 14.9970000  0  6G18G19G11G 2G16G 6
  22478105.634    10315996.096 6   8030769.98221        12.750           0.719
  20406838.860    -1905691.263 6  -1446059.66522        18.500           2.094
  22284974.321    -9632697.614 6  -7430176.31621        17.750           1.000
  20711426.642   -19193735.474 7 -14814413.70823        25.250           2.875
  23056942.517    -5703797.458 5  -4289431.66921         9.500           0.344
  22122985.618   -10916644.794 6  -8333290.19921        13.500           0.750
 91  6  3 18 34 29.9970000  0  6G18G19G11G 2G16G 6
  22485782.884    10356341.824 6   8062208.06221        12.750           0.688
  20407754.907    -1900848.171 6  -1442285.83822        18.750           2.250
  22285421.618    -9630353.321 6  -7428349.58721        18.000           1.063
  20704455.001   -19230360.161 7 -14842952.39923        24.500           2.875
  23057353.720    -5701612.822 5  -4287729.39321         9.250           0.438
  22114717.735   -10960108.799 6  -8367158.21221        13.750           0.688
 91  6  3 18 34 44.9970000  0  6G18G19G11G 2G16G 6
  22493453.712    10396653.563 6   8093619.66721        12.750           0.625
  20408677.923    -1896025.606 6  -1438528.01022        18.500           2.125
  22285879.282    -9627941.469 6  -7426470.21221        17.750           1.094
  20697485.790   -19266989.948 7 -14871495.06923        24.750           2.938
  23057770.821    -5699393.400 5  -4286000.01021         8.750           0.438
  22106432.798   -11003641.186 6  -8401079.51321        14.000           0.844
 91  6  3 18 34 59.9970000  0  6G18G19G11G 2G16G 6
  22501132.251    10436998.459 6   8125057.11321        12.750           0.594
  20409601.384    -1891156.038 6  -1434733.55022        19.250           2.156
  22286366.032    -9625394.845 6  -7424485.83121        18.000           1.094
  20690526.368   -19303557.475 7 -14899989.22123        24.500           2.938
  23058218.282    -5697072.213 5  -4284191.30921         8.750           0.313
  22098150.532   -11047174.469 6  -8435001.50921        13.750           0.813
 91  6  3 18 35 14.9970000  0  6G18G19G11G 2G16G 6
  22508816.118    10477386.585 6   8156528.24721        12.750           0.594
  20410541.626    -1886229.538 6  -1430894.72822        18.500           2.219
  22286875.767    -9622703.559 6  -7422388.71321        18.250           1.094
  20683583.345   -19340052.665 7 -14928427.00623        25.000           3.000
  23058682.696    -5694639.602 5  -4282295.82421         9.500           0.438
  22089862.509   -11090698.575 6  -8468916.35421        13.500           0.844
 91  6  3 18 35 29.9970000  0  6G18G19G11G 2G16G 6
  22516508.915    10517809.596 6   8188026.55321        13.000           0.625
  20411487.782    -1881254.027 6  -1427017.72122        18.250           2.281
  22287415.571    -9619875.687 6  -7420185.17421        17.750           1.031
  20676649.665   -19376483.488 7 -14956814.63623        25.250           2.875
  23059166.196    -5692103.218 5  -4280319.44121         9.250           0.469
  22081584.431   -11134221.462 6  -8502830.24721        13.500           0.938
 91  6  3 18 35 44.9970000  0  6G18G19G11G 2G16G 6
  22524208.774    10558269.874 6   8219553.90721        13.000           0.656
  20412444.860    -1876226.953 6  -1423100.54022        18.000           2.313
  22287979.993    -9616908.749 6  -7417873.26321        18.000           1.031
  20669730.087   -19412847.281 7 -14985150.03623        25.250           3.000
  23059669.009    -5689461.100 5  -4278260.68521         9.000           0.344
  22073302.774   -11177740.474 6  -8536741.12121        13.750           0.844
 91  6  3 18 35 59.9970000  0  6G18G19G11G 2G16G 6
  22531918.923    10598787.648 6   8251126.06121        13.000           0.594
  20413414.454    -1871127.520 6  -1419126.97122        19.250           2.219
  22288574.274    -9613782.154 6  -7415436.95821        18.000           1.125
  20662827.665   -19449123.486 7 -15013417.18823        25.000           2.875
  23060192.962    -5686692.785 5  -4276103.58521         8.750           0.313
  22065026.204   -11221234.939 6  -8570632.87221        14.000           0.781
 91  6  3 18 36 14.9970000  0  6G18G19G11G 2G16G 6
  22539637.384    10639354.181 6   8282736.20621        12.750           0.531
  20414398.368    -1865963.918 6  -1415103.40122        18.500           2.188
  22289200.126    -9610504.430 6  -7412882.88221        18.000           1.125
  20655938.946   -19485320.319 7 -15041622.49123        25.000           2.906
  23060744.603    -5683806.934 5  -4273854.90921         8.750           0.406
  22056753.876   -11264713.145 6  -8604511.95521        14.000           0.813
 91  6  3 18 36 29.9970000  0  6G18G19G11G 2G16G 6
  22547368.384    10679967.554 6   8314382.85421        13.250           0.500
  20415391.501    -1860738.061 6  -1411031.32022        18.000           2.188
  22289852.438    -9607077.619 6  -7410212.64821        18.250           1.219
  20649065.634   -19521439.731 7 -15069767.46923        25.000           2.969
  23061314.767    -5680805.789 5  -4271516.39021         8.750           0.375
  22048480.884   -11308177.010 6  -8638379.86721        13.750           0.719
 91  6  3 18 36 44.9970000  0  6G18G19G11G 2G16G 6
  22555104.884    10720622.764 6   8346062.10021        13.250           0.500
  20416396.720    -1855454.459 6  -1406914.24522        18.000           2.125
  22290529.946    -9603506.352 6  -7407429.84421        17.750           1.094
  20642205.892   -19557486.241 7 -15097855.63323        25.000           3.000
  23061910.407    -5677693.744 5  -4269091.45421         9.250           0.313
  22040210.673   -11351631.015 6  -8672240.08321        13.750           0.781
 91  6  3 18 36 59.9970000  0  6G18G19G11G 2G16G 6
  22562851.634    10761328.310 6   8377780.57021        13.000           0.531
  20417411.048    -1850104.263 6  -1402745.27922        18.500           2.281
  22291241.126    -9599781.979 6  -7404527.73021        18.000           1.031
  20635363.032   -19593451.137 7 -15125880.20723        25.000           3.031
  23062523.798    -5674462.314 5  -4266573.46521         9.250           0.375
  22031944.931   -11395066.328 6  -8706085.74621        14.000           0.656
 91  6  3 18 37 14.9970000  0  6G18G19G11G 2G16G 6
  22570604.103    10802078.635 6   8409533.93221        12.500           0.438
  20418445.657    -1844692.876 6  -1398528.62722        18.250           2.188
  22291976.626    -9595910.023 6  -7401510.63021        18.000           1.188
  20628534.454   -19629339.682 7 -15153845.28723        25.250           3.094
  23063155.126    -5671117.310 5  -4263967.01921         9.000           0.406
  22023682.603   -11438488.306 6  -8739921.00921        13.750           0.813
 91  6  3 18 37 29.9970000  0  6G18G19G11G 2G16G 6
  22578368.751    10842879.598 6   8441326.75421        12.250           0.500
  20419487.181    -1839214.270 6  -1394259.60322        18.500           2.063
  22292742.931    -9591884.589 6  -7398373.93521        18.000           1.094
  20621720.282   -19665145.818 7 -15181746.14823        25.250           3.063
  23063818.485    -5667652.881 5  -4261267.51421         9.000           0.438
  22015423.040   -11481890.866 6  -8773741.14921        14.000           0.750
 91  6  3 18 37 44.9970000  0  6G18G19G11G 2G16G 6
  22586144.462    10883732.073 6   8473159.70321        12.500           0.500
  20420542.524    -1833666.992 6  -1389937.06722        18.000           2.250
  22293538.845    -9587704.500 6  -7395116.72421        17.250           1.094
  20614921.845   -19700868.318 7 -15209581.83923        25.500           3.063
  23064499.149    -5664067.764 5  -4258473.92121         8.750           0.469
  22007167.860   -11525272.660 6  -8807545.09921        14.750           0.844
 91  6  3 18 37 59.9970000  0  6G18G19G11G 2G16G 6
  22593927.720    10924641.765 5   8505037.24021        11.750           0.656
  20421613.610    -1828045.006 6  -1385556.31622        18.000           2.125
  22294364.368    -9583363.934 6  -7391734.46821        17.500           0.969
  20608142.571   -19736501.383 7 -15237347.84123        25.750           3.063
  23065204.720    -5660356.480 5  -4255582.06221         8.750           0.344
  21998919.001   -11568627.761 6  -8841328.25921        15.000           0.844
 91  6  3 18 38 14.9970000  0  6G18G19G11G 2G16G 6
  22601721.790    10965607.978 5   8536958.81221        11.000           0.625
  20422699.212    -1822348.757 6  -1381117.69622        18.250           2.094
  22295218.478    -9578863.329 6  -7388227.50121        17.000           1.031
  20601378.181   -19772045.116 7 -15265044.23023        25.500           3.094
  23065934.056    -5656519.659 5  -4252592.36621         9.000           0.375
  21990675.056   -11611956.360 6  -8875090.75821        15.750           0.781
 91  6  3 18 38 29.9970000  0  6G18G19G11G 2G16G 6
  22609529.657    11006636.187 5   8568928.69721        10.750           0.531
  20423796.774    -1816572.595 6  -1376616.80422        18.250           2.125
  22296108.673    -9574197.351 6  -7384591.67221        17.250           0.969
  20594631.665   -19807494.121 7 -15292666.80823        25.000           3.031
  23066691.813    -5652551.783 5  -4249500.55321         9.250           0.406
  21982433.438   -11655252.878 6  -8908828.26621        15.500           0.750
 91  6  3 18 38 44.9970000  0  6G18G19G11G 2G16G 6
  22617350.892    11047728.420 5   8600948.48621        11.000           0.563
  20424911.353    -1810713.857 6  -1372051.57222        18.250           2.250
  22297027.235    -9569363.670 6  -7380825.17621        16.750           1.000
  20587904.532   -19842845.770 7 -15320213.52623        25.250           3.125
  23067473.103    -5648450.705 5  -4246304.95521         8.750           0.375
  21974202.806   -11698514.799 6  -8942538.81821        16.000           0.875
 91  6  3 18 38 59.9970000  0  6G18G19G11G 2G16G 6
  22625202.017    11088987.382 5   8633098.18021        10.750           0.500
  20426059.751    -1804669.513 6  -1367341.70822        19.000           2.188
  22297997.876    -9564259.317 6  -7376847.75821        17.000           1.031
  20581215.274   -19877996.915 7 -15347604.00223        25.250           3.063
  23068297.915    -5644113.727 5  -4242925.51721         9.000           0.313
  21965997.876   -11741639.020 6  -8976142.06321        15.750           0.813
 91  6  3 18 39 14.9970000  0  6G18G19G11G 2G16G 6
  22633087.056    11130421.290 5   8665384.18321        10.750           0.594
  20427247.673    -1798431.448 6  -1362480.89022        18.250           2.281
  22299023.782    -9558876.423 6  -7372653.30821        17.000           0.969
  20574565.415   -19912939.445 7 -15374831.91823        25.250           3.063
  23069171.478    -5639532.960 5  -4239356.12921         9.000           0.438
  21957816.767   -11784617.341 6  -9009631.62921        15.250           0.875
 91  6  3 18 39 29.9970000  0  6G18G19G11G 2G16G 6
  22640978.493    11171885.807 5   8697694.05421        11.000           0.594
  20428446.438    -1792143.167 6  -1357580.95022        18.000           2.250
  22300072.485    -9553358.720 6  -7368353.80721        17.000           1.031
  20567927.782   -19947816.990 7 -15402009.20023        25.000           3.156
  23070059.462    -5634852.175 5  -4235708.79421         9.000           0.438
  21949637.931   -11827593.449 6  -9043119.46921        15.250           0.813
 91  6  3 18 39 44.9970000  0  6G18G19G11G 2G16G 6
  22648883.470    11213428.841 5   8730065.09021        11.250           0.594
  20429660.821    -1785756.503 6  -1352604.34522        18.500           2.313
  22301158.188    -9547658.121 6  -7363911.78921        17.000           0.938
  20561312.345   -19982581.351 7 -15429098.28123        24.750           3.125
  23070977.188    -5630023.311 5  -4231946.07521         9.000           0.469
  21941468.313   -11870519.004 6  -9076567.91021        15.250           0.813
 91  6  3 18 39 59.9970000  0  6G18G19G11G 2G16G 6
  22656795.563    11255005.588 5   8762462.40121        11.500           0.563
  20430887.079    -1779316.109 6  -1347585.86722        18.500           2.250
  22302267.009    -9541819.502 6  -7359362.22621        17.250           1.031
  20554709.126   -20017277.314 7 -15456134.07223        24.750           3.125
  23071915.821    -5625091.278 5  -4228102.99021         8.750           0.375
  21933304.032   -11913438.713 6  -9110011.79821        15.500           0.844
 91  6  3 18 40 14.9970000  0  6G18G19G11G 2G16G 6
  22664718.001    11296633.804 5   8794899.82321        11.750           0.563
  20432126.196    -1772804.034 6  -1342511.53922        18.750           2.313
  22303409.782    -9535825.074 6  -7354691.24421        17.000           0.938
  20548124.063   -20051887.076 7 -15483102.69023        24.750           3.156
  23072879.181    -5620038.554 5  -4224165.82721         9.250           0.469
  21925139.868   -11956334.717 6  -9143437.22521        15.500           0.844
 91  6  3 18 40 29.9970000  0  6G18G19G11G 2G16G 6
  22672650.524    11338323.086 5   8827385.34621        11.500           0.531
  20433376.634    -1766210.020 6  -1337372.85922        18.750           2.313
  22304581.563    -9529664.786 6  -7349890.53221        17.000           1.000
  20541556.610   -20086400.246 7 -15509995.54023        25.000           3.156
  23073870.290    -5614854.998 5  -4220126.21721         9.250           0.344
  21916981.853   -11999196.542 6  -9176835.50521        15.000           0.781
 91  6  3 18 40 44.9970000  0  6G18G19G11G 2G16G 6
  22680596.954    11380082.665 5   8859924.62721        11.500           0.531
  20434651.821    -1759524.777 6  -1332164.09122        18.500           2.250
  22305786.806    -9523329.453 6  -7344954.41921        17.000           1.156
  20535008.735   -20120807.668 7 -15536806.99323        25.000           3.063
  23074879.899    -5609531.980 5  -4215978.96221         9.250           0.469
  21908833.798   -12042014.995 6  -9210200.99821        15.000           0.844
 91  6  3 18 40 59.9970000  0  6G18G19G11G 2G16G 6
  22688551.212    11421886.042 5   8892498.53621        11.750           0.625
  20435937.056    -1752774.419 6  -1326904.09322        19.000           2.250
  22307020.540    -9516845.511 6  -7339902.01221        17.000           1.000
  20528477.157   -20155135.483 7 -15563555.91923        25.000           3.000
  23075913.478    -5604095.837 5  -4211743.04921         9.250           0.469
  21900693.196   -12084816.287 6  -9243552.61321        14.750           0.844
 91  6  3 18 41 14.9970000  0  6G18G19G11G 2G16G 6
  22696517.688    11463752.499 5   8925121.60021        11.500           0.469
  20437239.845    -1745939.363 6  -1321578.09022        19.000           2.281
  22308285.313    -9510193.612 6  -7334718.72321        17.000           1.063
  20521963.149   -20189364.197 7 -15590227.61923        25.000           3.063
  23076970.290    -5598527.182 5  -4207403.87821         8.750           0.469
  21892553.353   -12127580.760 6  -9276875.55021        15.000           0.875
 91  6  3 18 41 29.9970000  0  6G18G19G11G 2G16G 6
  22704483.978    11505605.923 5   8957734.52021        11.250           0.500
  20438541.946    -1739095.550 6                        18.750
  22309569.181    -9503449.903 6                        17.250
  20515454.313   -20223569.839 7 -15616881.34123        25.000           3.094
  23078041.556    -5592902.205 5  -4203020.81721         8.500           0.438
  21884408.134   -12170384.374 6  -9310228.97521        14.750           0.844
 91  6  3 18 41 44.9970000  0  6G18G19G11G 2G16G 6
  22712465.821    11547562.199 5   8990427.56821        11.500           0.688
  20439867.470    -1732126.690 6                        19.000
  22310890.915    -9496498.116 6                        16.750
  20508970.384   -20257635.829 7 -15643426.24523        24.250           3.000
  23079146.009    -5587104.999 5  -4198503.55621         9.000           0.438
  21876277.493   -12213110.659 6  -9343522.13921        15.250           0.813
 91  6  3 18 41 59.9970000  0  6G18G19G11G 2G16G 6
  22720458.681    11589556.496 6   9023150.25021        12.000           0.594
  20441204.173    -1725096.916 6  -1305337.26422        19.000           2.156
  22312242.532    -9489402.854 6  -7318518.15721        16.750           0.844
  20502503.298   -20291626.682 7 -15669912.59923        24.500           3.063
  23080268.204    -5581200.161 5  -4193902.42221         9.000           0.344
  21868150.946   -12255823.992 6  -9376805.22221        15.500           0.875
 91  6  3 18 42 14.9970000  0  6G18G19G11G 2G16G 6
  22728464.149    11631618.820 5   9055925.94421        11.750           0.469
  20442559.610    -1717976.247 6  -1299788.70822        18.500           2.125
  22313624.673    -9482134.058 6  -7312854.15421        16.750           0.875
  20496054.892   -20325512.249 7 -15696316.91523        25.250           3.156
  23081417.017    -5575157.779 5  -4189194.11221         8.750           0.313
  21860029.587   -12298494.150 6  -9410054.65121        15.250           0.906
 91  6  3 18 42 29.9970000  0  6G18G19G11G 2G16G 6
  22736471.454    11673698.313 5   9088715.00721        11.750           0.563
  20443921.907    -1710815.020 6  -1294208.54822        18.500           2.125
  22315031.048    -9474742.461 6  -7307094.48021        16.500           0.938
  20489618.407   -20359343.086 7 -15722678.58423        25.250           3.063
  23082584.056    -5569028.700 5  -4184418.24821         8.750           0.313
  21851907.431   -12341171.658 6  -9443309.81821        15.500           0.875
 91  6  3 18 42 44.9970000  0  6G18G19G11G 2G16G 6
  22744462.923    11715691.727 5   9121437.50921        11.500           0.531
  20445272.556    -1703716.356 6  -1288676.63822        18.500           2.063
  22316443.876    -9467331.355 6  -7301319.10421        16.750           0.969
  20483171.532   -20393222.256 7 -15749077.41123        25.250           3.094
  23083749.868    -5562916.085 5  -4179654.70121         9.000           0.250
  21843763.829   -12383959.622 6  -9476650.54821        15.000           0.844
 91  6  3 18 42 59.9970000  0  6G18G19G11G 2G16G 6
  22752472.540    11757780.067 5   9154233.46221        11.000           0.469
  20446643.704    -1696498.944 6  -1283052.69622        18.750           2.094
  22317893.587    -9459719.651 6  -7295387.91621        16.750           0.969
  20476747.649   -20426968.482 7 -15775373.15023        25.000           3.188
  23084945.282    -5556639.018 5  -4174763.53621         9.500           0.406
  21835635.431   -12426676.686 6  -9509936.53121        15.250           0.844
 91  6  3 18 43 14.9970000  0  6G18G19G11G 2G16G 6
  22760498.103    11799955.395 5   9187097.20021        11.000           0.531
  20448041.267    -1689170.426 6  -1277342.17522        18.500           2.031
  22319378.149    -9451915.138 6  -7289306.48221        16.500           0.938
  20470351.079   -20460589.452 7 -15801571.28223        25.500           2.969
  23086170.946    -5550205.374 5  -4169750.34821         9.250           0.344
  21827521.243   -12469330.373 6  -9543173.13721        15.000           0.875
 91  6  3 18 43 29.9970000  0  6G18G19G11G 2G16G 6
  22768542.485    11842225.532 5   9220034.80421        11.250           0.469
  20449460.704    -1681722.638 6  -1271538.72322        18.000           2.125
  22320902.290    -9443909.695 6  -7283068.48121        16.000           0.969
  20463977.946   -20494076.957 7 -15827665.41423        25.500           3.031
  23087421.345    -5543607.066 5  -4164608.84321         9.250           0.375
  21819419.353   -12511912.432 6  -9576353.92421        15.250           0.875
 91  6  3 18 43 44.9970000  0  6G18G19G11G 2G16G 6
  22776591.985    11884530.908 5   9252999.88621        10.750           0.500
  20450885.767    -1674214.843 6  -1265688.50922        18.750           2.094
  22322452.728    -9435763.036 6  -7276720.44221        16.000           0.875
  20457619.892   -20527490.457 7 -15853701.87923        25.750           3.000
  23088700.438    -5536903.851 5  -4159385.60721         9.000           0.375
  21811316.368   -12554482.333 6  -9609525.23521        15.250           0.875
 91  6  3 18 43 59.9970000  0  6G18G19G11G 2G16G 6
  22784641.274    11926836.092 5   9285964.80921        11.000           0.438
  20452321.563    -1666682.013 6  -1259818.78622        18.750           2.094
  22324021.673    -9427510.259 6  -7270289.71521        16.250           1.031
  20451268.665   -20560864.915 7 -15879707.92723        25.250           2.938
  23089988.665    -5530131.195 5  -4154108.26021         8.750           0.344
  21803212.345   -12597074.924 6  -9642714.23621        15.250           0.844
 91  6  3 18 44 14.9970000  0  6G18G19G11G 2G16G 6
  22792706.688    11969223.629 5   9318993.92421        11.000           0.438
  20453775.353    -1659041.368 6  -1253865.05622        19.250           2.031
  22325627.853    -9419068.765 6  -7263711.94721        16.250           1.094
  20444940.337   -20594117.456 7 -15905618.96523        25.500           2.906
  23091307.790    -5523206.616 5  -4148712.53121         9.250           0.313
  21795120.056   -12639607.416 6  -9675856.40121        15.250           0.906
 91  6  3 18 44 29.9970000  0  6G18G19G11G 2G16G 6
  22800780.103    12011649.587 5   9352052.97821        10.250           0.281
  20455240.610    -1651336.533 6  -1247861.30422        19.500           2.094
  22327261.884    -9410482.475 6  -7257021.34121        16.250           0.875
  20438627.728   -20627291.880 7 -15931469.13823        25.500           2.969
  23092640.110    -5516173.791 5  -4143232.45221         9.000           0.406
  21787027.829   -12682123.359 6  -9708985.67321        14.750           0.813
 91  6  3 18 44 44.9970000  0  6G18G19G11G 2G16G 6
  22808869.470    12054162.548 5   9385179.81121         9.750           0.375
  20456728.767    -1643518.617 6  -1241769.43722        19.500           2.125
  22328932.712    -9401702.601 6  -7250179.89121        16.500           0.938
  20432338.462   -20660339.309 7 -15957220.35323        25.250           2.938
  23094012.142    -5508984.340 5  -4137630.32821         9.500           0.438
  21778950.282   -12724573.886 6  -9742063.96121        14.750           0.938
 91  6  3 18 44 59.9970000  0  6G18G19G11G 2G16G 6
  22816966.040    12096696.649 5   9418323.12721         9.750           0.438
  20458223.673    -1635653.198 6  -1235640.55822        19.500           2.094
  22330628.071    -9392795.191 6  -7243239.06421        16.750           0.969
  20426062.087   -20693325.658 7 -15982923.97123        25.250           3.031
  23095396.040    -5501704.104 5  -4131957.46321         9.250           0.344
  21770870.220   -12767024.732 6  -9775142.50621        14.500           0.875
 91  6  3 18 45 14.9970000  0  6G18G19G11G 2G16G 6
  22825063.173    12139241.288 5   9451474.63521         9.750           0.406
  20459728.915    -1627750.229 6  -1229482.41222        19.000           2.094
  22332344.595    -9383770.299 6  -7236206.68721        16.750           0.938
  20419796.845   -20726260.748 7 -16008587.65023        25.750           3.125
  23096796.657    -5494343.376 5  -4126221.86521         9.250           0.375
  21762787.767   -12809485.675 6  -9808228.91321        14.500           1.000
 91  6  3 18 45 29.9970000  0  6G18G19G11G 2G16G 6
  22833150.962    12181753.897 5   9484601.19221        10.000           0.375
  20461230.274    -1619852.131 6  -1223328.07222        19.250           2.125
  22334074.384    -9374670.463 6  -7229115.91821        16.500           0.969
  20413529.876   -20759186.866 7 -16034244.33323        26.000           3.000
  23098207.915    -5486944.675 5  -4120456.69021         9.000           0.375
  21754699.118   -12851999.115 6  -9841356.22421        14.250           1.063
 91  6  3 18 45 44.9970000  0  6G18G19G11G 2G16G 6
  22841242.259    12224262.346 5   9517724.51021        10.250           0.406
  20462739.087    -1611931.010 6  -1217155.78622        18.750           2.063
  22335827.259    -9365468.052 6  -7221945.21621        16.750           0.938
  20407270.220   -20792076.301 7 -16059872.43323        25.500           3.156
  23099631.157    -5479480.579 5  -4114640.55321         9.250           0.375
  21746606.110   -12894537.086 6  -9874502.65521        15.000           0.938
 91  6  3 18 45 59.9970000  0  6G18G19G11G 2G16G 6
  22849335.642    12266790.132 5   9550862.90421        10.500           0.344
  20464254.978    -1603962.733 6  -1210946.75622        18.750           2.031
  22337602.345    -9356139.270 6  -7214676.04821        16.750           0.875
  20401023.728   -20824905.015 7 -16085453.22123        25.250           3.094
  23101063.415    -5471927.591 5  -4108755.15721         9.250           0.375
  21738510.173   -12937075.741 6  -9907649.62121        15.500           1.000
 91  6  3 18 46 14.9970000  0  6G18G19G11G 2G16G 6
  22857432.603    12309344.613 5   9584022.07821        10.250           0.250
  20465782.040    -1595939.649 6  -1204695.02022        18.500           2.063
  22339404.024    -9346676.507 6  -7207302.47121        16.750           1.000
  20394789.946   -20857665.242 7 -16110980.64623        25.250           3.156
  23102518.915    -5464277.753 5  -4102794.28621         8.750           0.250
  21730415.798   -12979607.126 6  -9940790.92321        15.250           0.938
 91  6  3 18 46 29.9970000  0  6G18G19G11G 2G16G 6
  22865536.923    12351937.784 5   9617211.42521        10.750           0.250
  20467320.673    -1587849.492 6  -1198391.01422        18.250           2.000
  22341234.298    -9337067.730 6  -7199815.12721        17.000           0.969
  20388571.548   -20890344.774 7 -16136445.19223        25.500           3.125
  23103994.618    -5456519.388 5  -4096748.84721         8.500           0.313
  21722328.134   -13022118.988 6  -9973917.02421        15.750           0.906
 91  6  3 18 46 44.9970000  0  6G18G19G11G 2G16G 6
  22873648.642    12394557.494 5   9650421.44621        10.250           0.406
  20468872.110    -1579704.068 6  -1192043.94922        18.250           2.000
  22343088.837    -9327325.103 6  -7192223.46821        17.250           0.844
  20382365.103   -20922955.531 7 -16161856.14623        25.500           3.125
  23105490.298    -5448664.848 5  -4090628.47821         8.500           0.313
  21714239.595   -13064623.175 6 -10007037.13421        15.750           0.938
 91  6  3 18 46 59.9970000  0  6G18G19G11G 2G16G 6
  22881760.509    12437180.664 5   9683634.15221        10.750           0.313
  20470427.071    -1571526.095 6  -1185671.51922        18.500           1.906
  22344961.251    -9317471.466 6  -7184545.31821        17.000           1.031
  20376168.040   -20955520.300 7 -16187231.27323        25.750           3.094
  23106999.720    -5440737.149 5  -4084451.09221         8.500           0.375
  21706146.696   -13107142.387 6 -10040168.95021        15.750           0.938
 91  6  3 18 47 14.9970000  0  6G18G19G11G 2G16G 6
  22889868.743    12479803.394 5   9716846.51421        10.000           0.500
  20471989.845    -1563319.228 6  -1179276.57522        18.000           2.031
  22346855.954    -9307510.703 6  -7176783.70021        17.500           0.844
  20369979.571   -20988042.735 7 -16212573.40323        25.250           3.031
  23108521.813    -5432739.872 5  -4078219.48521         8.000           0.344
  21698052.868   -13149680.100 6 -10073315.18421        15.500           0.938
 91  6  3 18 47 29.9970000  0  6G18G19G11G 2G16G 6
  22897981.767    12522437.251 5   9750068.04721        10.000           0.469
  20473559.001    -1555071.817 6  -1172849.53822        18.250           1.906
  22348772.603    -9297431.462 6  -7168929.25821        17.250           1.000
  20363801.368   -21020511.162 7 -16237873.45323        25.250           3.063
  23110054.860    -5424661.679 5  -4071924.82221         8.000           0.313
  21689958.040   -13192224.708 6 -10106466.28821        16.250           0.875
 91  6  3 18 47 44.9970000  0  6G18G19G11G 2G16G 6
  22906102.454    12565112.516 5   9783321.35521        10.500           0.469
  20475141.743    -1546752.966 6  -1166367.33322        18.000           1.969
  22350718.868    -9287203.073 6  -7160959.09921        16.750           0.938
  20357638.782   -21052894.874 7 -16263107.49223        25.250           3.000
  23111615.142    -5416472.241 5  -4065543.49321         8.250           0.344
  21681865.313   -13234745.349 6 -10139599.21521        16.000           0.969
 91  6  3 18 47 59.9970000  0  6G18G19G11G 2G16G 6
  22914213.431    12607736.510 5   9816534.70921        10.000           0.563
  20476721.829    -1538454.959 6                        18.000
  22352678.048    -9276918.056 6  -7152944.80521        17.000           0.906
  20351473.774   -21085286.168 7 -16288347.43723        25.000           3.156
  23113178.056    -5408264.105 5                         8.000
  21673762.735   -13277334.179 6 -10172785.28121        16.000           1.000
 91  6  3 18 48 14.9970000  0  6G18G19G11G 2G16G 6
  22922320.337    12650335.650 5   9849728.68421        10.000           0.438
  20478302.501    -1530151.292 6                        17.750
  22354650.282    -9266550.251 6  -7144866.01221        17.500           0.906
  20345314.181   -21117658.691 7 -16313572.75723        25.250           3.063
  23114748.868    -5400011.167 5                         8.250
  21665650.165   -13319964.900 6 -10206003.99121        16.250           0.969
 91  6  3 18 48 29.9970000  0  6G18G19G11G 2G16G 6
  22930438.743    12692988.755 5   9882964.70321        10.500           0.406
  20479894.353    -1521762.630 6                        18.250
  22356655.743    -9256020.693 6  -7136661.16821        17.500           0.906
  20339173.103   -21149933.122 7 -16338721.63723        25.000           3.156
  23116345.024    -5391634.614 5                         8.250
  21657543.040   -13362558.171 6 -10239193.51821        16.000           1.000
 91  6  3 18 48 44.9970000  0  6G18G19G11G 2G16G 6
  22938554.485    12735639.861 5   9916199.19721        10.750           0.438
  20481501.087    -1513344.543 6                        17.750
  22358680.126    -9245385.162 6  -7128373.74321        17.750           0.906
  20333039.188   -21182165.097 7 -16363837.43323        25.000           3.094
  23117946.235    -5383190.355 5                         8.000
  21649435.485   -13405169.488 6 -10272397.10121        16.250           1.063
 91  6  3 18 48 59.9970000  0  6G18G19G11G 2G16G 6
  22946666.126    12778263.493 5   9949412.27121        10.250           0.469
  20483101.556    -1504922.270 6                        17.250
  22360720.720    -9234669.106 6  -7120023.57621        17.750           0.938
  20326909.228   -21214379.869 7 -16388939.82723        24.750           3.000
  23119566.595    -5374703.875 5                         8.500
  21641319.556   -13447824.019 6 -10305634.35821        16.250           1.031
 91  6  3 18 49 14.9970000  0  6G18G19G11G 2G16G 6
  22954783.673    12820917.922 5   9982649.33821         9.750           0.344
  20484718.595    -1496437.247 6  -1127160.38222        17.500           1.875
  22362785.345    -9223814.052 6  -7111565.09421        17.500           0.906
  20320792.298   -21246518.945 7 -16413983.23523        24.750           3.094
  23121195.556    -5366116.615 5  -4026305.59221         8.000           0.281
  21633205.024   -13490463.160 6 -10338859.62621        16.250           1.094
 91  6  3 18 49 29.9970000  0  6G18G19G11G 2G16G 6
  22962907.790    12863599.278 5  10015907.35521        10.000           0.500
  20486340.603    -1487892.985 6  -1120502.53522        17.500           1.969
  22364876.532    -9212823.734 6  -7103001.22721        17.500           0.938
  20314691.946   -21278585.799 7 -16438970.36323        25.250           2.969
  23122852.634    -5357432.408 5  -4019538.70721         8.000           0.313
  21625092.142   -13533090.373 6 -10372075.59321        16.250           1.094
 91  6  3 18 49 44.9970000  0  6G18G19G11G 2G16G 6
  22971031.595    12906296.561 5  10049177.80721         9.750           0.438
  20487977.931    -1479300.313 6  -1113806.96622        17.000           1.875
  22366990.431    -9201709.170 6  -7094340.53521        17.500           0.844
  20308600.642   -21310591.324 7 -16463909.70423        25.000           3.031
  23124519.423    -5348662.272 5  -4012704.89921         8.250           0.438
  21616980.907   -13575716.344 6 -10405290.60321        16.250           1.094
 91  6  3 18 49 59.9970000  0  6G18G19G11G 2G16G 6
  22979155.907    12948980.962 5  10082438.21821        10.250           0.469
  20489617.642    -1470687.898 6  -1107096.01422        17.250           1.875
  22369122.962    -9190499.339 6  -7085605.61621        17.250           0.906
  20302515.509   -21342564.351 7 -16488823.72823        25.000           3.156
  23126204.009    -5339835.538 5  -4005826.97321         8.750           0.469
  21608863.204   -13618369.812 6 -10438527.02721        16.000           1.063
 91  6  3 18 50 14.9970000  0  6G18G19G11G 2G16G 6
  22987275.798    12991655.242 5  10115690.74021        10.250           0.438
  20491260.587    -1462052.341 6  -1100367.02522        17.500           1.906
  22371274.899    -9179191.090 6  -7076794.00021        17.250           0.875
  20296438.978   -21374501.393 7 -16513709.71223        25.750           3.063
  23127892.798    -5330949.248 5  -3998902.62721         8.500           0.344
  21600741.446   -13661047.392 6 -10471782.24021        16.250           1.031
 91  6  3 18 50 29.9970000  0  6G18G19G11G 2G16G 6
  22995405.228    13034375.633 5  10148979.19521         9.750           0.344
  20492918.017    -1453336.802 6  -1093575.72322        17.250           1.906
  22373455.767    -9167727.884 6  -7067861.63621        17.000           0.906
  20290380.009   -21406345.860 7 -16538523.55223        25.750           3.094
  23129605.188    -5321946.930 5  -3991887.89121         8.500           0.344
  21592628.938   -13703692.253 6 -10505011.96021        16.500           1.063
 91  6  3 18 50 44.9970000  0  6G18G19G11G 2G16G 6
  23003529.407    13077074.710 5  10182251.05521         9.750           0.375
  20494580.329    -1444608.748 6  -1086774.66222        17.250           1.875
  22375654.704    -9156177.450 6  -7058861.30821        17.000           0.875
  20284323.813   -21438165.140 7 -16563317.77323        25.750           3.125
  23131326.548    -5312896.122 5  -3984835.35121         7.750           0.375
  21584506.767   -13746371.790 6 -10538268.70421        16.500           1.094
 91  6  3 18 50 59.9970000  0  6G18G19G11G 2G16G 6
  23011656.165    13119783.028 5  10215530.09721         9.000           0.406
  20496250.235    -1435837.261 6  -1079939.75922        17.250           1.906
  22377874.829    -9144509.024 6  -7049769.03721        17.250           0.875
  20278278.673   -21469928.327 7 -16588068.28623        25.750           3.125
  23133063.954    -5303766.205 5  -3977721.17721         8.000           0.188
  21576383.735   -13789055.036 6 -10571528.32921        16.250           1.125
 91  6  3 18 51 14.9970000  0  6G18G19G11G 2G16G 6
  23019786.485    13162493.428 5  10248810.75221         9.250           0.219
  20497925.071    -1427029.285 6  -1073076.42222        17.000           1.969
  22380116.813    -9132729.811 6  -7040590.43421        17.000           0.938
  20272244.290   -21501642.356 7 -16612780.49223        26.000           3.156
  23134815.462    -5294564.505 5  -3970551.06521         7.500           0.250
  21568258.704   -13831748.796 6 -10604796.15321        16.000           1.156
 91  6  3 18 51 29.9970000  0  6G18G19G11G 2G16G 6
  23027909.806    13205197.052 5  10282086.14721         9.000           0.281
  20499604.767    -1418193.355 6  -1066191.30622        17.750           2.063
  22382377.196    -9120848.609 6  -7031332.36621        17.000           0.969
  20266217.743   -21533315.891 7 -16637461.14723        26.250           3.156
  23136580.337    -5285299.822 5  -3963331.86921         7.750           0.188
  21560131.235   -13874461.626 6 -10638078.83521        16.000           1.094
 91  6  3 18 51 44.9970000  0  6G18G19G11G 2G16G 6
  23036039.618    13247925.707 5  10315381.04621         8.500           0.344
  20501300.985    -1409297.272 6  -1059259.31722        17.000           2.031
  22384663.048    -9108833.480 6  -7021969.93121        17.000           0.906
  20260202.368   -21564916.714 7 -16662085.14423        26.250           3.094
  23138357.188    -5275940.326 5  -3956038.78921         7.750           0.313
  21552005.478   -13917161.332 6 -10671351.29121        16.000           1.094
 91  6  3 18 51 59.9970000  0  6G18G19G11G 2G16G 6
  23044180.501    13290705.706 5  10348715.96221         9.000           0.250
  20503011.751    -1400314.452 6  -1052259.73422        16.750           2.063
  22386979.657    -9096657.968 6  -7012482.53521        16.750           0.969
  20254209.290   -21596418.294 7 -16686631.81123        26.250           3.156
  23140161.532    -5266459.722 5  -3948651.35521         8.000           0.438
  21543889.782   -13959821.205 6 -10704592.70621        16.000           1.094
 91  6  3 18 52 14.9970000  0  6G18G19G11G 2G16G 6
  23052332.728    13333559.441 5  10382108.33021         9.000           0.219
  20504739.032    -1391222.046 6  -1045174.76322        17.000           2.125
  22389331.220    -9084299.573 6  -7002852.62121        17.000           1.031
  20248238.032   -21627797.885 7 -16711083.42323        26.250           3.188
  23141998.884    -5256835.728 5  -3941152.19121         8.250           0.219
  21535780.392   -14002418.441 6 -10737785.31821        15.250           1.031
 91  6  3 18 52 29.9970000  0  6G18G19G11G 2G16G 6
  23060492.696    13376441.511 5  10415522.78721         9.000           0.375
  20506481.103    -1382065.421 6  -1038039.74822        17.000           2.063
  22391712.509    -9071803.789 6  -6993115.65521        16.750           0.844
  20242280.446   -21659100.893 7 -16735475.35823        26.500           3.063
  23143844.884    -5247113.789 5  -3933576.69921         8.000           0.281
  21527679.485   -14044998.308 6 -10770964.39621        15.500           1.094
 91  6  3 18 52 44.9970000  0  6G18G19G11G 2G16G 6
  23068667.212    13419387.886 5  10448987.35021         9.750           0.313
  20508242.306    -1372808.156 6  -1030826.31622        16.750           2.094
  22394121.071    -9059134.536 6  -6983243.51821        16.250           0.938
  20236345.454   -21690291.036 7 -16759779.34323        26.000           3.250
  23145720.243    -5237257.806 5  -3925896.75921         8.000           0.344
  21519587.837   -14087524.340 6 -10804101.51521        15.750           1.000
 91  6  3 18 52 59.9970000  0  6G18G19G11G 2G16G 6
  23076837.157    13462309.747 5  10482432.79621         9.500           0.375
  20510005.079    -1363538.591 6  -1023603.29922        17.250           2.094
  22396547.665    -9046380.439 6  -6973305.26821        16.250           0.906
  20230414.735   -21721456.629 7 -16784064.20323        26.000           3.313
  23147604.821    -5227356.455 5  -3918181.44621         8.000           0.313
  21511487.095   -14130084.795 6 -10837265.46921        15.500           1.094
 91  6  3 18 53 14.9970000  0  6G18G19G11G 2G16G 6
  23085011.743    13505265.857 5  10515904.92121         9.750           0.375
  20511785.095    -1354197.815 6  -1016324.79722        16.750           2.219
  22399001.681    -9033483.060 6  -6963255.37421        16.750           0.938
  20224499.759   -21752538.824 7 -16808284.07923        25.750           3.344
  23149507.134    -5217351.420 5  -3910385.37021         8.250           0.375
  21503393.048   -14172620.982 6 -10870410.51721        15.750           1.094
 91  6  3 18 53 29.9970000  0  6G18G19G11G 2G16G 6
  23093192.337    13548258.531 5  10549405.53821         9.500           0.438
  20513573.329    -1344783.166 6  -1008988.72822        16.750           2.188
  22401485.759    -9020439.846 6  -6953091.83521        16.750           0.938
  20218601.149   -21783534.980 7 -16832436.90923        25.750           3.406
  23151436.399    -5207240.203 5  -3902506.54821         8.500           0.313
  21495302.954   -14215130.066 6 -10903534.43821        16.000           1.031
 91  6  3 18 53 44.9970000  0  6G18G19G11G 2G16G 6
  23101375.610    13591249.923 5  10582905.14921        10.000           0.438
  20515375.353    -1335332.004 6  -1001624.20922        16.500           2.031
  22403984.813    -9007288.322 6  -6942843.91121        16.250           0.906
  20212712.962   -21814482.411 7 -16856551.76623        26.250           3.406
  23153371.962    -5197060.417 5  -3894574.29421         7.500           0.250
  21487213.298   -14257649.268 6 -10936666.25121        15.750           1.063
 91  6  3 18 53 59.9970000  0  6G18G19G11G 2G16G 6
  23109565.587    13634287.514 5  10616440.78721        10.250           0.344
  20517189.556    -1325796.686 6   -994194.11422        16.750           2.094
  22406520.243    -8993981.146 6  -6932474.69221        16.500           0.875
  20206842.759   -21845333.608 7 -16880591.64023        26.000           3.344
  23155330.907    -5186765.045 5  -3886551.97721         8.000           0.250
  21479129.415   -14300130.969 6 -10969768.83521        15.750           1.031
 91  6  3 18 54 14.9970000  0  6G18G19G11G 2G16G 6
  23117755.087    13677325.399 5  10649976.64321         9.750           0.344
  20519012.501    -1316222.833 6   -986733.99222        17.500           1.938
  22409071.587    -8980564.405 6  -6922020.09921        16.250           0.875
  20200981.845   -21876134.365 7 -16904592.21023        26.250           3.281
  23157303.376    -5176399.824 5  -3878475.23321         7.750           0.250
  21471043.673   -14342620.774 6 -11002877.74321        16.000           1.125
 91  6  3 18 54 29.9970000  0  6G18G19G11G 2G16G 6
  23125959.962    13720432.657 5  10683566.54221        10.000           0.344
  20520850.360    -1306541.027 6   -979189.75422        17.500           2.000
  22411661.759    -8966968.868 6  -6911426.18621        16.250           0.969
  20195141.376   -21906815.286 7 -16928499.40023        26.000           3.344
  23159301.399    -5165895.846 5  -3870290.36021         7.750           0.250
  21462968.790   -14385049.301 6 -11035938.89821        16.000           1.188
 91  6  3 18 54 44.9970000  0  6G18G19G11G 2G16G 6
  23134153.196    13763493.669 5  10717120.44721         9.500           0.219
  20522695.782    -1296866.557 6   -971651.23322        17.500           2.031
  22414258.556    -8953309.976 6  -6900782.90721        15.750           0.750
  20189303.837   -21937491.844 7 -16952403.19523        25.750           3.281
  23161301.610    -5155368.464 4  -3862087.23821         7.250           0.406
  21454884.165   -14427531.558 6 -11069041.92721        16.000           1.094
 91  6  3 18 54 59.9970000  0  6G18G19G11G 2G16G 6
  23142351.657    13806588.557 5  10750700.70321         9.500           0.188
  20524547.993    -1287118.852 6   -964055.64022        17.750           2.063
  22416886.806    -8939507.515 6  -6890027.74621        16.500           0.969
  20183484.251   -21968083.455 7 -16976240.79423        25.500           3.375
  23163326.649    -5144737.525 4  -3853803.43021         7.000           0.219
  21446807.095   -14469987.215 6 -11102124.22021        16.250           1.125
 91  6  3 18 55 14.9970000  0  6G18G19G11G 2G16G 6
  23150567.462    13849756.266 5  10784337.73621         9.000           0.281
  20526426.259    -1277258.741 6   -956372.45922        18.000           2.000
  22419547.759    -8925522.612 6  -6879130.42221        17.000           0.938
  20177684.642   -21998551.078 7 -16999981.77823        25.250           3.313
  23165376.079    -5133964.143 5  -3845408.65821         7.500           0.156
  21438739.212   -14512376.903 6 -11135155.10521        16.000           0.938
 91  6  3 18 55 29.9970000  0  6G18G19G11G 2G16G 6
  23158790.337    13892970.270 5  10818010.81521         8.500           0.344
  20528318.657    -1267312.422 6   -948622.10622        18.500           2.125
  22422238.181    -8911381.750 6  -6868111.58721        16.750           0.813
  20171905.962   -22028920.946 7 -17023646.59023        25.500           3.344
  23167449.220    -5123075.089 5  -3836923.72521         7.750           0.281
  21430679.845   -14554726.887 6 -11168155.06521        16.000           1.094
 91  6  3 18 55 44.9970000  0  6G18G19G11G 2G16G 6
  23167020.673    13936215.171 5  10851707.97721         8.500           0.313
  20530225.767    -1257295.142 6   -940816.45822        18.000           2.063
  22424955.821    -8897100.219 6  -6856983.12721        16.500           0.813
  20166142.431   -22059208.043 7 -17047246.90723        25.500           3.406
  23169539.728    -5112085.760 5  -3828360.68321         8.250           0.281
  21422625.743   -14597052.064 6 -11201135.67321        15.750           1.125
 91  6  3 18 55 59.9970000  0  6G18G19G11G 2G16G 6
  23175264.454    13979537.429 5  10885465.42821         8.250           0.375
  20532155.571    -1247159.863 6   -932918.86422        17.500           2.063
  22427712.173    -8882631.317 6  -6845708.67321        16.500           0.781
  20160405.235   -22089365.543 7 -17070746.23723        25.500           3.344
  23171658.923    -5100949.406 5  -3819683.04921         8.250           0.313
  21414585.962   -14639305.558 6 -11234060.44321        16.250           1.156
 91  6  3 18 56 14.9970000  0  6G18G19G11G 2G16G 6
  23183513.556    14022900.192 5  10919254.43421         8.000           0.375
  20534097.946    -1236943.137 6   -924957.80622        18.250           2.156
  22430491.759    -8868011.907 6  -6834316.93721        16.750           0.781
  20154682.642   -22119430.051 7 -17094173.10823        25.250           3.438
  23173800.806    -5089703.135 5  -3810919.78921         8.250           0.281
  21406552.188   -14681523.865 6 -11266957.79021        16.750           1.156
 91  6  3 18 56 29.9970000  0  6G18G19G11G 2G16G 6
  23191773.126    14066310.598 5  10953080.55621         7.500           0.344
  20536059.063    -1226637.492 6   -916927.46422        18.500           2.125
  22433303.032    -8853234.742 6  -6822802.26921        16.500           0.875
  20148980.274   -22149394.135 7 -17117521.72923        25.500           3.375
  23175964.556    -5078339.683 5  -3802065.20021         8.000           0.281
  21398525.415   -14723699.478 6 -11299821.86721        17.000           1.219
 91  6  3 18 56 44.9970000  0  6G18G19G11G 2G16G 6
  23200045.853    14109772.940 5  10986947.15921         7.750           0.313
  20538037.798    -1216238.444 6   -908824.33522        18.250           2.000
  22436144.493    -8838295.670 6  -6811161.46321        16.500           0.781
  20143297.306   -22179253.393 7 -17140788.66623        25.500           3.406
  23178148.493    -5066854.830 5  -3793116.04421         8.000           0.313
  21390510.040   -14765827.859 6 -11332649.13921        17.250           1.063
 91  6  3 18 56 59.9970000  0  6G18G19G11G 2G16G 6
  23208311.759    14153206.867 5  11020792.12121         7.750           0.313
  20540017.868    -1205826.166 6   -900710.40022        18.250           1.969
  22439003.563    -8823275.096 6  -6799456.62321        16.500           0.813
  20137622.313   -22209088.142 7 -17164036.00223        25.750           3.438
  23180340.571    -5055329.352 5  -3784134.70721         8.250           0.313
  21382487.509   -14807989.048 6 -11365501.47521        17.250           1.125
 91  6  3 18 57 14.9970000  0  6G18G19G11G 2G16G 6
  23216592.337    14196723.504 5  11054701.03321         7.500           0.188
  20542023.673    -1195289.152 6   -892499.76522        17.750           2.063
  22441899.665    -8808061.792 6  -6787602.11221        16.500           0.781
  20131970.735   -22238786.995 7 -17187177.94523        25.750           3.438
  23182563.790    -5043651.934 5  -3775035.47021         7.750           0.219
  21374479.696   -14850071.540 6 -11398292.98421        17.750           1.094
 91  6  3 18 57 29.9970000  0  6G18G19G11G 2G16G 6
  23224882.931    14240301.142 5  11088657.48821         7.750           0.250
  20544046.665    -1184648.847 6   -884208.64822        18.250           2.063
  22444826.743    -8792677.543 6  -6775614.40121        16.500           0.781
  20126339.735   -22268371.403 7 -17210230.71123        26.000           3.344
  23184810.673    -5031844.529 5  -3765834.94521         7.500           0.188
  21366481.767   -14892096.764 6 -11431039.87621        17.750           1.188
 91  6  3 18 57 44.9970000  0  6G18G19G11G 2G16G 6
  23233184.290    14283914.442 5  11122641.69221         8.250           0.250
  20546087.892    -1173929.899 6   -875856.24222        17.750           2.031
  22447783.892    -8777147.274 6  -6763512.90821        16.500           0.875
  20120725.970   -22297866.157 7 -17233213.61723        25.750           3.344
  23187076.173    -5019931.868 5  -3756552.42621         7.500           0.250
  21358490.196   -14934089.430 6 -11463761.38921        18.000           1.188
 91  6  3 18 57 59.9970000  0  6G18G19G11G 2G16G 6
  23241523.548    14327724.964 5  11156779.62021         8.750           0.375
  20548173.907    -1162970.440 6   -867316.43422        18.250           2.125
  22450795.767    -8761309.334 6  -6751171.67221        16.500           0.875
  20115163.165   -22327109.234 7 -17256000.40824        25.750           3.531
  23189395.110    -5007752.528 5  -3747062.10321         8.250           0.344
  21350536.493   -14975887.510 6 -11496331.27821        18.000           1.219
 91  6  3 18 58 14.9970000  0  6G18G19G11G 2G16G 6
  23249876.493    14371613.555 5  11190978.37021         8.750           0.156
  20550284.657    -1151889.596 6   -858682.03622        17.750           2.156
  22453844.603    -8745283.321 6  -6738683.87521        16.500           0.875
  20109624.306   -22356219.791 7 -17278683.93723        26.500           3.406
  23191740.720    -4995426.167 5  -3737457.17821         8.250           0.219
  21342597.813   -15017610.166 6 -11528842.39921        18.250           1.219
 91  6  3 18 58 29.9970000  0  6G18G19G11G 2G16G 6
  23258244.985    14415594.156 5  11225248.82621         9.000           0.219
  20552416.478    -1140673.130 6   -849941.95222        17.750           2.125
  22456932.681    -8729055.035 6  -6726038.47121        16.750           0.656
  20104113.298   -22385183.659 7 -17301253.16123        26.750           3.438
  23194117.938    -4982938.489 5  -3727726.57221         8.000           0.250
  21334674.282   -15059242.843 6 -11561283.40221        17.750           1.313
 91  6  3 18 58 44.9970000  0  6G18G19G11G 2G16G 6
  23266631.204    14459653.884 5  11259580.92921         9.000           0.313
  20554574.673    -1129333.576 6   -841105.96422        17.750           2.188
  22460057.501    -8712637.500 6  -6713245.59821        16.500           0.781
  20098626.063   -22414013.532 7 -17323717.97724        26.500           3.500
  23196522.462    -4970302.606 5  -3717880.50621         7.500           0.188
  21326766.196   -15100798.186 6 -11593664.14921        17.750           1.250
 91  6  3 18 58 59.9970000  0  6G18G19G11G 2G16G 6
  23275024.360    14503764.093 5  11293952.36321         8.750           0.281
  20556750.587    -1117899.031 6   -832195.95522        18.000           2.188
  22463213.665    -8696059.085 6  -6700327.37221        16.250           0.781
  20093158.860   -22442737.539 7 -17346100.30123        26.250           3.375
  23198951.353    -4957546.975 5  -3707941.11221         7.750           0.344
  21318868.712   -15142304.248 6 -11626006.49521        17.750           1.406
 91  6  3 18 59 14.9970000  0  6G18G19G11G 2G16G 6
  23283432.892    14547949.864 5  11328382.66021         8.750           0.250
  20558950.938    -1106344.231 6   -823192.24522        17.750           2.188
  22466402.415    -8679294.696 6  -6687264.21721        16.500           0.875
  20087717.368   -22471330.370 7 -17368380.40423        26.000           3.469
  23201407.782    -4944646.889 5  -3697889.16221         8.250           0.250
  21310984.470   -15183735.731 6 -11658290.72221        17.750           1.188
 91  6  3 18 59 29.9970000  0  6G18G19G11G 2G16G 6
  23291859.579    14592221.535 5  11362879.90521         9.250           0.281
  20561172.032    -1094658.755 6   -814086.70722        18.250           2.094
  22469630.563    -8662334.288 6  -6674048.32621        16.500           0.719
  20082305.298   -22499781.672 7 -17390550.22523        26.250           3.344
  23203886.735    -4931591.811 5  -3687716.41721         7.500           0.219
  21303115.798   -15225082.061 6 -11690508.60321        17.500           1.219
 91  6  3 18 59 44.9970000  0  6G18G19G11G 2G16G 6
  23300284.337    14636493.417 5  11397377.29821         9.250           0.250
  20563407.493    -1082927.695 6   -804945.64522        17.750           2.219
  22472878.759    -8645263.033 6  -6660746.06721        16.250           0.781
  20076901.079   -22528176.618 7 -17412676.13124        26.250           3.531
  23206384.423    -4918467.192 5  -3677489.52121         7.500           0.281
  21295249.329   -15266428.216 6 -11722726.34021        18.250           1.219
 91  6  3 18 59 59.9970000  0  6G18G19G11G 2G16G 6
  23308724.938    14680862.481 5  11431950.46621         8.750           0.313
  20565664.853    -1071053.989 6   -795693.43422        18.250           2.031
  22476168.126    -8627984.179 6  -6647282.03921        16.250           0.781
  20071526.884   -22556418.266 7 -17434682.58423        26.000           3.438
  23208911.532    -4905176.762 5  -3667133.41321         7.500           0.281
  21287396.993   -15307677.187 6 -11754868.35421        17.750           1.375
 91  6  3 19  0 14.9970000  0  6G18G19G11G 2G16G 6
  23317174.798    14725263.027 5  11466548.11021         9.000           0.094
  20567941.048    -1059103.193 6   -786381.15622        17.750           2.125
  22479481.321    -8610563.516 6  -6633707.50821        16.250           0.813
  20066169.431   -22584572.109 7 -17456620.62323        26.000           3.438
  23211459.407    -4891785.928 4  -3656699.03821         7.250           0.250
  21279555.712   -15348894.224 6 -11786985.48121        18.000           1.250
 91  6  3 19  0 29.9970000  0  6G18G19G11G 2G16G 6
  23325626.384    14769668.292 5  11501149.48421         8.500           0.250
  20570223.353    -1047101.228 6   -777029.00222        17.500           2.094
  22482818.907    -8593027.547 6  -6620043.14321        16.250           0.844
  20060822.813   -22612664.416 7 -17478510.71123        26.000           3.406
  23214025.665    -4878321.217 5  -3646207.12921         7.500           0.375
  21271711.845   -15390105.560 6 -11819098.16721        18.000           1.313
 91  6  3 19  0 44.9970000  0  6G18G19G11G 2G16G 6
  23334092.267    14814170.969 5  11535826.72321         7.750           0.156
  20572534.728    -1034955.455 6   -767564.78822        17.750           2.094
  22486195.759    -8575283.786 6  -6606216.84421        15.750           0.813
  20055507.056   -22640602.461 7 -17500280.59323        26.500           3.469
  23216619.282    -4864690.495 4  -3635585.86021         7.000           0.313
  21263890.220   -15431218.351 6 -11851134.06321        18.250           1.313
 91  6  3 19  0 59.9970000  0  6G18G19G11G 2G16G 6
  23342546.704    14858604.280 5  11570449.91121         7.500           0.219
  20574839.665    -1022832.229 6   -758118.14722        18.250           2.000
  22489578.853    -8557498.699 6  -6592358.36121        15.750           0.844
  20050188.431   -22668552.563 7 -17522059.87123        26.750           3.344
  23219212.954    -4851060.398 5  -3624965.06721         7.500           0.281
  21256053.212   -15472398.849 6 -11883222.72221        18.250           1.219
 91  6  3 19  1 14.9970000  0  6G18G19G11G 2G16G 6
  23351002.915    14903035.724 5  11605071.62621         7.500           0.313
  20577158.259    -1010663.899 6   -748636.36122        17.500           2.031
  22492985.563    -8539604.998 6  -6578415.23721        16.000           0.688
  20044880.212   -22696447.231 7 -17543795.95823        26.750           3.375
  23221816.024    -4837363.511 4  -3614292.21921         7.000           0.219
  21248216.743   -15513579.280 6 -11915311.32921        18.250           1.344
 91  6  3 19  1 29.9970000  0  6G18G19G11G 2G16G 6
  23359456.860    14947455.932 4  11639684.61721         7.250           0.156
  20579479.626     -998459.356 6   -739126.35522        17.250           1.969
  22496411.001    -8521611.987 6  -6564394.73121        16.000           0.688
  20039579.759   -22724295.443 7 -17565495.84424        27.000           3.563
  23224432.899    -4823608.910 4  -3603574.39221         7.000           0.281
  21240378.446   -15554768.549 6 -11947406.82821        17.500           1.313
 91  6  3 19  1 44.9970000  0  6G18G19G11G 2G16G 6
  23367917.720    14991934.861 4  11674343.33521         7.000           0.156
  20581821.665     -986148.471 6   -729533.48522        17.500           1.938
  22499867.087    -8503449.837 6  -6550242.43721        15.750           0.844
  20034303.282   -22752026.933 7 -17587104.78023        26.750           3.344
  23227078.329    -4809726.925 4  -3592757.31621         7.000           0.250
  21232550.970   -15595896.500 6 -11979454.53821        17.750           1.313
 91  6  3 19  1 59.9970000  0  6G18G19G11G 2G16G 6
  23376374.892    15036370.742 4  11708968.55321         7.250           0.188
  20584164.540     -973832.462 6   -719936.62222        18.250           1.906
  22503333.204    -8485220.040 6  -6536037.42021        15.500           0.750
  20029030.118   -22779743.123 7 -17608701.79323        26.750           3.344
  23229721.118    -4795819.391 4  -3581920.33921         7.250           0.313
  21224717.946   -15637064.222 6 -12011533.24121        18.000           1.375
 91  6  3 19  2 14.9970000  0  6G18G19G11G 2G16G 6
  23384842.517    15080875.293 4  11743647.24821         7.250           0.219
  20586533.938     -961399.277 6   -710248.45522        17.500           1.938
  22506833.884    -8466810.818 6  -6521692.59321        14.750           0.688
  20023780.306   -22807331.975 7 -17630199.58623        27.000           3.438
  23232397.962    -4781774.459 5  -3570976.29921         7.500           0.313
  21216897.978   -15678159.619 6 -12043555.59821        18.000           1.344
 91  6  3 19  2 29.9970000  0  6G18G19G11G 2G16G 6
  23393297.571    15125310.688 4  11778272.08721         6.750           0.156
  20588895.188     -948986.635 6   -700575.79822        17.750           2.031
  22510345.212    -8448360.128 6  -6507314.96121        15.250           0.781
  20018527.235   -22834931.280 7 -17651705.02323        27.000           3.375
  23235071.978    -4767730.101 4  -3560032.69921         7.000           0.344
  21209065.071   -15719320.312 6 -12075628.33221        18.000           1.375
 91  6  3 19  2 44.9970000  0  6G18G19G11G 2G16G 6
  23401768.704    15169812.746 4  11812948.84821         6.750           0.375
  20591279.165     -936458.366 6   -690813.54022        17.250           1.875
  22513890.157    -8429732.119 6  -6492799.64721        15.000           0.844
  20013298.103   -22862404.857 7 -17673112.99123        27.000           3.375
  23237768.071    -4753550.490 4  -3548983.72821         7.000           0.219
  21201247.142   -15760410.111 6 -12107646.32121        18.250           1.250
 91  6  3 19  2 59.9960000  0  5G18G19G11G 2G 6
  23410216.746    15214224.867 4  11847555.52421         6.250           0.281
  20593655.785     -923968.531 6   -681081.23022        17.250           1.719
  22517440.973    -8411081.721 6  -6478266.90821        15.250           0.781
  20008065.785   -22889904.502 7 -17694541.26824        27.250           3.500
  21193412.363   -15801579.550 6 -12139726.37321        18.000           1.281
 91  6  3 19  3 14.9960000  0  5G18G19G11G 2G 6
  23418645.004    15258503.805 4  11882058.40221         6.250           0.313
  20596016.887     -911564.501 6   -671415.78622        17.250           1.813
  22520987.434    -8392455.541 6  -6463753.02421        15.250           0.906
  20002819.051   -22917482.613 7 -17716030.69223        27.500           3.406
  21185553.160   -15842882.845 6 -12171910.72421        18.000           1.344
 91  6  3 19  3 29.9960000  0  5G18G19G11G 2G 6
  23427069.996    15302775.789 4  11916555.86021         6.250           0.250
  20598384.262     -899117.415 6   -661716.78622        17.000           1.750
  22524550.981    -8373725.432 6  -6449158.16021        15.500           0.781
  19997580.520   -22945007.693 7 -17737478.79023        27.500           3.438
  21177691.598   -15884187.486 6 -12204096.12921        18.000           1.281
 91  6  3 19  3 44.9960000  0  5G18G19G11G 2G 6
  23435466.746    15346901.551 4  11950939.41821         6.500           0.281
  20600734.785     -886766.129 6   -652092.43222        17.000           1.813
  22528109.027    -8355030.660 6  -6434590.83021        15.500           0.781
  19992326.129   -22972618.713 7 -17758993.85424        27.750           3.531
  21169805.129   -15925632.316 6 -12236390.77121        17.750           1.250
 91  6  3 19  3 59.9960000  0  4G19G11G 2G 6
  20603022.012     -874732.368 6   -642715.50722        17.750           1.813
  22531615.402    -8336593.405 6  -6420224.16621        15.000           0.844
  19987013.660   -23000537.625 8 -17780748.83323        28.250           3.375
  21161848.309   -15967439.198 6 -12268967.53321        17.000           1.313
 91  6  3 19  4 14.9960000  0  4G19G11G 2G 6
  20605328.637     -862622.694 6   -633279.42722        17.000           1.781
  22535151.582    -8318020.245 6  -6405751.59521        15.500           0.781
  19981717.090   -23028370.906 8 -17802437.08823        28.000           3.469
  21153901.168   -16009214.364 6 -12301519.58221        17.500           1.281
 91  6  3 19  4 29.9960000  0  4G19G11G 2G 6
  20607632.684     -850526.111 6   -623853.54722        16.750           1.719
  22538693.785    -8299400.433 6  -6391242.67221        15.500           0.813
  19976419.941   -23056207.541 7 -17824127.95323        27.500           3.469
  21145939.473   -16051046.751 6 -12334116.21521        17.250           1.188
 91  6  3 19  4 44.9960000  0  4G19G11G 2G 6
  20609943.902     -838378.223 6   -614387.68722        16.750           1.844
  22542258.613    -8280670.006 6  -6376647.56321        15.500           0.750
  19971134.910   -23083983.188 7 -17845771.29423        27.500           3.438
  21137981.207   -16092871.918 6 -12366707.22421        17.250           1.313
 91  6  3 19  4 59.9960000  0  4G19G11G 2G 6
  20612260.285     -826201.039 6   -604899.00422        16.500           1.875
  22545842.473    -8261851.322 6  -6361983.68321        15.750           0.781
  19965855.621   -23111720.017 7 -17867384.39023        27.500           3.469
  21130018.981   -16134711.742 6 -12399309.65321        17.500           1.219
 91  6  3 19  5 14.9960000  0  4G19G11G 2G 6
  20614575.613     -814032.782 6   -595417.27122        16.250           1.750
  22549433.324    -8242982.938 6  -6347281.06821        15.750           0.719
  19960578.137   -23139456.280 7 -17888997.04323        27.500           3.375
  21122047.035   -16176604.425 6 -12431953.26321        17.500           1.219
 91  6  3 19  5 29.9960000  0  4G19G11G 2G 6
  20616882.699     -801898.088 6   -585961.69822        16.500           1.875
  22553026.066    -8224089.937 6  -6332559.27921        15.500           0.781
  19955296.754   -23167216.916 8 -17910628.69323        28.000           3.281
  21114060.449   -16218574.764 6 -12464657.39521        17.750           1.250
 91  6  3 19  5 44.9960000  0  4G19G11G 2G 6
  20619201.715     -789714.031 6   -576467.65322        16.000           1.844
  22556639.293    -8205089.443 6  -6317753.72721        15.000           0.688
  19950023.777   -23194918.789 8 -17932214.55223        28.000           3.406
  21106072.496   -16260539.444 6 -12497357.10821        17.500           1.188
 91  6  3 19  5 59.9960000  0  4G19G11G 2G 6
  20621531.520     -777470.584 6   -566927.33422        16.500           1.844
  22560278.676    -8185971.690 6  -6302856.81421        15.000           0.750
  19944764.496   -23222552.065 7 -17953746.96023        27.750           3.281
  21098092.520   -16302488.426 6 -12530044.59521        17.750           1.281
 91  6  3 19  6 14.9960000  0  4G19G11G 2G 6
  20623871.520     -765177.797 6   -557348.56322        16.250           1.813
  22563939.379    -8166747.041 6  -6287876.58621        15.500           0.688
  19939518.223   -23250126.849 8 -17975233.79123        28.000           3.313
  21090109.926   -16344431.660 6 -12562727.60221        17.500           1.281
 91  6  3 19  6 29.9960000  0  4G19G11G 2G 6
  20626225.488     -752823.677 6   -547722.00622        16.000           1.750
  22567617.152    -8147403.960 6  -6272804.08121        15.250           0.625
  19934284.887   -23277631.087 8 -17996665.65123        28.250           3.250
  21082131.895   -16386357.186 6 -12595396.80521        17.750           1.219
 91  6  3 19  6 44.9960000  0  4G19G11G 2G 6
  20628585.699     -740410.737 6   -538049.61722        16.250           1.875
  22571320.824    -8127945.173 6  -6257641.42921        15.000           0.656
  19929063.238   -23305067.324 8 -18018044.52023        28.000           3.094
  21074155.981   -16428267.382 6 -12628054.06621        17.750           1.250
 91  6  3 19  6 59.9960000  0  4G19G11G 2G 6
  20630957.012     -727934.940 6   -528328.25122        16.500           1.781
  22575046.582    -8108366.791 6  -6242385.57021        14.500           0.625
  19923856.902   -23332431.704 8 -18039367.40123        28.500           3.125
  21066185.457   -16470157.975 6 -12660696.05021        17.750           1.313
 91  6  3 19  7 14.9960000  0  4G19G11G 2G 6
  20633347.254     -715385.670 6   -518549.62722        16.500           1.875
  22578797.504    -8088658.648 6  -6227028.61121        14.250           0.625
  19918665.277   -23359713.528 8 -18060625.95323        28.250           3.219
  21058219.152   -16512018.293 6 -12693314.44721        18.000           1.313
 91  6  3 19  7 29.9960000  0  4G19G11G 2G 6
  20635747.293     -702769.713 6   -508719.04522        16.750           1.938
  22582569.082    -8068827.927 6  -6211576.13321        14.250           0.813
  19913488.285   -23386919.679 8 -18081825.54123        28.250           3.063
  21050258.824   -16553855.053 6 -12725914.48621        18.000           1.375
 91  6  3 19  7 44.9960000  0  4G19G11G 2G 6
  20638160.238     -690095.848 6   -498843.33422        16.750           1.781
  22586365.191    -8048883.536 6  -6196035.06721        14.500           0.688
  19908322.566   -23414058.998 8 -18102973.05023        28.000           3.188
  21042299.621   -16595677.136 6 -12758503.08521        18.250           1.281
 91  6  3 19  7 59.9960000  0  4G19G11G 2G 6
  20640584.191     -677354.912 6   -488915.36022        17.000           1.813
  22590187.316    -8028816.746 6  -6180398.64421        14.750           0.656
  19903171.770   -23441122.540 7 -18124061.51523        27.500           3.188
  21034346.066   -16637475.019 6 -12791072.82821        18.750           1.156
 91  6  3 19  8 14.9960000  0  4G19G11G 2G 6
  20643023.285     -664542.660 6   -478931.82122        16.750           1.906
  22594028.856    -8008623.789 6  -6164663.89821        14.750           0.719
  19898037.356   -23468106.215 7 -18145087.74423        27.500           3.125
  21026397.777   -16679244.707 6 -12823620.60321        18.750           1.313
 91  6  3 19  8 29.9960000  0  4G19G11G 2G 6
  20645478.918     -651648.053 6   -468884.11022        16.250           1.813
  22597896.246    -7988293.884 6  -6148822.44221        15.250           0.688
  19892920.762   -23494998.884 7 -18166043.05723        27.750           3.250
  21018455.770   -16720974.957 6 -12856137.64521        18.500           1.281
 91  6  3 19  8 44.9960000  0  4G19G11G 2G 6
  20647943.199     -638686.306 6   -458784.07622        16.750           1.781
  22601788.895    -7967842.400 6  -6132886.24121        15.250           0.688
  19887817.895   -23521815.615 7 -18186939.19623        27.750           3.156
  21010520.652   -16762680.708 6 -12888635.59321        18.750           1.438
 91  6  3 19  8 59.9960000  0  4G19G11G 2G 6
  20650425.441     -625644.919 6   -448621.99022        17.000           1.844
  22605707.418    -7947257.246 6  -6116845.88321        15.250           0.656
  19882731.051   -23548544.033 7 -18207766.52323        27.250           3.250
  21002588.184   -16804349.481 6 -12921104.72721        18.250           1.406
 91  6  3 19  9 14.9960000  0  4G19G11G 2G 6
  20652921.191     -612527.178 6   -438400.40622        17.250           1.813
  22609647.020    -7926542.078 6  -6100704.22621        14.750           0.688
  19877660.824   -23575187.668 7 -18228527.78123        27.500           3.438
  20994665.481   -16845984.492 6 -12953547.55921        18.250           1.406
 91  6  3 19  9 29.9960000  0  4G19G11G 2G 6
  20655430.645     -599336.886 6   -428122.28722        17.500           1.844
  22613613.270    -7905700.860 6  -6084464.33921        15.250           0.656
  19872605.871   -23601750.342 7 -18249225.95223        27.500           3.281
  20986751.293   -16887589.408 6 -12985966.93121        18.250           1.375
 91  6  3 19  9 44.9960000  0  4G19G11G 2G 6
  20657955.309     -586071.824 6   -417785.91022        16.750           1.906
  22617605.941    -7884731.667 6  -6068124.72621        15.500           0.688
  19867567.848   -23628229.896 8 -18269859.35423        28.000           3.156
  20978837.520   -16929161.909 6 -13018361.05221        18.000           1.438
 91  6  3 19  9 59.9960000  0  4G19G11G 2G 6
  20660501.949     -572684.982 6   -407354.63422        17.000           1.906
  22621627.168    -7863587.904 6  -6051649.08821        14.250           0.656
  19862553.121   -23654579.269 8 -18290391.31523        28.000           3.219
  20970944.871   -16970654.867 6 -13050693.17921        19.000           1.406
 91  6  3 19 10 14.9960000  0  4G19G11G 2G 6
  20663067.949     -559202.277 6   -396848.66422        16.500           1.906
  22625679.668    -7842295.700 6  -6035057.78621        14.000           0.656
  19857559.918   -23680824.429 8 -18310842.07423        28.500           3.219
  20963057.121   -17012094.112 6 -13082983.46421        18.750           1.406
 91  6  3 19 10 29.9960000  0  4G19G11G 2G 6
  20665682.504     -545459.389 6   -386139.95622        17.000           1.844
  22629789.824    -7820691.030 6  -6018223.00221        14.250           0.625
  19852615.715   -23706801.111 8 -18331083.62723        28.000           3.188
  20955215.410   -17053315.305 6 -13115103.83421        18.750           1.438
 91  6  3 19 10 44.9960000  0  4G19G11G 2G 6
  20668384.895     -531265.474 6   -375079.79222        16.750           1.938
  22633998.082    -7798583.346 6  -6000996.25921        14.250           0.625
  19847760.059   -23732318.617 8 -18350967.38023        28.250           3.250
  20947446.465   -17094127.402 6 -13146905.42521        18.500           1.406
 91  6  3 19 10 59.9960000  0  4G19G11G 2G 6
  20671180.934     -516572.035 6   -363630.39422        17.000           1.813
  22638309.754    -7775924.447 6  -5983339.98221        14.500           0.625
  19842999.754   -23757328.441 8 -18370455.53923        28.250           3.125
  20939767.785   -17134481.842 6 -13178350.40622        18.500           1.500
 91  6  3 19 11 14.9960000  0  4G19G11G 2G 6
  20674010.613     -501706.789 6   -352047.11922        16.250           1.875
  22642663.004    -7753042.420 6  -5965509.84821        14.250           0.656
  19838275.629   -23782158.437 8 -18389803.57223        28.500           3.094
  20932114.152   -17174706.198 6 -13209694.02522        19.250           1.563
 91  6  3 19 11 29.9960000  0  4G19G11G 2G 6
  20676845.941     -486790.078 6   -340423.74322        16.250           1.844
  22647036.387    -7730058.206 6  -5947600.08521        14.000           0.594
  19833561.848   -23806929.027 8 -18409105.31423        28.500           3.281
  20924459.652   -17214920.942 6 -13241030.15021        18.750           1.375
 91  6  3 19 11 44.9960000  0  4G19G11G 2G 6
  20679695.418     -471828.512 6   -328765.42622        16.500           1.938
  22651428.238    -7706978.461 6  -5929615.89821        14.250           0.656
  19828856.957   -23831646.756 7 -18428365.86523        27.750           3.156
  20916809.996   -17255132.312 6 -13272363.64622        19.250           1.500
 91  6  3 19 11 59.9960000  0  4G19G11G 2G 6
  20682556.246     -456785.893 6   -317043.93222        16.250           1.906
  22655843.637    -7683767.295 6  -5911529.30221        14.000           0.594
  19824170.613   -23856275.456 8 -18447557.04223        28.000           3.188
  20909164.848   -17295304.125 6 -13303666.31422        18.500           1.531
 91  6  3 19 12 14.9960000  0  4G19G11G 2G 6
  20685433.012     -441679.019 6   -305272.37822        16.250           1.844
  22660284.762    -7660441.679 6  -5893353.51621        14.250           0.594
  19819498.277   -23880831.932 7 -18466691.94323        27.750           3.156
  20901523.457   -17335452.856 6 -13334950.99921        18.750           1.438
 91  6  3 19 12 29.9960000  0  4G19G11G 2G 6
  20688317.473     -426513.773 6   -293455.33922        16.500           1.875
  22664746.098    -7637007.981 6  -5875093.50621        14.250           0.594
  19814838.074   -23905322.448 8 -18485775.44823        28.000           3.188
  20893889.387   -17375584.458 6 -13366222.33321        18.750           1.469
 91  6  3 19 12 44.9960000  0  4G19G11G 2G 6
  20691217.504     -411286.530 6   -281589.98922        15.750           1.844
  22669224.215    -7613463.102 6  -5856746.87021        14.250           0.719
  19810190.918   -23929743.403 7 -18504804.74823        27.750           3.188
  20886253.941   -17415695.400 6 -13397477.57221        18.500           1.438
 91  6  3 19 12 59.9960000  0  4G19G11G 2G 6
  20694126.098     -395993.690 6   -269673.52522        16.000           1.906
  22673725.496    -7589803.799 6  -5838311.06421        14.000           0.563
  19805557.996   -23954091.291 8 -18523777.10923        28.000           3.156
  20878627.020   -17455781.904 6 -13428713.76921        18.750           1.406
 91  6  3 19 13 14.9960000  0  4G19G11G 2G 6
  20697046.684     -380655.423 6   -257721.66022        15.750           1.906
  22678246.863    -7566050.456 6  -5819801.99421        13.500           0.625
  19800935.473   -23978386.162 8 -18542708.16223        28.250           3.156
  20870998.809   -17495863.974 6 -13459946.51121        18.750           1.469
 91  6  3 19 13 29.9960000  0  4G19G11G 2G 6
  20699971.082     -365265.992 6   -245729.93022        16.250           1.844
  22682786.676    -7542197.544 6  -5801215.33121        13.250           0.688
  19796323.957   -24002622.236 8 -18561593.39623        28.250           3.250
  20863372.746   -17535935.706 6 -13491171.19622        19.000           1.656
 91  6  3 19 13 44.9960000  0  4G19G11G 2G 6
  20702914.434     -349809.807 6   -233686.18722        15.500           1.813
  22687348.457    -7518229.881 6  -5782539.25521        13.500           0.594
  19791724.770   -24026784.100 8 -18580420.80623        28.000           3.250
  20855754.535   -17575981.474 6 -13522375.64722        19.250           1.625
 91  6  3 19 13 59.9960000  0  4G19G11G 2G 6
  20705859.731     -334334.146 6   -221627.26922        15.750           1.875
  22691920.324    -7494194.927 6  -5763810.74621        13.750           0.656
  19787131.801   -24050919.068 7 -18599227.25523        27.750           3.188
  20848128.410   -17616048.363 6 -13553596.55822        19.000           1.594
 91  6  3 19 14 14.9960000  0  4G19G11G 2G 6
  20708813.277     -318813.454 6   -209533.25822        15.750           1.844
  22696510.598    -7470067.442 6  -5745010.13721        13.500           0.719
  19782548.910   -24075001.690 7 -18617992.91723        27.750           3.313
  20840504.191   -17656110.741 6 -13584813.94522        19.000           1.719
 91  6  3 19 14 29.9960000  0  4G19G11G 2G 6
  20711768.731     -303282.863 6   -197432.04222        16.500           1.938
  22701114.887    -7445882.869 6  -5726165.53821        13.500           0.656
  19777969.254   -24099067.159 7 -18636745.71223        27.500           3.250
  20832876.184   -17696203.564 6 -13616055.56622        18.750           1.531
 91  6  3 19 14 44.9960000  0  4G19G11G 2G 6
  20714737.074     -287687.711 6   -185280.01622        15.750           1.844
  22705737.645    -7421586.918 6  -5707233.63821        13.750           0.688
  19773403.731   -24123060.695 8 -18655441.94923        28.000           3.125
  20825251.488   -17736271.897 6 -13647277.60722        19.000           1.625
 91  6  3 19 14 59.9960000  0  4G19G11G 2G 6
  20717705.418     -272088.145 6   -173124.54622        15.750           1.844
  22710371.309    -7397240.125 6  -5688262.13621        13.750           0.563
  19768840.176   -24147042.584 8 -18674129.11423        28.000           3.219
  20817617.996   -17776375.998 6 -13678527.51722        18.000           1.688
 91  6  3 19 15 14.9960000  0  4G19G11G 2G 6
  20720669.176     -256510.416 6   -160986.09422        15.500           1.813
  22715007.262    -7372869.030 6  -5669271.69921        13.500           0.688
  19764274.629   -24171039.184 8 -18692827.74623        28.750           3.281
  20809976.270   -17816542.157 6 -13709825.77722        18.500           1.594
 91  6  3 19 15 29.9960000  0  4G19G11G 2G 6
  20723644.981     -240874.213 6   -148802.35522        15.500           1.875
  22719664.316    -7348393.475 6  -5650200.14221        13.750           0.625
  19759719.387   -24194970.093 8 -18711475.46423        28.750           3.219
  20802335.809   -17856689.649 6 -13741109.77922        18.500           1.594
 91  6  3 19 15 44.9960000  0  4G19G11G 2G 6
  20726595.512     -225369.106 6   -136720.21522        15.500           1.875
  22724309.426    -7324003.689 6  -5631194.86321        14.500           0.531
  19755142.441   -24219025.162 8 -18730219.37123        28.250           3.219
  20794662.137   -17897007.994 6 -13772526.35722        19.000           1.500
 91  6  3 19 15 59.9960000  0  4G19G11G 2G 6
  20729555.856     -209821.461 6   -124605.20222        15.250           1.719
  22728966.762    -7299526.103 6  -5612121.45021        14.750           0.656
  19750574.121   -24243030.598 7 -18748924.88623        27.750           3.125
  20786992.816   -17937323.493 6 -13803940.99322        19.500           1.500
 91  6  3 19 16 14.9960000  0  4G19G11G 2G 6
  20732461.410     -194551.205 6   -112706.33622        15.250           1.781
  22733577.918    -7275281.024 6  -5593229.20421        14.500           0.625
  19745954.871   -24267306.447 7 -18767841.11423        27.500           3.188
  20779261.410   -17977955.918 6 -13835602.58622        19.750           1.594
 91  6  3 19 16 29.9960000  0  4G19G11G 2G 6
  20735336.879     -179425.419 6   -100920.04422        16.000           1.750
  22738174.348    -7251135.874 6  -5574414.83221        13.750           0.563
  19741309.137   -24291719.970 7 -18786864.62223        27.500           3.219
  20771492.535   -18018772.196 6 -13867407.44722        19.500           1.750
 91  6  3 19 16 44.9960000  0  4G19G11G 2G 6
  20738218.223     -164292.619 6    -89128.29022        16.000           1.750
  22742779.074    -7226939.541 6  -5555560.57521        14.000           0.656
  19736664.934   -24316119.682 7 -18805877.36523        27.500           3.156
  20763718.816   -18059620.881 6 -13899237.56422        19.000           1.688
 91  6  3 19 16 59.9960000  0  4G19G11G 2G 6
  20741097.738     -149173.282 6    -77347.02522        15.750           1.688
  22747387.996    -7202712.830 6  -5536682.65721        14.000           0.594
  19732020.832   -24340526.124 7 -18824895.35323        27.250           3.094
  20755936.926   -18100522.287 6 -13931108.75322        19.250           1.688
 91  6  3 19 17 14.9960000  0  4G19G11G 2G 6
  20743965.684     -134093.896 6    -65596.89322        16.000           1.594
  22751995.879    -7178482.625 6  -5517802.00521        13.750           0.594
  19727370.793   -24364965.868 7 -18843939.28923        27.750           3.156
  20748136.488   -18141502.700 6 -13963041.51722        19.000           1.719
 91  6  3 19 17 29.9960000  0  4G19G11G 2G 6
  20746827.871     -119054.981 6    -53878.29522        16.000           1.563
  22756611.238    -7154249.577 6  -5498919.15121        13.750           0.625
  19722713.152   -24389439.323 7 -18863009.49323        27.500           3.188
  20740322.191   -18182562.349 6 -13995036.02022        18.750           1.594
 91  6  3 19 17 44.9960000  0  4G19G11G 2G 6
  20749691.223     -104000.919 6    -42147.89622        16.000           1.563
  22761234.598    -7129958.600 6  -5479991.13221        13.750           0.469
  19718060.731   -24413891.010 7 -18882062.73923        27.750           3.313
  20732506.777   -18223645.845 6 -14027049.10322        19.000           1.563
 91  6  3 19 17 59.9960000  0  4G19G11G 2G 6
  20752563.387      -88901.002 6    -30381.76422        16.000           1.500
  22765873.777    -7105579.124 6  -5460994.17521        13.500           0.500
  19713417.238   -24438290.225 8 -18901075.09323        28.000           3.188
  20724689.371   -18264722.083 6 -14059056.53322        19.250           1.531
 91  6  3 19 18 14.9960000  0  4G19G11G 2G 6
  20755448.840      -73745.148 6    -18572.04222        16.000           1.656
  22770529.637    -7081101.468 6  -5441920.70621        13.250           0.469
  19708786.215   -24462627.019 8 -18920038.80823        28.000           3.219
  20716876.285   -18305780.780 6 -14091050.28922        19.500           1.656
 91  6  3 19 18 29.9960000  0  4G19G11G 2G 6
  20758343.356      -58529.938 6     -6716.07522        16.000           1.531
  22775209.004    -7056522.671 6  -5422768.42221        13.250           0.625
  19704167.981   -24486898.137 7 -18938951.35223        27.750           3.219
  20709066.793   -18346818.732 6 -14123027.88822        19.750           1.625
 91  6  3 19 18 44.9960000  0  4G19G11G 2G 6
  20761251.199      -43257.457 6      5184.52222        16.250           1.531
  22779903.113    -7031845.163 6  -5403539.23721        12.750           0.594
  19699560.871   -24511105.727 7 -18957814.38723        27.750           3.250
  20701260.949   -18387837.887 6 -14154990.83822        19.750           1.656
 91  6  3 19 18 59.9960000  0  4G19G11G 2G 6
  20764169.551      -27925.179 6     17131.71021        16.500           1.469
  22784618.074    -7007066.574 6  -5384231.29021        12.500           0.500
  19694966.754   -24535247.182 7 -18976625.89323        27.250           3.125
  20693460.121   -18428835.356 6 -14186936.89622        19.750           1.594
 91  6  3 19 19 14.9960000  0  4G19G11G 2G 6
  20767100.566      -12527.300 6     29130.02121        16.250           1.438
  22789353.043    -6982181.532 6  -5364840.40221        12.500           0.500
  19690387.816   -24559316.946 7 -18995381.53823        27.500           3.313
  20685662.895   -18469805.334 6 -14218861.53222        19.750           1.656
 91  6  3 19 19 29.9960000  0  4G19G11G 2G 6
  20770039.270        2933.014 6     41176.98322        16.250           1.531
  22794108.723    -6957193.456 6  -5345369.21021        12.750           0.563
  19685820.246   -24583318.000 7 -19014083.64223        27.500           3.281
  20677871.059   -18510750.843 6 -14250767.09822        19.750           1.625
 91  6  3 19 19 44.9960000  0  4G19G11G 2G 6
  20772995.582       18453.569 6     53270.88421        16.250           1.469
  22798884.207    -6932104.922 6  -5325819.74221        13.000           0.531
  19681265.488   -24607252.700 7 -19032734.04023        27.750           3.281
  20670084.090   -18551673.848 6 -14282655.12822        19.500           1.656
 91  6  3 19 19 59.9960000  0  4G19G11G 2G 6
  20775959.348       34036.350 6     65413.27721        16.000           1.438
  22803675.770    -6906914.113 6  -5306190.57521        13.000           0.500
  19676723.902   -24631118.845 8 -19051331.02223        28.000           3.406
  20662301.754   -18592572.297 7 -14314524.02122        20.000           1.625
 91  6  3 19 20 14.9960000  0  4G19G11G 2G 6
  20778937.832       49686.979 6     77608.53221        15.750           1.438
  22808490.746    -6881615.858 6  -5286477.67721        13.250           0.469
  19672195.777   -24654911.163 7 -19069870.47123        27.750           3.375
  20654525.059   -18633440.524 7 -14346369.37122        20.500           1.625
 91  6  3 19 20 29.9960000  0  4G19G11G 2G 6
  20781925.465       65396.640 6     89849.78922        16.250           1.500
  22813325.395    -6856219.412 6  -5266688.27921        13.000           0.500
  19667680.301   -24678638.581 8 -19088359.35423        28.250           3.375
  20646752.926   -18674287.063 7 -14378197.81222        20.000           1.625
 91  6  3 19 20 44.9960000  0  4G19G11G 2G 6
  20784928.098       81168.480 6    102139.49922        16.000           1.531
  22818176.770    -6830721.822 6  -5246820.06321        13.000           0.500
  19663177.871   -24702297.866 8 -19106795.14823        28.000           3.375
  20638984.137   -18715108.616 7 -14410006.79022        20.000           1.594
 91  6  3 19 20 59.9960000  0  4G19G11G 2G 6
  20787943.824       97003.826 6    114478.69821        15.250           1.469
  22823048.645    -6805122.150 6  -5226872.31721        12.750           0.563
  19658688.246   -24725887.727 7 -19125176.84423        27.750           3.406
  20631220.504   -18755903.763 7 -14441795.18322        20.000           1.688
 91  6  3 19 21 14.9960000  0  4G19G11G 2G 6
  20790968.496      112904.989 6    126869.17422        16.250           1.500
  22827939.543    -6779418.404 6  -5206843.46421        12.500           0.625
  19654212.527   -24749405.835 7 -19143502.62823        27.750           3.438
  20623462.106   -18796669.980 6 -14473561.04622        19.750           1.750
 91  6  3 19 21 29.9960000  0  4G19G11G 2G 6
  20794005.621      128868.294 6    139308.08121        16.000           1.469
  22832849.449    -6753614.559 6  -5186736.61521        13.000           0.469
  19649751.418   -24772856.126 7 -19161775.56723        27.750           3.344
  20615709.965   -18837410.892 7 -14505307.17922        20.000           1.688
 91  6  3 19 21 44.9960000  0  4G19G11G 2G 6
  20797053.699      144892.703 6    151794.60021        15.250           1.438
  22837777.207    -6727712.076 6  -5166552.90021        12.750           0.594
  19645301.254   -24796239.642 7 -19179996.47423        27.250           3.375
  20607963.527   -18878127.485 6 -14537034.36322        19.750           1.719
 91  6  3 19 21 59.9960000  0  4G19G11G 2G 6
  20800115.691      160984.750 6    164333.82021        16.250           1.344
  22842729.465    -6701704.609 6  -5146287.37221        13.250           0.531
  19640864.262   -24819549.660 7 -19198160.11023        27.250           3.406
  20600220.316   -18918812.852 7 -14568737.22322        20.250           1.938
 91  6  3 19 22 14.9960000  0  4G19G11G 2G 6
  20803192.090      177144.855 6    176926.07521        15.250           1.469
  22847697.176    -6675592.132 6  -5125940.02321        12.750           0.563
  19636444.574   -24842785.968 7 -19216266.31023        27.750           3.469
  20592482.246   -18959466.665 7 -14600415.48722        20.000           1.906
 91  6  3 19 22 29.9960000  0  4G19G11G 2G 6
  20806276.629      193363.747 6    189564.13421        15.750           1.438
  22852683.676    -6649384.372 6  -5105518.43921        12.750           0.531
  19632034.606   -24865957.936 7 -19234322.37023        27.750           3.344
  20584752.723   -19000097.956 7 -14632076.19922        20.000           1.875
 91  6  3 19 22 44.9960000  0  4G19G11G 2G 6
  20809375.387      209640.266 6    202247.09721        15.750           1.469
  22857689.231    -6623082.781 6  -5085023.71721        13.000           0.594
  19627636.996   -24889066.914 7 -19252329.34923        27.500           3.406
  20577024.926   -19040707.738 7 -14663720.15422        20.000           1.906
 91  6  3 19 22 59.9960000  0  4G19G11G 2G 6
  20812482.934      225977.286 6    214977.20821        16.250           1.406
  22862712.027    -6596684.662 6  -5064453.78921        12.750           0.563
  19623253.746   -24912109.724 8 -19270284.76824        28.000           3.563
  20569300.449   -19081292.981 7 -14695344.98522        20.000           1.844
 91  6  3 19 23 14.9960000  0  4G19G11G 2G 6
  20815606.684      242378.450 6    227757.29722        15.750           1.500
  22867753.637    -6570186.638 6  -5043806.02021        13.000           0.688
  19618880.863   -24935082.937 7 -19288185.95723        27.500           3.313
  20561584.207   -19121849.816 7 -14726947.68122        20.000           1.875
 91  6  3 19 23 29.9960000  0  4G19G11G 2G 6
  20818738.184      258840.225 6    240584.60922        16.250           1.563
  22872814.520    -6543592.848 6  -5023083.63421        12.750           0.563
  19614521.941   -24957990.330 7 -19306035.85824        27.500           3.500
  20553869.887   -19162381.807 6 -14758531.01622        19.750           1.750
 91  6  3 19 23 44.9960000  0  4G19G11G 2G 6
  20821884.559      275368.632 6    253463.85022        15.500           1.563
  22877894.973    -6516897.520 6  -5002282.12121        12.500           0.594
  19610176.746   -24980825.752 7 -19323829.67223        27.750           3.344
  20546163.598   -19202882.732 6 -14790090.14522        19.750           1.781
 91  6  3 19 23 59.9960000  0  4G19G11G 2G 6
  20825038.902      291956.455 6    266389.38922        15.750           1.531
  22882990.606    -6490108.167 6  -4981407.33121        12.250           0.531
  19605843.504   -25003596.646 7 -19341573.20823        27.750           3.281
  20538460.395   -19243359.743 6 -14821630.63922        19.750           1.750
 91  6  3 19 24 14.9960000  0  4G19G11G 2G 6
  20828210.629      308610.449 6    279366.48622        15.500           1.563
  22888107.973    -6463218.435 6  -4960454.33221        12.250           0.625
  19601523.707   -25026296.248 8 -19359261.19323        28.000           3.375
  20530764.082   -19283805.954 7 -14853147.13122        20.000           1.875
 91  6  3 19 24 29.9960000  0  4G19G11G 2G 6
  20831389.457      325328.097 6    292393.18522        15.750           1.500
  22893246.801    -6436231.133 6  -4939425.30021        12.750           0.563
  19597217.566   -25048926.941 8 -19376895.47723        28.000           3.250
  20523072.543   -19324223.387 7 -14884641.20222        20.000           1.844
 91  6  3 19 24 44.9960000  0  4G19G11G 2G 6
  20834583.715      342108.834 6    305469.04422        15.000           1.563
  22898401.145    -6409147.063 6  -4918320.88121        12.500           0.656
  19592924.160   -25071489.422 8 -19394476.61123        28.250           3.250
  20515387.527   -19364612.616 6 -14916113.29022        19.750           1.844
 91  6  3 19 24 59.9960000  0  4G19G11G 2G 6
  20837786.606      358943.562 6    318586.97122        15.500           1.594
  22903570.699    -6381975.625 6  -4897148.38121        12.250           0.531
  19588641.879   -25093992.644 8 -19412011.57123        28.750           3.375
  20507704.395   -19404982.572 7 -14947570.36222        20.000           1.969
 91  6  3 19 25 14.9960000  0  4G19G11G 2G 6
  20841003.301      375839.919 6    331752.91722        15.250           1.563
  22908757.043    -6354709.434 5  -4875902.04021        11.750           0.406
  19584372.012   -25116429.013 8 -19429494.43723        28.500           3.250
  20500028.973   -19445325.333 7 -14979006.24822        20.250           1.938
 91  6  3 19 25 29.9960000  0  4G19G11G 2G 6
  20844230.160      392798.221 6    344967.13922        15.250           1.500
  22913966.121    -6327348.517 6  -4854581.88521        12.000           0.563
  19580115.152   -25138798.333 8 -19446925.05923        28.500           3.281
  20492356.738   -19485640.515 7 -15010420.64022        20.250           2.000
 91  6  3 19 25 44.9960000  0  4G19G11G 2G 6
  20847469.238      409817.646 6    358228.98721        15.000           1.438
  22919190.012    -6299894.243 5  -4833188.97221        11.500           0.469
  19575872.020   -25161101.658 8 -19464304.25323        28.750           3.375
  20484688.785   -19525928.983 7 -15041814.21222        20.000           2.031
 91  6  3 19 25 59.9960000  0  4G19G11G 2G 6
  20850717.613      426901.254 6    371540.85021        15.500           1.469
  22924431.934    -6272343.913 5  -4811721.23221        11.750           0.500
  19571639.582   -25183336.073 8 -19481629.75423        28.250           3.250
  20477028.691   -19566187.420 7 -15073184.39022        20.250           1.969
 91  6  3 19 26 14.9960000  0  4G19G11G 2G 6
  20853981.238      444045.588 6    384900.03021        14.750           1.406
  22929693.879    -6244701.363 6  -4790181.62921        12.250           0.531
  19567421.051   -25205504.998 8 -19498904.22823        28.500           3.188
  20469372.129   -19606419.155 7 -15104533.76422        20.250           1.938
 91  6  3 19 26 29.9960000  0  4G19G11G 2G 6
  20857255.895      461251.799 6    398307.42321        14.750           1.469
  22934969.637    -6216965.780 6  -4768569.50521        12.500           0.531
  19563215.457   -25227607.420 8 -19516126.87423        28.250           3.281
  20461721.777   -19646623.081 7 -15135861.46222        20.250           1.906
 91  6  3 19 26 44.9960000  0  4G19G11G 2G 6
  20860542.848      478517.494 6    411761.16722        15.250           1.531
  22940268.543    -6189139.790 6  -4746886.95321        13.000           0.500
  19559021.441   -25249645.659 7 -19533299.51523        27.750           3.344
  20454075.113   -19686801.085 7 -15167168.96222        20.000           1.938
 91  6  3 19 26 59.9960000  0  4G19G11G 2G 6
  20863837.246      495844.689 6    425262.82921        15.500           1.469
  22945578.043    -6161221.573 6  -4725132.53621        12.250           0.531
  19554840.629   -25271617.530 8 -19550420.43323        28.250           3.313
  20446435.316   -19726951.066 7 -15198454.63222        20.500           1.938
 91  6  3 19 27 14.9960000  0  4G19G11G 2G 6
  20867146.941      513233.765 6    438812.71321        15.000           1.344
  22950910.520    -6133211.166 6  -4703306.28221        12.000           0.500
  19550671.051   -25293522.683 7 -19567489.36623        27.750           3.375
  20438802.785   -19767072.342 7 -15229717.93022        20.500           1.969
 91  6  3 19 27 29.9960000  0  4G19G11G 2G 6
  20870468.066      530680.587 6    452407.59421        15.500           1.438
  22956255.598    -6105113.017 6  -4681411.65821        12.250           0.500
  19546514.395   -25315365.521 7 -19584509.74123        27.500           3.375
  20431171.449   -19807169.020 7 -15260962.06722        20.250           2.000
 91  6  3 19 27 44.9960000  0  4G19G11G 2G 6
  20873798.871      548187.022 6    466048.92421        15.500           1.375
  22961617.738    -6076925.529 6  -4659447.40721        12.000           0.469
  19542371.449   -25337144.045 7 -19601480.00323        27.750           3.438
  20423546.285   -19847239.007 7 -15292185.40222        20.250           2.000
 91  6  3 19 27 59.9960000  0  4G19G11G 2G 6
  20877143.848      565760.582 6    479742.56021        15.500           1.313
  22967000.660    -6048641.615 5  -4637408.02021        11.750           0.500
  19538240.082   -25358851.078 7 -19618394.55623        27.500           3.406
  20415926.340   -19887274.860 7 -15323382.14222        20.250           2.031
 91  6  3 19 28 14.9960000  0  4G19G11G 2G 6
  20880499.176      583394.481 6    493483.22121        15.250           1.406
  22972403.027    -6020268.402 5  -4615299.04721        11.500           0.625
  19534121.395   -25380493.234 7 -19635258.55723        27.250           3.469
  20408314.145   -19927282.820 7 -15354557.14822        20.250           2.031
 91  6  3 19 28 29.9960000  0  4G19G11G 2G 6
  20883867.129      601090.574 6    507272.33921        15.000           1.281
  22977817.098    -5991804.468 6  -4593119.39421        12.000           0.625
  19530015.652   -25402068.841 7 -19652070.70323        27.750           3.469
  20400706.613   -19967261.252 7 -15385709.14722        20.750           2.094
 91  6  3 19 28 44.9960000  0  4G19G11G 2G 6
  20887247.457      618847.589 6    521108.92621        15.250           1.406
  22983249.590    -5963251.354 5  -4570870.24521        11.500           0.438
  19525922.215   -25423579.127 8 -19668831.94723        28.000           3.406
  20393103.379   -20007211.092 7 -15416838.86322        20.250           2.094
 91  6  3 19 28 59.9960000  0  4G19G11G 2G 6
  20890635.223      636670.831 6    534997.12221        16.000           1.406
  22988704.027    -5934604.092 5  -4548547.73521        11.750           0.469
  19521842.301   -25445018.838 8 -19685538.20323        28.250           3.438
  20385507.238   -20047126.877 7 -15447942.04222        20.750           2.156
 91  6  3 19 29 14.9960000  0  4G19G11G 2G 6
  20894040.981      654554.464 6    548932.37521        15.250           1.250
  22994169.152    -5905868.911 5  -4526156.72121        11.750           0.438
  19517774.965   -25466393.988 8 -19702194.14723        28.500           3.438
  20377918.113   -20087014.298 7 -15479023.11722        21.000           2.156
 91  6  3 19 29 29.9960000  0  4G19G11G 2G 6
  20897456.754      672493.402 6    562910.72721        15.000           1.313
  22999653.973    -5877051.306 5  -4503701.47621        11.500           0.375
  19513719.520   -25487709.723 8 -19718803.79423        28.500           3.438
  20370331.652   -20126878.399 7 -15510086.02722        20.750           2.125
 91  6  3 19 29 44.9960000  0  4G19G11G 2G 6
  20900880.488      690494.694 6    576937.66221        15.000           1.250
  23005157.715    -5848144.484 6  -4481176.71121        12.000           0.406
  19509676.176   -25508958.998 8 -19735361.65823        28.250           3.375
  20362751.684   -20166711.868 7 -15541125.06322        20.750           2.281
 91  6  3 19 29 59.9960000  0  4G19G11G 2G 6
  20904315.879      708551.362 6    591007.74421        15.250           1.313
  23010670.223    -5819155.544 5  -4458587.95221        11.250           0.406
  19505644.496   -25530148.568 8 -19751872.99823        28.500           3.406
  20355176.426   -20206521.352 7 -15572145.41422        20.750           2.125
 91  6  3 19 30 14.9960000  0  4G19G11G 2G 6
  20907766.160      726673.044 6    605128.48521        15.250           1.313
  23016203.988    -5790075.235 5  -4435928.00621        11.750           0.344
  19501623.895   -25551269.016 8 -19768330.47423        28.250           3.281
  20347607.098   -20246297.098 7 -15603139.47422        20.750           2.125
 91  6  3 19 30 29.9960000  0  4G19G11G 2G 6
  20911224.934      744859.099 6    619299.39221        15.500           1.438
  23021756.629    -5760904.632 6  -4413197.68721        12.250           0.344
  19497618.481   -25572321.029 8 -19784734.63123        28.250           3.438
  20340044.699   -20286039.558 7 -15634107.59622        21.000           2.188
 91  6  3 19 30 44.9960000  0  4G19G11G 2G 6
  20914700.871      763114.403 6    633524.25921        15.000           1.281
  23027326.746    -5731639.231 6  -4390393.48321        12.500           0.375
  19493626.824   -25593299.777 8 -19801081.69323        28.500           3.281
  20332489.215   -20325743.816 7 -15665045.95322        20.750           2.000
 91  6  3 19 30 59.9960000  0  4G19G11G 2G 6
  20918182.941      781430.812 6    647796.73821        15.250           1.313
  23032912.379    -5702287.543 6  -4367522.07021        12.500           0.344
  19489647.090   -25614213.541 7 -19817378.12223        27.750           3.438
  20324939.004   -20365417.747 7 -15695960.67922        20.750           2.094
 91  6  3 19 31 14.9960000  0  4G19G11G 2G 6
  20921682.418      799806.602 6    662115.49021        14.750           1.313
  23038512.191    -5672851.523 6  -4344584.94221        12.000           0.438
  19485680.285   -25635063.978 8 -19833625.20523        28.250           3.344
  20317394.395   -20405062.822 7 -15726852.91722        21.250           2.094
 91  6  3 19 31 29.9960000  0  4G19G11G 2G 6
  20925194.402      818253.291 6    676489.48221        14.750           1.219
  23044131.566    -5643320.007 6  -4321573.39121        12.500           0.344
  19481725.387   -25655839.639 7 -19849814.01723        27.750           3.375
  20309859.324   -20444667.383 7 -15757713.59222        21.500           2.063
 91  6  3 19 31 44.9960000  0  4G19G11G 2G 6
  20928715.363      836763.835 6    690913.24121        14.500           1.156
  23049768.754    -5613700.501 6  -4298493.27021        12.500           0.406
  19477785.043   -25676547.650 7 -19865950.12123        27.750           3.156
  20302329.918   -20484238.450 7 -15788548.16122        21.500           2.000
 91  6  3 19 31 59.9960000  0  4G19G11G 2G 6
  20932250.402      855347.156 6    705393.70421        14.500           1.188
  23055423.863    -5583984.329 5  -4275337.84721        11.750           0.406
  19473859.363   -25697179.127 8 -19882026.58723        28.000           3.375
  20294806.699   -20523766.800 7 -15819349.44822        21.500           1.938
 91  6  3 19 32 14.9960000  0  4G19G11G 2G 6
  20935799.801      873991.576 6    719921.77521        14.250           1.219
  23061092.449    -5554183.358 6  -4252116.34621        12.000           0.344
  19469945.231   -25717745.612 8 -19898052.40823        28.000           3.438
  20287291.020   -20563263.820 7 -15850126.31522        21.500           2.063
 91  6  3 19 32 29.9960000  0  4G19G11G 2G 6
  20939358.254      892696.578 6    734497.05421        14.250           1.250
  23066781.832    -5524298.556 5  -4228829.50521        11.500           0.406
  19466043.660   -25738247.710 8 -19914028.05923        28.000           3.281
  20279780.590   -20602729.953 7 -15880879.11622        21.500           1.938
 91  6  3 19 32 44.9960000  0  4G19G11G 2G 6
  20942930.504      911465.019 6    749121.77021        14.250           1.250
  23072484.668    -5494327.551 6  -4205475.52021        12.000           0.375
  19462155.168   -25758682.718 8 -19929951.43223        28.000           3.406
  20272276.184   -20642162.284 7 -15911605.58322        21.000           2.063
 91  6  3 19 32 59.9960000  0  4G19G11G 2G 6
  20946513.176      930300.435 6    763798.66021        14.750           1.313
  23078205.973    -5464266.918 5  -4182051.67121        11.750           0.500
  19458279.856   -25779047.180 7 -19945819.83623        27.750           3.313
  20264780.051   -20681556.921 7 -15942302.67022        21.000           2.063
 91  6  3 19 33 14.9960000  0  4G19G11G 2G 6
  20950111.145      949200.573 6    778525.99721        14.250           1.219
  23083941.262    -5434119.215 5  -4158559.98621        11.000           0.531
  19454417.566   -25799343.125 8 -19961634.84923        28.500           3.344
  20257290.848   -20720915.988 7 -15972972.04322        21.000           2.031
 91  6  3 19 33 29.9960000  0  4G19G11G 2G 6
  20953723.473      968168.257 6    793305.95821        14.000           1.219
  23089694.551    -5403881.941 5  -4134998.49821        11.000           0.500
  19450569.348   -25819567.950 8 -19977394.44623        28.250           3.469
  20249807.551   -20760236.389 7 -16003611.28922        21.250           2.156
 91  6  3 19 33 44.9950000  0  4G19G11G 2G 6
  20957343.679      987202.030 6    808137.42121        14.750           1.313
  23095466.444    -5373557.747 5  -4111369.28821        10.500           0.500
  19446733.804   -25839720.468 8 -19993097.70224        28.500           3.594
  20242334.944   -20799515.458 7 -16034218.32422        21.250           2.094
 91  6  3 19 33 59.9950000  0  4G19G11G 2G 6
  20960976.804     1006300.101 6    823018.98221        14.000           1.219
  23101255.257    -5343147.167 5  -4087672.76821        10.500           0.469
  19442910.694   -25859807.846 8 -20008750.19823        28.750           3.469
  20234865.187   -20838762.700 7 -16064800.56522        21.000           2.031
 91  6  3 19 34 14.9950000  0  4G19G11G 2G 6
  20964624.694     1025468.637 6    837955.45921        14.000           1.250
  23107056.976    -5312645.173 5  -4063905.01421        10.500           0.500
  19439102.476   -25879821.319 8 -20024345.10423        28.500           3.375
  20227405.046   -20877967.935 7 -16095350.07022        21.250           2.031
 91  6  3 19 34 29.9950000  0  4G19G11G 2G 6
  20968283.601     1044705.884 6    852945.46821        14.250           1.406
  23112879.999    -5282053.894 5  -4040067.69821        10.500           0.563
  19435307.390   -25899762.728 8 -20039883.85823        28.750           3.438
  20219951.710   -20917132.548 7 -16125867.92422        21.250           2.063
 91  6  3 19 34 44.9950000  0  4G19G11G 2G 6
  20971960.562     1064012.107 6    867989.22721        14.000           1.281
  23118716.577    -5251373.400 5  -4016160.86721         9.750           0.594
  19431526.718   -25919631.734 8 -20055366.19624        28.750           3.531
  20212506.171   -20956256.212 7 -16156353.87622        20.750           2.094
 91  6  3 19 34 59.9950000  0  4G19G11G 2G 6
  20975645.218     1083388.507 6    883087.66821        14.500           1.219
  23124572.194    -5220602.943 5  -3992183.92421         9.750           0.594
  19427759.413   -25939427.235 8 -20070791.25523        28.500           3.469
  20205069.335   -20995337.522 7 -16186806.82322        20.500           2.063
 91  6  3 19 35 14.9950000  0  4G19G11G 2G 6
  20979345.280     1102826.276 6    898233.93321        14.000           1.219
  23130442.960    -5189751.565 5  -3968143.93721         9.500           0.563
  19424004.874   -25959158.080 8 -20086165.93223        29.000           3.281
  20197639.179   -21034385.071 7 -16217233.46022        20.250           2.031
 91  6  3 19 35 29.9950000  0  4G19G11G 2G 6
  20983055.944     1122328.522 6    913430.43521        14.500           1.219
  23136331.194    -5158816.418 5  -3944038.66521         9.750           0.563
  19420262.718   -25978821.240 8 -20101487.86523        28.500           3.406
  20190215.382   -21073395.494 7 -16247631.16822        21.000           2.063
 91  6  3 19 35 44.9950000  0  4G19G11G 2G 6
  20986780.804     1141893.997 6    928676.20421        14.000           1.281
  23142230.194    -5127799.193 5  -3919869.43721         9.250           0.406
  19416533.304   -25998418.009 8 -20116758.06923        28.500           3.313
  20182799.460   -21112370.073 7 -16278000.95322        21.000           2.031
 91  6  3 19 35 59.9950000  0  4G19G11G 2G 6
  20990516.968     1161526.002 6    943973.81521        14.000           1.250
  23148150.015    -5096696.873 5  -3895633.88721         9.250           0.469
  19412818.382   -26017945.110 7 -20131973.98123        27.750           3.344
  20175389.702   -21151305.152 7 -16308339.95322        21.500           2.094
 91  6  3 19 36 14.9950000  0  4G19G11G 2G 6
  20994265.288     1181225.649 6    959324.13221        14.000           1.188
  23154088.851    -5065508.568 5  -3871331.36221        10.000           0.469
  19409115.999   -26037401.448 7 -20147134.75223        27.500           3.313
  20167988.905   -21190199.399 7 -16338647.13522        21.500           2.094
 91  6  3 19 36 29.9950000  0  4G19G11G 2G 6
  20998026.265     1200994.698 6    974728.53821        14.500           1.281
  23160036.062    -5034232.915 5  -3846960.75021        10.250           0.469
  19405427.085   -26056785.288 7 -20162239.03623        27.500           3.344
  20160596.233   -21229050.824 7 -16368920.95122        21.500           2.094
